<?xml version='1.0' encoding='UTF-8'?><gpx version="1.1" creator="JPX - https://github.com/jenetics/jpx" xmlns="http://www.topografix.com/GPX/1/1"><trk><trkseg><trkpt lat="45.9013274" lon="11.9952374"><ele>258.0</ele><time>2026-05-03T16:41:05.597Z</time></trkpt><trkpt lat="45.9013609" lon="11.9951451"><ele>258.0</ele><time>2026-05-03T16:42:13.598Z</time></trkpt><trkpt lat="45.9013123" lon="11.9952163"><ele>258.0</ele><time>2026-05-03T16:43:03.599Z</time></trkpt><trkpt lat="45.9012683" lon="11.9953343"><ele>258.0</ele><time>2026-05-03T16:43:06.598Z</time></trkpt><trkpt lat="45.9012727" lon="11.9954702"><ele>258.0</ele><time>2026-05-03T16:43:08.598Z</time></trkpt><trkpt lat="45.9012501" lon="11.9955946"><ele>258.0</ele><time>2026-05-03T16:43:10.598Z</time></trkpt><trkpt lat="45.9012109" lon="11.9957425"><ele>258.0</ele><time>2026-05-03T16:43:12.598Z</time></trkpt><trkpt lat="45.9011831" lon="11.9958292"><ele>258.0</ele><time>2026-05-03T16:43:13.598Z</time></trkpt><trkpt lat="45.9011503" lon="11.9959209"><ele>258.0</ele><time>2026-05-03T16:43:14.598Z</time></trkpt><trkpt lat="45.9011121" lon="11.9960204"><ele>258.0</ele><time>2026-05-03T16:43:15.598Z</time></trkpt><trkpt lat="45.9010732" lon="11.9961322"><ele>258.0</ele><time>2026-05-03T16:43:16.598Z</time></trkpt><trkpt lat="45.9010321" lon="11.9962424"><ele>258.0</ele><time>2026-05-03T16:43:17.599Z</time></trkpt><trkpt lat="45.9009905" lon="11.9963665"><ele>257.4</ele><time>2026-05-03T16:43:18.599Z</time></trkpt><trkpt lat="45.900948" lon="11.9965014"><ele>256.8</ele><time>2026-05-03T16:43:19.598Z</time></trkpt><trkpt lat="45.9008976" lon="11.9966268"><ele>256.2</ele><time>2026-05-03T16:43:20.598Z</time></trkpt><trkpt lat="45.900855" lon="11.9967613"><ele>255.6</ele><time>2026-05-03T16:43:21.599Z</time></trkpt><trkpt lat="45.9008105" lon="11.9968968"><ele>255.0</ele><time>2026-05-03T16:43:22.599Z</time></trkpt><trkpt lat="45.9007615" lon="11.9970276"><ele>253.4</ele><time>2026-05-03T16:43:23.598Z</time></trkpt><trkpt lat="45.9007088" lon="11.9971555"><ele>251.8</ele><time>2026-05-03T16:43:24.598Z</time></trkpt><trkpt lat="45.9006591" lon="11.9972847"><ele>250.2</ele><time>2026-05-03T16:43:25.599Z</time></trkpt><trkpt lat="45.9006122" lon="11.997415"><ele>248.6</ele><time>2026-05-03T16:43:26.599Z</time></trkpt><trkpt lat="45.9005627" lon="11.9975408"><ele>247.0</ele><time>2026-05-03T16:43:27.599Z</time></trkpt><trkpt lat="45.9005204" lon="11.9976711"><ele>246.2</ele><time>2026-05-03T16:43:28.598Z</time></trkpt><trkpt lat="45.9004755" lon="11.9977952"><ele>245.39999999999998</ele><time>2026-05-03T16:43:29.599Z</time></trkpt><trkpt lat="45.9004273" lon="11.9979136"><ele>244.60000000000002</ele><time>2026-05-03T16:43:30.598Z</time></trkpt><trkpt lat="45.900383" lon="11.9980389"><ele>243.8</ele><time>2026-05-03T16:43:31.598Z</time></trkpt><trkpt lat="45.9003358" lon="11.9981574"><ele>243.0</ele><time>2026-05-03T16:43:32.599Z</time></trkpt><trkpt lat="45.9002914" lon="11.9982852"><ele>242.8</ele><time>2026-05-03T16:43:33.598Z</time></trkpt><trkpt lat="45.9002388" lon="11.9983959"><ele>242.60000000000002</ele><time>2026-05-03T16:43:34.598Z</time></trkpt><trkpt lat="45.9001995" lon="11.9985211"><ele>242.39999999999998</ele><time>2026-05-03T16:43:35.599Z</time></trkpt><trkpt lat="45.9001532" lon="11.9986419"><ele>242.2</ele><time>2026-05-03T16:43:36.598Z</time></trkpt><trkpt lat="45.9001065" lon="11.998753"><ele>242.0</ele><time>2026-05-03T16:43:37.599Z</time></trkpt><trkpt lat="45.9000569" lon="11.9988622"><ele>241.66666666666669</ele><time>2026-05-03T16:43:38.598Z</time></trkpt><trkpt lat="45.9000025" lon="11.9989553"><ele>241.33333333333334</ele><time>2026-05-03T16:43:39.599Z</time></trkpt><trkpt lat="45.8999418" lon="11.9990483"><ele>241.0</ele><time>2026-05-03T16:43:40.599Z</time></trkpt><trkpt lat="45.899879" lon="11.9991319"><ele>240.66666666666669</ele><time>2026-05-03T16:43:41.599Z</time></trkpt><trkpt lat="45.899811" lon="11.9992122"><ele>240.33333333333334</ele><time>2026-05-03T16:43:42.598Z</time></trkpt><trkpt lat="45.8997361" lon="11.9992832"><ele>240.0</ele><time>2026-05-03T16:43:43.599Z</time></trkpt><trkpt lat="45.8996496" lon="11.9993594"><ele>240.0</ele><time>2026-05-03T16:43:44.598Z</time></trkpt><trkpt lat="45.899562" lon="11.9994196"><ele>240.0</ele><time>2026-05-03T16:43:45.598Z</time></trkpt><trkpt lat="45.8994781" lon="11.9994706"><ele>240.0</ele><time>2026-05-03T16:43:46.598Z</time></trkpt><trkpt lat="45.8993976" lon="11.9995091"><ele>240.0</ele><time>2026-05-03T16:43:47.599Z</time></trkpt><trkpt lat="45.8993227" lon="11.9995494"><ele>240.0</ele><time>2026-05-03T16:43:48.598Z</time></trkpt><trkpt lat="45.8992574" lon="11.9995822"><ele>240.0</ele><time>2026-05-03T16:43:49.599Z</time></trkpt><trkpt lat="45.8991661" lon="11.9996245"><ele>239.33333333333334</ele><time>2026-05-03T16:43:51.599Z</time></trkpt><trkpt lat="45.8990916" lon="11.9996507"><ele>238.66666666666669</ele><time>2026-05-03T16:43:55.599Z</time></trkpt><trkpt lat="45.8990417" lon="11.9997231"><ele>238.0</ele><time>2026-05-03T16:43:59.598Z</time></trkpt><trkpt lat="45.8990722" lon="11.9998387"><ele>237.33333333333334</ele><time>2026-05-03T16:44:01.599Z</time></trkpt><trkpt lat="45.8991112" lon="11.9999199"><ele>236.66666666666669</ele><time>2026-05-03T16:44:02.599Z</time></trkpt><trkpt lat="45.89915" lon="12.0000211"><ele>236.0</ele><time>2026-05-03T16:44:03.598Z</time></trkpt><trkpt lat="45.8991906" lon="12.0001303"><ele>236.0</ele><time>2026-05-03T16:44:04.599Z</time></trkpt><trkpt lat="45.8992348" lon="12.0002519"><ele>236.00000000000003</ele><time>2026-05-03T16:44:05.598Z</time></trkpt><trkpt lat="45.8992971" lon="12.0003678"><ele>236.00000000000003</ele><time>2026-05-03T16:44:06.598Z</time></trkpt><trkpt lat="45.8993616" lon="12.0004972"><ele>236.0</ele><time>2026-05-03T16:44:07.598Z</time></trkpt><trkpt lat="45.8994339" lon="12.0006174"><ele>236.0</ele><time>2026-05-03T16:44:08.598Z</time></trkpt><trkpt lat="45.8995129" lon="12.0007345"><ele>237.0</ele><time>2026-05-03T16:44:09.599Z</time></trkpt><trkpt lat="45.8996005" lon="12.0008456"><ele>238.0</ele><time>2026-05-03T16:44:10.598Z</time></trkpt><trkpt lat="45.8996874" lon="12.0009626"><ele>239.0</ele><time>2026-05-03T16:44:11.598Z</time></trkpt><trkpt lat="45.8997734" lon="12.0010857"><ele>240.0</ele><time>2026-05-03T16:44:12.598Z</time></trkpt><trkpt lat="45.8998609" lon="12.0012157"><ele>240.0</ele><time>2026-05-03T16:44:13.598Z</time></trkpt><trkpt lat="45.8999557" lon="12.0013571"><ele>240.0</ele><time>2026-05-03T16:44:14.599Z</time></trkpt><trkpt lat="45.9000488" lon="12.0015058"><ele>240.0</ele><time>2026-05-03T16:44:15.598Z</time></trkpt><trkpt lat="45.9001454" lon="12.001649"><ele>240.0</ele><time>2026-05-03T16:44:16.599Z</time></trkpt><trkpt lat="45.9002339" lon="12.001802"><ele>241.25</ele><time>2026-05-03T16:44:17.598Z</time></trkpt><trkpt lat="45.9003233" lon="12.0019505"><ele>242.5</ele><time>2026-05-03T16:44:18.598Z</time></trkpt><trkpt lat="45.9004104" lon="12.0020996"><ele>243.75</ele><time>2026-05-03T16:44:19.598Z</time></trkpt><trkpt lat="45.9004947" lon="12.0022425"><ele>245.0</ele><time>2026-05-03T16:44:20.599Z</time></trkpt><trkpt lat="45.9005805" lon="12.0023813"><ele>246.0</ele><time>2026-05-03T16:44:21.599Z</time></trkpt><trkpt lat="45.9006611" lon="12.0025213"><ele>247.0</ele><time>2026-05-03T16:44:22.598Z</time></trkpt><trkpt lat="45.9007349" lon="12.0026654"><ele>248.0</ele><time>2026-05-03T16:44:23.598Z</time></trkpt><trkpt lat="45.900801" lon="12.0028123"><ele>249.0</ele><time>2026-05-03T16:44:24.598Z</time></trkpt><trkpt lat="45.9008689" lon="12.0029569"><ele>251.0</ele><time>2026-05-03T16:44:25.599Z</time></trkpt><trkpt lat="45.9009388" lon="12.003099"><ele>253.0</ele><time>2026-05-03T16:44:26.599Z</time></trkpt><trkpt lat="45.901009" lon="12.003236"><ele>255.0</ele><time>2026-05-03T16:44:27.599Z</time></trkpt><trkpt lat="45.9010748" lon="12.0033735"><ele>257.0</ele><time>2026-05-03T16:44:28.598Z</time></trkpt><trkpt lat="45.9011429" lon="12.0034964"><ele>257.5</ele><time>2026-05-03T16:44:29.599Z</time></trkpt><trkpt lat="45.9012069" lon="12.0036006"><ele>258.0</ele><time>2026-05-03T16:44:30.599Z</time></trkpt><trkpt lat="45.9012705" lon="12.0036843"><ele>258.5</ele><time>2026-05-03T16:44:31.599Z</time></trkpt><trkpt lat="45.901327" lon="12.0037427"><ele>259.0</ele><time>2026-05-03T16:44:32.598Z</time></trkpt><trkpt lat="45.9014093" lon="12.0037991"><ele>259.5</ele><time>2026-05-03T16:44:34.598Z</time></trkpt><trkpt lat="45.9014765" lon="12.0038199"><ele>260.0</ele><time>2026-05-03T16:44:39.599Z</time></trkpt><trkpt lat="45.901529" lon="12.0038781"><ele>260.0</ele><time>2026-05-03T16:44:44.599Z</time></trkpt><trkpt lat="45.9015827" lon="12.0040268"><ele>260.0</ele><time>2026-05-03T16:44:46.598Z</time></trkpt><trkpt lat="45.901621" lon="12.0041287"><ele>260.0</ele><time>2026-05-03T16:44:47.598Z</time></trkpt><trkpt lat="45.9016615" lon="12.004241"><ele>260.0</ele><time>2026-05-03T16:44:48.599Z</time></trkpt><trkpt lat="45.9017114" lon="12.0043758"><ele>260.0</ele><time>2026-05-03T16:44:49.598Z</time></trkpt><trkpt lat="45.9017598" lon="12.0045227"><ele>262.2</ele><time>2026-05-03T16:44:50.598Z</time></trkpt><trkpt lat="45.9018112" lon="12.0046714"><ele>264.4</ele><time>2026-05-03T16:44:51.599Z</time></trkpt><trkpt lat="45.9018592" lon="12.0048182"><ele>266.6</ele><time>2026-05-03T16:44:52.599Z</time></trkpt><trkpt lat="45.901907" lon="12.0049625"><ele>268.8</ele><time>2026-05-03T16:44:53.598Z</time></trkpt><trkpt lat="45.901947" lon="12.0051062"><ele>271.0</ele><time>2026-05-03T16:44:54.599Z</time></trkpt><trkpt lat="45.901973" lon="12.0052532"><ele>272.8</ele><time>2026-05-03T16:44:55.598Z</time></trkpt><trkpt lat="45.9019884" lon="12.005401"><ele>274.6</ele><time>2026-05-03T16:44:56.598Z</time></trkpt><trkpt lat="45.9019819" lon="12.0055547"><ele>276.4</ele><time>2026-05-03T16:44:57.598Z</time></trkpt><trkpt lat="45.9019674" lon="12.005708"><ele>278.2</ele><time>2026-05-03T16:44:58.598Z</time></trkpt><trkpt lat="45.9019518" lon="12.0058604"><ele>280.0</ele><time>2026-05-03T16:44:59.598Z</time></trkpt><trkpt lat="45.9019391" lon="12.0060106"><ele>280.6</ele><time>2026-05-03T16:45:00.599Z</time></trkpt><trkpt lat="45.9019328" lon="12.0061629"><ele>281.2</ele><time>2026-05-03T16:45:01.598Z</time></trkpt><trkpt lat="45.9019371" lon="12.0063072"><ele>281.8</ele><time>2026-05-03T16:45:02.599Z</time></trkpt><trkpt lat="45.9019574" lon="12.0064392"><ele>282.4</ele><time>2026-05-03T16:45:03.598Z</time></trkpt><trkpt lat="45.9019922" lon="12.0065639"><ele>283.0</ele><time>2026-05-03T16:45:04.598Z</time></trkpt><trkpt lat="45.9020446" lon="12.0066825"><ele>283.6</ele><time>2026-05-03T16:45:05.598Z</time></trkpt><trkpt lat="45.9021009" lon="12.006801"><ele>284.20000000000005</ele><time>2026-05-03T16:45:06.598Z</time></trkpt><trkpt lat="45.9021556" lon="12.0069205"><ele>284.8</ele><time>2026-05-03T16:45:07.598Z</time></trkpt><trkpt lat="45.9021961" lon="12.0070498"><ele>285.40000000000003</ele><time>2026-05-03T16:45:08.599Z</time></trkpt><trkpt lat="45.9022307" lon="12.0071808"><ele>286.0</ele><time>2026-05-03T16:45:09.599Z</time></trkpt><trkpt lat="45.9022533" lon="12.0073255"><ele>286.0</ele><time>2026-05-03T16:45:10.598Z</time></trkpt><trkpt lat="45.9022656" lon="12.0074769"><ele>286.0</ele><time>2026-05-03T16:45:11.598Z</time></trkpt><trkpt lat="45.9022784" lon="12.0076359"><ele>286.0</ele><time>2026-05-03T16:45:12.598Z</time></trkpt><trkpt lat="45.9022954" lon="12.0077992"><ele>286.0</ele><time>2026-05-03T16:45:13.598Z</time></trkpt><trkpt lat="45.9023103" lon="12.0079586"><ele>286.0</ele><time>2026-05-03T16:45:14.599Z</time></trkpt><trkpt lat="45.9023282" lon="12.0081168"><ele>286.5</ele><time>2026-05-03T16:45:15.598Z</time></trkpt><trkpt lat="45.9023481" lon="12.0082783"><ele>287.0</ele><time>2026-05-03T16:45:16.598Z</time></trkpt><trkpt lat="45.9023601" lon="12.0084432"><ele>287.5</ele><time>2026-05-03T16:45:17.599Z</time></trkpt><trkpt lat="45.9023747" lon="12.0085987"><ele>288.0</ele><time>2026-05-03T16:45:18.599Z</time></trkpt><trkpt lat="45.9023904" lon="12.0087565"><ele>288.2</ele><time>2026-05-03T16:45:19.598Z</time></trkpt><trkpt lat="45.9023919" lon="12.0089075"><ele>288.4</ele><time>2026-05-03T16:45:20.598Z</time></trkpt><trkpt lat="45.9023835" lon="12.0090602"><ele>288.59999999999997</ele><time>2026-05-03T16:45:21.598Z</time></trkpt><trkpt lat="45.9023675" lon="12.0092098"><ele>288.8</ele><time>2026-05-03T16:45:22.598Z</time></trkpt><trkpt lat="45.9023393" lon="12.0093576"><ele>289.0</ele><time>2026-05-03T16:45:23.598Z</time></trkpt><trkpt lat="45.9023046" lon="12.0095044"><ele>289.75</ele><time>2026-05-03T16:45:24.598Z</time></trkpt><trkpt lat="45.9022671" lon="12.0096535"><ele>290.5</ele><time>2026-05-03T16:45:25.598Z</time></trkpt><trkpt lat="45.9022288" lon="12.0098094"><ele>291.25</ele><time>2026-05-03T16:45:26.599Z</time></trkpt><trkpt lat="45.9021861" lon="12.0099735"><ele>292.0</ele><time>2026-05-03T16:45:27.599Z</time></trkpt><trkpt lat="45.9021425" lon="12.0101426"><ele>293.5</ele><time>2026-05-03T16:45:28.598Z</time></trkpt><trkpt lat="45.9020969" lon="12.0103149"><ele>295.0</ele><time>2026-05-03T16:45:29.598Z</time></trkpt><trkpt lat="45.9020486" lon="12.0104998"><ele>296.5</ele><time>2026-05-03T16:45:30.598Z</time></trkpt><trkpt lat="45.9019994" lon="12.0106916"><ele>298.0</ele><time>2026-05-03T16:45:31.598Z</time></trkpt><trkpt lat="45.90195" lon="12.0108868"><ele>299.0</ele><time>2026-05-03T16:45:32.598Z</time></trkpt><trkpt lat="45.9018978" lon="12.0110792"><ele>300.0</ele><time>2026-05-03T16:45:33.598Z</time></trkpt><trkpt lat="45.9018485" lon="12.011272"><ele>301.0</ele><time>2026-05-03T16:45:34.599Z</time></trkpt><trkpt lat="45.9017988" lon="12.0114629"><ele>302.0</ele><time>2026-05-03T16:45:35.598Z</time></trkpt><trkpt lat="45.9017491" lon="12.0116552"><ele>301.75</ele><time>2026-05-03T16:45:36.598Z</time></trkpt><trkpt lat="45.9017" lon="12.011844"><ele>301.5</ele><time>2026-05-03T16:45:37.598Z</time></trkpt><trkpt lat="45.9016502" lon="12.0120314"><ele>301.25</ele><time>2026-05-03T16:45:38.598Z</time></trkpt><trkpt lat="45.9016033" lon="12.0122192"><ele>301.0</ele><time>2026-05-03T16:45:39.599Z</time></trkpt><trkpt lat="45.901555" lon="12.0124042"><ele>302.0</ele><time>2026-05-03T16:45:40.599Z</time></trkpt><trkpt lat="45.9015056" lon="12.012587"><ele>303.0</ele><time>2026-05-03T16:45:41.598Z</time></trkpt><trkpt lat="45.9014587" lon="12.0127696"><ele>304.0</ele><time>2026-05-03T16:45:42.599Z</time></trkpt><trkpt lat="45.9014063" lon="12.0129584"><ele>305.0</ele><time>2026-05-03T16:45:43.599Z</time></trkpt><trkpt lat="45.901357" lon="12.0131517"><ele>305.5</ele><time>2026-05-03T16:45:44.599Z</time></trkpt><trkpt lat="45.9013073" lon="12.0133404"><ele>306.0</ele><time>2026-05-03T16:45:45.598Z</time></trkpt><trkpt lat="45.9012586" lon="12.0135299"><ele>306.5</ele><time>2026-05-03T16:45:46.598Z</time></trkpt><trkpt lat="45.9012137" lon="12.0137214"><ele>307.0</ele><time>2026-05-03T16:45:47.598Z</time></trkpt><trkpt lat="45.9011688" lon="12.0139089"><ele>307.0</ele><time>2026-05-03T16:45:48.599Z</time></trkpt><trkpt lat="45.9011206" lon="12.0140997"><ele>307.0</ele><time>2026-05-03T16:45:49.599Z</time></trkpt><trkpt lat="45.9010714" lon="12.0142874"><ele>307.0</ele><time>2026-05-03T16:45:50.598Z</time></trkpt><trkpt lat="45.9010224" lon="12.0144814"><ele>307.0</ele><time>2026-05-03T16:45:51.599Z</time></trkpt><trkpt lat="45.9009779" lon="12.0146758"><ele>307.5</ele><time>2026-05-03T16:45:52.598Z</time></trkpt><trkpt lat="45.9009379" lon="12.0148715"><ele>308.0</ele><time>2026-05-03T16:45:53.599Z</time></trkpt><trkpt lat="45.900905" lon="12.0150723"><ele>308.5</ele><time>2026-05-03T16:45:54.598Z</time></trkpt><trkpt lat="45.900877" lon="12.0152702"><ele>309.0</ele><time>2026-05-03T16:45:55.598Z</time></trkpt><trkpt lat="45.9008504" lon="12.0154711"><ele>309.0</ele><time>2026-05-03T16:45:56.598Z</time></trkpt><trkpt lat="45.900825" lon="12.0156698"><ele>309.0</ele><time>2026-05-03T16:45:57.598Z</time></trkpt><trkpt lat="45.9007967" lon="12.0158711"><ele>309.0</ele><time>2026-05-03T16:45:58.599Z</time></trkpt><trkpt lat="45.9007727" lon="12.0160689"><ele>309.0</ele><time>2026-05-03T16:45:59.598Z</time></trkpt><trkpt lat="45.9007487" lon="12.0162685"><ele>309.5</ele><time>2026-05-03T16:46:00.598Z</time></trkpt><trkpt lat="45.9007242" lon="12.0164614"><ele>310.0</ele><time>2026-05-03T16:46:01.599Z</time></trkpt><trkpt lat="45.9006997" lon="12.016653"><ele>310.5</ele><time>2026-05-03T16:46:02.599Z</time></trkpt><trkpt lat="45.9006796" lon="12.0168466"><ele>311.0</ele><time>2026-05-03T16:46:03.598Z</time></trkpt><trkpt lat="45.9006582" lon="12.0170328"><ele>312.25</ele><time>2026-05-03T16:46:04.599Z</time></trkpt><trkpt lat="45.9006352" lon="12.017212"><ele>313.5</ele><time>2026-05-03T16:46:05.598Z</time></trkpt><trkpt lat="45.9006178" lon="12.0173862"><ele>314.75</ele><time>2026-05-03T16:46:06.598Z</time></trkpt><trkpt lat="45.9006098" lon="12.0175627"><ele>316.0</ele><time>2026-05-03T16:46:07.599Z</time></trkpt><trkpt lat="45.9006099" lon="12.0177315"><ele>316.8</ele><time>2026-05-03T16:46:08.598Z</time></trkpt><trkpt lat="45.9006165" lon="12.0178883"><ele>317.6</ele><time>2026-05-03T16:46:09.598Z</time></trkpt><trkpt lat="45.9006253" lon="12.0180335"><ele>318.4</ele><time>2026-05-03T16:46:10.599Z</time></trkpt><trkpt lat="45.9006329" lon="12.0181662"><ele>319.2</ele><time>2026-05-03T16:46:11.598Z</time></trkpt><trkpt lat="45.9006423" lon="12.0182884"><ele>320.0</ele><time>2026-05-03T16:46:12.599Z</time></trkpt><trkpt lat="45.9006526" lon="12.0184079"><ele>320.33333333333337</ele><time>2026-05-03T16:46:13.598Z</time></trkpt><trkpt lat="45.9006617" lon="12.0185327"><ele>320.6666666666667</ele><time>2026-05-03T16:46:14.598Z</time></trkpt><trkpt lat="45.9006713" lon="12.0186557"><ele>321.0</ele><time>2026-05-03T16:46:15.598Z</time></trkpt><trkpt lat="45.9006798" lon="12.0187833"><ele>321.3333333333333</ele><time>2026-05-03T16:46:16.598Z</time></trkpt><trkpt lat="45.900689" lon="12.018907"><ele>321.66666666666663</ele><time>2026-05-03T16:46:17.598Z</time></trkpt><trkpt lat="45.9006973" lon="12.0190367"><ele>322.0</ele><time>2026-05-03T16:46:18.599Z</time></trkpt><trkpt lat="45.9007032" lon="12.0191663"><ele>322.8333333333333</ele><time>2026-05-03T16:46:19.598Z</time></trkpt><trkpt lat="45.9007128" lon="12.0192943"><ele>323.66666666666663</ele><time>2026-05-03T16:46:20.598Z</time></trkpt><trkpt lat="45.9007284" lon="12.0194239"><ele>324.5</ele><time>2026-05-03T16:46:21.599Z</time></trkpt><trkpt lat="45.9007637" lon="12.0195385"><ele>325.3333333333333</ele><time>2026-05-03T16:46:22.599Z</time></trkpt><trkpt lat="45.9007972" lon="12.0196539"><ele>326.1666666666667</ele><time>2026-05-03T16:46:23.598Z</time></trkpt><trkpt lat="45.9008409" lon="12.0197625"><ele>327.0</ele><time>2026-05-03T16:46:24.598Z</time></trkpt><trkpt lat="45.9008919" lon="12.019877"><ele>329.20000000000005</ele><time>2026-05-03T16:46:25.598Z</time></trkpt><trkpt lat="45.9009483" lon="12.0199916"><ele>331.4</ele><time>2026-05-03T16:46:26.599Z</time></trkpt><trkpt lat="45.9010048" lon="12.0201095"><ele>333.6</ele><time>2026-05-03T16:46:27.598Z</time></trkpt><trkpt lat="45.9010656" lon="12.0202256"><ele>335.79999999999995</ele><time>2026-05-03T16:46:28.598Z</time></trkpt><trkpt lat="45.9011233" lon="12.0203508"><ele>338.0</ele><time>2026-05-03T16:46:29.598Z</time></trkpt><trkpt lat="45.9011843" lon="12.0204725"><ele>338.0</ele><time>2026-05-03T16:46:30.599Z</time></trkpt><trkpt lat="45.9012472" lon="12.020591"><ele>338.0</ele><time>2026-05-03T16:46:31.599Z</time></trkpt><trkpt lat="45.9013077" lon="12.0207145"><ele>338.0</ele><time>2026-05-03T16:46:32.599Z</time></trkpt><trkpt lat="45.9013669" lon="12.0208399"><ele>338.0</ele><time>2026-05-03T16:46:33.599Z</time></trkpt><trkpt lat="45.901425" lon="12.0209628"><ele>338.0</ele><time>2026-05-03T16:46:34.598Z</time></trkpt><trkpt lat="45.9014818" lon="12.0210879"><ele>337.59999999999997</ele><time>2026-05-03T16:46:35.599Z</time></trkpt><trkpt lat="45.9015398" lon="12.021209"><ele>337.2</ele><time>2026-05-03T16:46:36.598Z</time></trkpt><trkpt lat="45.9016008" lon="12.0213269"><ele>336.8</ele><time>2026-05-03T16:46:37.599Z</time></trkpt><trkpt lat="45.9016659" lon="12.0214341"><ele>336.4</ele><time>2026-05-03T16:46:38.599Z</time></trkpt><trkpt lat="45.9017414" lon="12.0215268"><ele>336.0</ele><time>2026-05-03T16:46:39.599Z</time></trkpt><trkpt lat="45.9018246" lon="12.0216102"><ele>337.0</ele><time>2026-05-03T16:46:40.598Z</time></trkpt><trkpt lat="45.9019178" lon="12.0216842"><ele>338.0</ele><time>2026-05-03T16:46:41.598Z</time></trkpt><trkpt lat="45.9020157" lon="12.0217557"><ele>339.0</ele><time>2026-05-03T16:46:42.599Z</time></trkpt><trkpt lat="45.902114" lon="12.0218241"><ele>340.0</ele><time>2026-05-03T16:46:43.598Z</time></trkpt><trkpt lat="45.9022112" lon="12.0218924"><ele>341.0</ele><time>2026-05-03T16:46:44.599Z</time></trkpt><trkpt lat="45.902309" lon="12.0219602"><ele>341.0</ele><time>2026-05-03T16:46:45.599Z</time></trkpt><trkpt lat="45.9024069" lon="12.0220276"><ele>341.0</ele><time>2026-05-03T16:46:46.598Z</time></trkpt><trkpt lat="45.9025041" lon="12.0220942"><ele>341.0</ele><time>2026-05-03T16:46:47.599Z</time></trkpt><trkpt lat="45.9025996" lon="12.0221593"><ele>341.0</ele><time>2026-05-03T16:46:48.598Z</time></trkpt><trkpt lat="45.902693" lon="12.0222221"><ele>341.0</ele><time>2026-05-03T16:46:49.598Z</time></trkpt><trkpt lat="45.9027847" lon="12.022288"><ele>342.6</ele><time>2026-05-03T16:46:50.599Z</time></trkpt><trkpt lat="45.9028739" lon="12.022354"><ele>344.20000000000005</ele><time>2026-05-03T16:46:51.599Z</time></trkpt><trkpt lat="45.9029599" lon="12.022429"><ele>345.79999999999995</ele><time>2026-05-03T16:46:52.598Z</time></trkpt><trkpt lat="45.9030364" lon="12.022513"><ele>347.4</ele><time>2026-05-03T16:46:53.598Z</time></trkpt><trkpt lat="45.9031071" lon="12.0226167"><ele>349.0</ele><time>2026-05-03T16:46:54.599Z</time></trkpt><trkpt lat="45.90317" lon="12.0227312"><ele>349.0</ele><time>2026-05-03T16:46:55.598Z</time></trkpt><trkpt lat="45.9032254" lon="12.0228575"><ele>349.0</ele><time>2026-05-03T16:46:56.598Z</time></trkpt><trkpt lat="45.9032726" lon="12.0229971"><ele>349.0</ele><time>2026-05-03T16:46:57.599Z</time></trkpt><trkpt lat="45.9033167" lon="12.0231415"><ele>349.0</ele><time>2026-05-03T16:46:58.598Z</time></trkpt><trkpt lat="45.9033615" lon="12.0232882"><ele>349.0</ele><time>2026-05-03T16:46:59.598Z</time></trkpt><trkpt lat="45.9034069" lon="12.0234414"><ele>351.75</ele><time>2026-05-03T16:47:00.598Z</time></trkpt><trkpt lat="45.9034523" lon="12.0235954"><ele>354.5</ele><time>2026-05-03T16:47:01.598Z</time></trkpt><trkpt lat="45.9034973" lon="12.0237507"><ele>357.25</ele><time>2026-05-03T16:47:02.598Z</time></trkpt><trkpt lat="45.9035393" lon="12.0239048"><ele>360.0</ele><time>2026-05-03T16:47:03.598Z</time></trkpt><trkpt lat="45.9035813" lon="12.0240475"><ele>358.6</ele><time>2026-05-03T16:47:04.599Z</time></trkpt><trkpt lat="45.9036227" lon="12.0241814"><ele>357.2</ele><time>2026-05-03T16:47:05.599Z</time></trkpt><trkpt lat="45.9036643" lon="12.0243046"><ele>355.79999999999995</ele><time>2026-05-03T16:47:06.598Z</time></trkpt><trkpt lat="45.9037148" lon="12.0244212"><ele>354.4</ele><time>2026-05-03T16:47:07.599Z</time></trkpt><trkpt lat="45.9037758" lon="12.0245267"><ele>353.0</ele><time>2026-05-03T16:47:08.599Z</time></trkpt><trkpt lat="45.9038471" lon="12.0246226"><ele>353.0</ele><time>2026-05-03T16:47:09.598Z</time></trkpt><trkpt lat="45.9039284" lon="12.0247096"><ele>353.0</ele><time>2026-05-03T16:47:10.599Z</time></trkpt><trkpt lat="45.9040191" lon="12.0247804"><ele>353.0</ele><time>2026-05-03T16:47:11.599Z</time></trkpt><trkpt lat="45.9041125" lon="12.0248475"><ele>353.0</ele><time>2026-05-03T16:47:12.598Z</time></trkpt><trkpt lat="45.9041989" lon="12.0249119"><ele>353.0</ele><time>2026-05-03T16:47:13.599Z</time></trkpt><trkpt lat="45.9042818" lon="12.0249728"><ele>353.5</ele><time>2026-05-03T16:47:14.599Z</time></trkpt><trkpt lat="45.9043574" lon="12.0250286"><ele>354.0</ele><time>2026-05-03T16:47:15.598Z</time></trkpt><trkpt lat="45.9044259" lon="12.0250827"><ele>354.5</ele><time>2026-05-03T16:47:16.598Z</time></trkpt><trkpt lat="45.9044834" lon="12.0251513"><ele>355.0</ele><time>2026-05-03T16:47:17.598Z</time></trkpt><trkpt lat="45.9045299" lon="12.0252372"><ele>355.5</ele><time>2026-05-03T16:47:18.598Z</time></trkpt><trkpt lat="45.9045569" lon="12.0253376"><ele>356.0</ele><time>2026-05-03T16:47:19.599Z</time></trkpt><trkpt lat="45.9045659" lon="12.025447"><ele>356.0</ele><time>2026-05-03T16:47:20.599Z</time></trkpt><trkpt lat="45.9045636" lon="12.0255673"><ele>356.0</ele><time>2026-05-03T16:47:21.599Z</time></trkpt><trkpt lat="45.9045538" lon="12.0256919"><ele>356.0</ele><time>2026-05-03T16:47:22.598Z</time></trkpt><trkpt lat="45.9045271" lon="12.0258168"><ele>356.0</ele><time>2026-05-03T16:47:23.599Z</time></trkpt><trkpt lat="45.9044832" lon="12.0259339"><ele>356.0</ele><time>2026-05-03T16:47:24.598Z</time></trkpt><trkpt lat="45.9044213" lon="12.0260363"><ele>356.0</ele><time>2026-05-03T16:47:25.599Z</time></trkpt><trkpt lat="45.9043467" lon="12.0261217"><ele>356.20000000000005</ele><time>2026-05-03T16:47:26.598Z</time></trkpt><trkpt lat="45.9042587" lon="12.0261879"><ele>356.40000000000003</ele><time>2026-05-03T16:47:27.598Z</time></trkpt><trkpt lat="45.9041637" lon="12.0262365"><ele>356.6</ele><time>2026-05-03T16:47:28.598Z</time></trkpt><trkpt lat="45.904065" lon="12.0262804"><ele>356.8</ele><time>2026-05-03T16:47:29.598Z</time></trkpt><trkpt lat="45.9039626" lon="12.0263211"><ele>357.0</ele><time>2026-05-03T16:47:30.598Z</time></trkpt><trkpt lat="45.9038603" lon="12.0263621"><ele>357.0</ele><time>2026-05-03T16:47:31.598Z</time></trkpt><trkpt lat="45.9037602" lon="12.0264168"><ele>357.0</ele><time>2026-05-03T16:47:32.598Z</time></trkpt><trkpt lat="45.9036652" lon="12.0264863"><ele>357.0</ele><time>2026-05-03T16:47:33.599Z</time></trkpt><trkpt lat="45.9035775" lon="12.0265678"><ele>357.0</ele><time>2026-05-03T16:47:34.599Z</time></trkpt><trkpt lat="45.9034961" lon="12.0266598"><ele>357.0</ele><time>2026-05-03T16:47:35.599Z</time></trkpt><trkpt lat="45.9034224" lon="12.0267671"><ele>353.8</ele><time>2026-05-03T16:47:36.599Z</time></trkpt><trkpt lat="45.9033582" lon="12.0268863"><ele>350.6</ele><time>2026-05-03T16:47:37.598Z</time></trkpt><trkpt lat="45.903307" lon="12.0270117"><ele>347.40000000000003</ele><time>2026-05-03T16:47:38.598Z</time></trkpt><trkpt lat="45.903267" lon="12.0271492"><ele>344.20000000000005</ele><time>2026-05-03T16:47:39.598Z</time></trkpt><trkpt lat="45.903238" lon="12.0272909"><ele>341.0</ele><time>2026-05-03T16:47:40.598Z</time></trkpt><trkpt lat="45.9032176" lon="12.0274362"><ele>343.4</ele><time>2026-05-03T16:47:41.599Z</time></trkpt><trkpt lat="45.9032057" lon="12.027576"><ele>345.8</ele><time>2026-05-03T16:47:42.599Z</time></trkpt><trkpt lat="45.9032141" lon="12.0277073"><ele>348.2</ele><time>2026-05-03T16:47:43.598Z</time></trkpt><trkpt lat="45.903242" lon="12.0278299"><ele>350.59999999999997</ele><time>2026-05-03T16:47:44.599Z</time></trkpt><trkpt lat="45.9032855" lon="12.0279461"><ele>353.0</ele><time>2026-05-03T16:47:45.599Z</time></trkpt><trkpt lat="45.9033406" lon="12.0280577"><ele>353.0</ele><time>2026-05-03T16:47:46.599Z</time></trkpt><trkpt lat="45.9034013" lon="12.028178"><ele>353.0</ele><time>2026-05-03T16:47:47.599Z</time></trkpt><trkpt lat="45.9034557" lon="12.0282971"><ele>353.0</ele><time>2026-05-03T16:47:48.598Z</time></trkpt><trkpt lat="45.9034961" lon="12.0284247"><ele>353.0</ele><time>2026-05-03T16:47:49.598Z</time></trkpt><trkpt lat="45.9035132" lon="12.0285585"><ele>353.0</ele><time>2026-05-03T16:47:50.598Z</time></trkpt><trkpt lat="45.9034987" lon="12.0286925"><ele>351.79999999999995</ele><time>2026-05-03T16:47:51.599Z</time></trkpt><trkpt lat="45.9034567" lon="12.0288172"><ele>350.6</ele><time>2026-05-03T16:47:52.598Z</time></trkpt><trkpt lat="45.903391" lon="12.0289241"><ele>349.4</ele><time>2026-05-03T16:47:53.598Z</time></trkpt><trkpt lat="45.9033162" lon="12.0290243"><ele>348.20000000000005</ele><time>2026-05-03T16:47:54.598Z</time></trkpt><trkpt lat="45.9032471" lon="12.0291169"><ele>347.0</ele><time>2026-05-03T16:47:55.598Z</time></trkpt><trkpt lat="45.903182" lon="12.029205"><ele>347.0</ele><time>2026-05-03T16:47:56.599Z</time></trkpt><trkpt lat="45.9031281" lon="12.0292989"><ele>347.0</ele><time>2026-05-03T16:47:57.598Z</time></trkpt><trkpt lat="45.9030865" lon="12.0294105"><ele>347.0</ele><time>2026-05-03T16:47:58.599Z</time></trkpt><trkpt lat="45.903059" lon="12.0295391"><ele>347.0</ele><time>2026-05-03T16:47:59.598Z</time></trkpt><trkpt lat="45.9030427" lon="12.0296788"><ele>347.0</ele><time>2026-05-03T16:48:00.598Z</time></trkpt><trkpt lat="45.9030414" lon="12.0298212"><ele>347.0</ele><time>2026-05-03T16:48:01.599Z</time></trkpt><trkpt lat="45.9030609" lon="12.0299652"><ele>347.0</ele><time>2026-05-03T16:48:02.598Z</time></trkpt><trkpt lat="45.9030956" lon="12.0301034"><ele>347.0</ele><time>2026-05-03T16:48:03.599Z</time></trkpt><trkpt lat="45.9031419" lon="12.0302337"><ele>347.0</ele><time>2026-05-03T16:48:04.599Z</time></trkpt><trkpt lat="45.9031982" lon="12.0303517"><ele>347.0</ele><time>2026-05-03T16:48:05.598Z</time></trkpt><trkpt lat="45.9032621" lon="12.0304625"><ele>347.8</ele><time>2026-05-03T16:48:06.598Z</time></trkpt><trkpt lat="45.9033325" lon="12.0305597"><ele>348.6</ele><time>2026-05-03T16:48:07.599Z</time></trkpt><trkpt lat="45.9034089" lon="12.0306425"><ele>349.40000000000003</ele><time>2026-05-03T16:48:08.598Z</time></trkpt><trkpt lat="45.9034937" lon="12.0307072"><ele>350.20000000000005</ele><time>2026-05-03T16:48:09.599Z</time></trkpt><trkpt lat="45.9035816" lon="12.0307638"><ele>351.0</ele><time>2026-05-03T16:48:10.599Z</time></trkpt><trkpt lat="45.9036737" lon="12.0308145"><ele>353.0</ele><time>2026-05-03T16:48:11.598Z</time></trkpt><trkpt lat="45.9037663" lon="12.0308595"><ele>355.0</ele><time>2026-05-03T16:48:12.598Z</time></trkpt><trkpt lat="45.9038598" lon="12.0309159"><ele>357.0</ele><time>2026-05-03T16:48:13.598Z</time></trkpt><trkpt lat="45.9039528" lon="12.0309757"><ele>359.0</ele><time>2026-05-03T16:48:14.598Z</time></trkpt><trkpt lat="45.9040407" lon="12.0310526"><ele>361.0</ele><time>2026-05-03T16:48:15.598Z</time></trkpt><trkpt lat="45.9041212" lon="12.0311465"><ele>361.0</ele><time>2026-05-03T16:48:16.599Z</time></trkpt><trkpt lat="45.9041896" lon="12.0312642"><ele>361.0</ele><time>2026-05-03T16:48:17.598Z</time></trkpt><trkpt lat="45.9042462" lon="12.0313968"><ele>361.0</ele><time>2026-05-03T16:48:18.599Z</time></trkpt><trkpt lat="45.9042927" lon="12.0315447"><ele>361.0</ele><time>2026-05-03T16:48:19.598Z</time></trkpt><trkpt lat="45.904333" lon="12.0317029"><ele>361.0</ele><time>2026-05-03T16:48:20.598Z</time></trkpt><trkpt lat="45.9043735" lon="12.0318588"><ele>360.75</ele><time>2026-05-03T16:48:21.599Z</time></trkpt><trkpt lat="45.9044117" lon="12.0320138"><ele>360.5</ele><time>2026-05-03T16:48:22.598Z</time></trkpt><trkpt lat="45.9044497" lon="12.0321688"><ele>360.25</ele><time>2026-05-03T16:48:23.599Z</time></trkpt><trkpt lat="45.9044878" lon="12.0323219"><ele>360.0</ele><time>2026-05-03T16:48:24.598Z</time></trkpt><trkpt lat="45.9045265" lon="12.0324756"><ele>360.0</ele><time>2026-05-03T16:48:25.598Z</time></trkpt><trkpt lat="45.9045666" lon="12.0326272"><ele>360.0</ele><time>2026-05-03T16:48:26.598Z</time></trkpt><trkpt lat="45.9046129" lon="12.032773"><ele>360.0</ele><time>2026-05-03T16:48:27.599Z</time></trkpt><trkpt lat="45.9046595" lon="12.0329228"><ele>360.0</ele><time>2026-05-03T16:48:28.599Z</time></trkpt><trkpt lat="45.9047096" lon="12.0330681"><ele>360.0</ele><time>2026-05-03T16:48:29.599Z</time></trkpt><trkpt lat="45.9047643" lon="12.0332078"><ele>360.0</ele><time>2026-05-03T16:48:30.598Z</time></trkpt><trkpt lat="45.9048232" lon="12.0333445"><ele>360.0</ele><time>2026-05-03T16:48:31.599Z</time></trkpt><trkpt lat="45.9048851" lon="12.0334716"><ele>360.0</ele><time>2026-05-03T16:48:32.599Z</time></trkpt><trkpt lat="45.9049485" lon="12.0335957"><ele>360.0</ele><time>2026-05-03T16:48:33.599Z</time></trkpt><trkpt lat="45.9050126" lon="12.0337147"><ele>361.0</ele><time>2026-05-03T16:48:34.598Z</time></trkpt><trkpt lat="45.9050726" lon="12.0338243"><ele>362.0</ele><time>2026-05-03T16:48:35.598Z</time></trkpt><trkpt lat="45.9051303" lon="12.0339312"><ele>363.0</ele><time>2026-05-03T16:48:36.599Z</time></trkpt><trkpt lat="45.9051945" lon="12.0340209"><ele>364.0</ele><time>2026-05-03T16:48:37.599Z</time></trkpt><trkpt lat="45.905263" lon="12.0341069"><ele>365.0</ele><time>2026-05-03T16:48:38.599Z</time></trkpt><trkpt lat="45.9053462" lon="12.0341811"><ele>360.0</ele><time>2026-05-03T16:48:39.599Z</time></trkpt><trkpt lat="45.9054261" lon="12.0342499"><ele>355.0</ele><time>2026-05-03T16:48:40.598Z</time></trkpt><trkpt lat="45.9055048" lon="12.0343128"><ele>350.0</ele><time>2026-05-03T16:48:41.598Z</time></trkpt><trkpt lat="45.9055711" lon="12.0343898"><ele>345.0</ele><time>2026-05-03T16:48:42.598Z</time></trkpt><trkpt lat="45.9056352" lon="12.0344757"><ele>340.0</ele><time>2026-05-03T16:48:43.598Z</time></trkpt><trkpt lat="45.9056916" lon="12.034583"><ele>340.0</ele><time>2026-05-03T16:48:44.599Z</time></trkpt><trkpt lat="45.9057391" lon="12.0347066"><ele>340.0</ele><time>2026-05-03T16:48:45.598Z</time></trkpt><trkpt lat="45.9057794" lon="12.0348436"><ele>340.0</ele><time>2026-05-03T16:48:46.598Z</time></trkpt><trkpt lat="45.905809" lon="12.0349919"><ele>340.0</ele><time>2026-05-03T16:48:47.598Z</time></trkpt><trkpt lat="45.905832" lon="12.0351458"><ele>340.0</ele><time>2026-05-03T16:48:48.598Z</time></trkpt><trkpt lat="45.9058496" lon="12.0353041"><ele>335.75</ele><time>2026-05-03T16:48:49.598Z</time></trkpt><trkpt lat="45.9058663" lon="12.0354666"><ele>331.5</ele><time>2026-05-03T16:48:50.599Z</time></trkpt><trkpt lat="45.9058803" lon="12.035628"><ele>327.25</ele><time>2026-05-03T16:48:51.599Z</time></trkpt><trkpt lat="45.9058901" lon="12.035791"><ele>323.0</ele><time>2026-05-03T16:48:52.598Z</time></trkpt><trkpt lat="45.9058904" lon="12.035953"><ele>322.59999999999997</ele><time>2026-05-03T16:48:53.598Z</time></trkpt><trkpt lat="45.9058848" lon="12.0361158"><ele>322.2</ele><time>2026-05-03T16:48:54.599Z</time></trkpt><trkpt lat="45.9058722" lon="12.036273"><ele>321.8</ele><time>2026-05-03T16:48:55.598Z</time></trkpt><trkpt lat="45.9058481" lon="12.0364257"><ele>321.4</ele><time>2026-05-03T16:48:56.598Z</time></trkpt><trkpt lat="45.9058134" lon="12.0365702"><ele>321.0</ele><time>2026-05-03T16:48:57.599Z</time></trkpt><trkpt lat="45.9057701" lon="12.0367062"><ele>321.0</ele><time>2026-05-03T16:48:58.598Z</time></trkpt><trkpt lat="45.9057204" lon="12.0368366"><ele>321.0</ele><time>2026-05-03T16:48:59.598Z</time></trkpt><trkpt lat="45.9056666" lon="12.0369664"><ele>321.0</ele><time>2026-05-03T16:49:00.598Z</time></trkpt><trkpt lat="45.9056131" lon="12.0370986"><ele>321.0</ele><time>2026-05-03T16:49:01.598Z</time></trkpt><trkpt lat="45.9055576" lon="12.0372335"><ele>321.0</ele><time>2026-05-03T16:49:02.599Z</time></trkpt><trkpt lat="45.9055048" lon="12.0373731"><ele>322.0</ele><time>2026-05-03T16:49:03.598Z</time></trkpt><trkpt lat="45.9054484" lon="12.0375118"><ele>323.0</ele><time>2026-05-03T16:49:04.599Z</time></trkpt><trkpt lat="45.9053855" lon="12.0376579"><ele>324.0</ele><time>2026-05-03T16:49:05.599Z</time></trkpt><trkpt lat="45.905325" lon="12.0378015"><ele>325.0</ele><time>2026-05-03T16:49:06.599Z</time></trkpt><trkpt lat="45.9052662" lon="12.0379454"><ele>325.0</ele><time>2026-05-03T16:49:07.599Z</time></trkpt><trkpt lat="45.9052113" lon="12.0380874"><ele>325.0</ele><time>2026-05-03T16:49:08.598Z</time></trkpt><trkpt lat="45.9051648" lon="12.0382372"><ele>325.0</ele><time>2026-05-03T16:49:09.599Z</time></trkpt><trkpt lat="45.9051281" lon="12.0383886"><ele>325.0</ele><time>2026-05-03T16:49:10.598Z</time></trkpt><trkpt lat="45.9051024" lon="12.0385425"><ele>325.0</ele><time>2026-05-03T16:49:11.599Z</time></trkpt><trkpt lat="45.9050853" lon="12.0386999"><ele>322.0</ele><time>2026-05-03T16:49:12.598Z</time></trkpt><trkpt lat="45.9050688" lon="12.0388562"><ele>319.0</ele><time>2026-05-03T16:49:13.598Z</time></trkpt><trkpt lat="45.9050555" lon="12.0390064"><ele>316.0</ele><time>2026-05-03T16:49:14.598Z</time></trkpt><trkpt lat="45.9050478" lon="12.0391517"><ele>313.0</ele><time>2026-05-03T16:49:15.598Z</time></trkpt><trkpt lat="45.9050473" lon="12.039296"><ele>310.0</ele><time>2026-05-03T16:49:16.598Z</time></trkpt><trkpt lat="45.9050497" lon="12.0394405"><ele>310.0</ele><time>2026-05-03T16:49:17.598Z</time></trkpt><trkpt lat="45.9050607" lon="12.0395858"><ele>310.0</ele><time>2026-05-03T16:49:18.598Z</time></trkpt><trkpt lat="45.9050835" lon="12.0397296"><ele>310.0</ele><time>2026-05-03T16:49:19.598Z</time></trkpt><trkpt lat="45.9051165" lon="12.0398719"><ele>310.0</ele><time>2026-05-03T16:49:20.599Z</time></trkpt><trkpt lat="45.9051605" lon="12.0400134"><ele>310.0</ele><time>2026-05-03T16:49:21.598Z</time></trkpt><trkpt lat="45.9052069" lon="12.0401545"><ele>315.75</ele><time>2026-05-03T16:49:22.598Z</time></trkpt><trkpt lat="45.9052562" lon="12.040299"><ele>321.5</ele><time>2026-05-03T16:49:23.599Z</time></trkpt><trkpt lat="45.9053102" lon="12.0404479"><ele>327.25</ele><time>2026-05-03T16:49:24.599Z</time></trkpt><trkpt lat="45.9053563" lon="12.0405948"><ele>333.0</ele><time>2026-05-03T16:49:25.598Z</time></trkpt><trkpt lat="45.9053963" lon="12.0407399"><ele>331.79999999999995</ele><time>2026-05-03T16:49:26.598Z</time></trkpt><trkpt lat="45.905425" lon="12.0408835"><ele>330.6</ele><time>2026-05-03T16:49:27.599Z</time></trkpt><trkpt lat="45.9054368" lon="12.0410272"><ele>329.4</ele><time>2026-05-03T16:49:28.598Z</time></trkpt><trkpt lat="45.905433" lon="12.0411698"><ele>328.20000000000005</ele><time>2026-05-03T16:49:29.598Z</time></trkpt><trkpt lat="45.90541" lon="12.0413157"><ele>327.0</ele><time>2026-05-03T16:49:30.598Z</time></trkpt><trkpt lat="45.9053691" lon="12.0414586"><ele>327.0</ele><time>2026-05-03T16:49:31.599Z</time></trkpt><trkpt lat="45.9053085" lon="12.0415858"><ele>327.0</ele><time>2026-05-03T16:49:32.598Z</time></trkpt><trkpt lat="45.9052338" lon="12.0416966"><ele>327.0</ele><time>2026-05-03T16:49:33.599Z</time></trkpt><trkpt lat="45.9051566" lon="12.0417991"><ele>327.0</ele><time>2026-05-03T16:49:34.598Z</time></trkpt><trkpt lat="45.905078" lon="12.0418972"><ele>327.0</ele><time>2026-05-03T16:49:35.598Z</time></trkpt><trkpt lat="45.9050088" lon="12.0419985"><ele>322.0</ele><time>2026-05-03T16:49:36.598Z</time></trkpt><trkpt lat="45.9049474" lon="12.0421059"><ele>317.0</ele><time>2026-05-03T16:49:37.599Z</time></trkpt><trkpt lat="45.9048913" lon="12.0422147"><ele>312.0</ele><time>2026-05-03T16:49:38.598Z</time></trkpt><trkpt lat="45.9048573" lon="12.0423404"><ele>307.0</ele><time>2026-05-03T16:49:39.599Z</time></trkpt><trkpt lat="45.9048411" lon="12.0424786"><ele>302.0</ele><time>2026-05-03T16:49:40.599Z</time></trkpt><trkpt lat="45.9048384" lon="12.042621"><ele>302.0</ele><time>2026-05-03T16:49:41.598Z</time></trkpt><trkpt lat="45.9048491" lon="12.0427689"><ele>302.0</ele><time>2026-05-03T16:49:42.599Z</time></trkpt><trkpt lat="45.9048686" lon="12.042918"><ele>302.0</ele><time>2026-05-03T16:49:43.598Z</time></trkpt><trkpt lat="45.9049013" lon="12.0430656"><ele>302.0</ele><time>2026-05-03T16:49:44.598Z</time></trkpt><trkpt lat="45.9049458" lon="12.0432091"><ele>302.0</ele><time>2026-05-03T16:49:45.599Z</time></trkpt><trkpt lat="45.9050002" lon="12.0433443"><ele>301.2</ele><time>2026-05-03T16:49:46.599Z</time></trkpt><trkpt lat="45.9050645" lon="12.0434708"><ele>300.4</ele><time>2026-05-03T16:49:47.598Z</time></trkpt><trkpt lat="45.9051247" lon="12.0435997"><ele>299.6</ele><time>2026-05-03T16:49:48.599Z</time></trkpt><trkpt lat="45.9051744" lon="12.0437385"><ele>298.8</ele><time>2026-05-03T16:49:49.598Z</time></trkpt><trkpt lat="45.9052152" lon="12.0438848"><ele>298.0</ele><time>2026-05-03T16:49:50.598Z</time></trkpt><trkpt lat="45.9052437" lon="12.0440325"><ele>301.4</ele><time>2026-05-03T16:49:51.599Z</time></trkpt><trkpt lat="45.9052647" lon="12.0441789"><ele>304.8</ele><time>2026-05-03T16:49:52.599Z</time></trkpt><trkpt lat="45.9052868" lon="12.0443208"><ele>308.2</ele><time>2026-05-03T16:49:53.599Z</time></trkpt><trkpt lat="45.9053153" lon="12.044457"><ele>311.6</ele><time>2026-05-03T16:49:54.598Z</time></trkpt><trkpt lat="45.9053553" lon="12.0445933"><ele>315.0</ele><time>2026-05-03T16:49:55.599Z</time></trkpt><trkpt lat="45.9054049" lon="12.0447321"><ele>315.0</ele><time>2026-05-03T16:49:56.599Z</time></trkpt><trkpt lat="45.9054551" lon="12.0448674"><ele>315.0</ele><time>2026-05-03T16:49:57.599Z</time></trkpt><trkpt lat="45.9055085" lon="12.0450036"><ele>315.0</ele><time>2026-05-03T16:49:58.598Z</time></trkpt><trkpt lat="45.9055616" lon="12.0451396"><ele>315.0</ele><time>2026-05-03T16:49:59.599Z</time></trkpt><trkpt lat="45.9056169" lon="12.0452685"><ele>315.0</ele><time>2026-05-03T16:50:00.599Z</time></trkpt><trkpt lat="45.9056706" lon="12.0453967"><ele>313.2</ele><time>2026-05-03T16:50:01.599Z</time></trkpt><trkpt lat="45.9057175" lon="12.0455288"><ele>311.4</ele><time>2026-05-03T16:50:02.598Z</time></trkpt><trkpt lat="45.9057473" lon="12.045674"><ele>309.6</ele><time>2026-05-03T16:50:03.599Z</time></trkpt><trkpt lat="45.9057653" lon="12.0458195"><ele>307.8</ele><time>2026-05-03T16:50:04.599Z</time></trkpt><trkpt lat="45.9057769" lon="12.0459647"><ele>306.0</ele><time>2026-05-03T16:50:05.599Z</time></trkpt><trkpt lat="45.9057847" lon="12.0461138"><ele>304.6</ele><time>2026-05-03T16:50:06.598Z</time></trkpt><trkpt lat="45.9057992" lon="12.0462589"><ele>303.20000000000005</ele><time>2026-05-03T16:50:07.599Z</time></trkpt><trkpt lat="45.9058297" lon="12.0463998"><ele>301.79999999999995</ele><time>2026-05-03T16:50:08.599Z</time></trkpt><trkpt lat="45.9058718" lon="12.0465399"><ele>300.4</ele><time>2026-05-03T16:50:09.599Z</time></trkpt><trkpt lat="45.9059203" lon="12.0466805"><ele>299.0</ele><time>2026-05-03T16:50:10.599Z</time></trkpt><trkpt lat="45.9059672" lon="12.0468224"><ele>304.0</ele><time>2026-05-03T16:50:11.599Z</time></trkpt><trkpt lat="45.9060195" lon="12.0469641"><ele>309.0</ele><time>2026-05-03T16:50:12.599Z</time></trkpt><trkpt lat="45.9060596" lon="12.0471106"><ele>314.0</ele><time>2026-05-03T16:50:13.599Z</time></trkpt><trkpt lat="45.9060907" lon="12.047271"><ele>319.0</ele><time>2026-05-03T16:50:14.598Z</time></trkpt><trkpt lat="45.9061133" lon="12.0474398"><ele>318.0</ele><time>2026-05-03T16:50:15.598Z</time></trkpt><trkpt lat="45.9061328" lon="12.0476074"><ele>317.0</ele><time>2026-05-03T16:50:16.598Z</time></trkpt><trkpt lat="45.9061517" lon="12.0477779"><ele>316.0</ele><time>2026-05-03T16:50:17.598Z</time></trkpt><trkpt lat="45.9061713" lon="12.0479425"><ele>315.0</ele><time>2026-05-03T16:50:18.598Z</time></trkpt><trkpt lat="45.9061905" lon="12.0481049"><ele>315.0</ele><time>2026-05-03T16:50:19.598Z</time></trkpt><trkpt lat="45.9062102" lon="12.0482626"><ele>315.0</ele><time>2026-05-03T16:50:20.598Z</time></trkpt><trkpt lat="45.9062347" lon="12.0484121"><ele>315.0</ele><time>2026-05-03T16:50:21.599Z</time></trkpt><trkpt lat="45.906268" lon="12.0485602"><ele>315.0</ele><time>2026-05-03T16:50:22.599Z</time></trkpt><trkpt lat="45.9063261" lon="12.0486709"><ele>315.0</ele><time>2026-05-03T16:50:23.599Z</time></trkpt><trkpt lat="45.9063917" lon="12.0487723"><ele>314.4</ele><time>2026-05-03T16:50:24.599Z</time></trkpt><trkpt lat="45.9064692" lon="12.048851"><ele>313.8</ele><time>2026-05-03T16:50:25.598Z</time></trkpt><trkpt lat="45.9065502" lon="12.0489263"><ele>313.2</ele><time>2026-05-03T16:50:26.598Z</time></trkpt><trkpt lat="45.9066596" lon="12.0489579"><ele>312.6</ele><time>2026-05-03T16:50:27.598Z</time></trkpt><trkpt lat="45.9067715" lon="12.0489992"><ele>312.0</ele><time>2026-05-03T16:50:28.598Z</time></trkpt><trkpt lat="45.9068914" lon="12.0490405"><ele>311.5</ele><time>2026-05-03T16:50:29.598Z</time></trkpt><trkpt lat="45.9070145" lon="12.0490769"><ele>311.0</ele><time>2026-05-03T16:50:30.599Z</time></trkpt><trkpt lat="45.9071377" lon="12.049111"><ele>310.5</ele><time>2026-05-03T16:50:31.599Z</time></trkpt><trkpt lat="45.9072642" lon="12.0491393"><ele>310.0</ele><time>2026-05-03T16:50:32.599Z</time></trkpt><trkpt lat="45.9073877" lon="12.0491773"><ele>310.0</ele><time>2026-05-03T16:50:33.598Z</time></trkpt><trkpt lat="45.9075064" lon="12.0492178"><ele>310.0</ele><time>2026-05-03T16:50:34.598Z</time></trkpt><trkpt lat="45.9076223" lon="12.049274"><ele>310.0</ele><time>2026-05-03T16:50:35.599Z</time></trkpt><trkpt lat="45.9077367" lon="12.0493446"><ele>310.0</ele><time>2026-05-03T16:50:36.598Z</time></trkpt><trkpt lat="45.9078505" lon="12.0494334"><ele>313.25</ele><time>2026-05-03T16:50:37.598Z</time></trkpt><trkpt lat="45.9079648" lon="12.0495337"><ele>316.5</ele><time>2026-05-03T16:50:38.599Z</time></trkpt><trkpt lat="45.9080764" lon="12.0496435"><ele>319.75</ele><time>2026-05-03T16:50:39.598Z</time></trkpt><trkpt lat="45.9081893" lon="12.0497536"><ele>323.0</ele><time>2026-05-03T16:50:40.598Z</time></trkpt><trkpt lat="45.9082996" lon="12.0498699"><ele>325.5</ele><time>2026-05-03T16:50:41.599Z</time></trkpt><trkpt lat="45.9084047" lon="12.0500009"><ele>328.0</ele><time>2026-05-03T16:50:42.598Z</time></trkpt><trkpt lat="45.9084976" lon="12.0501359"><ele>330.5</ele><time>2026-05-03T16:50:43.598Z</time></trkpt><trkpt lat="45.9085854" lon="12.0502817"><ele>333.0</ele><time>2026-05-03T16:50:44.599Z</time></trkpt><trkpt lat="45.9086711" lon="12.0504317"><ele>333.0</ele><time>2026-05-03T16:50:45.599Z</time></trkpt><trkpt lat="45.908758" lon="12.0505801"><ele>333.0</ele><time>2026-05-03T16:50:46.598Z</time></trkpt><trkpt lat="45.9088476" lon="12.0507313"><ele>333.0</ele><time>2026-05-03T16:50:47.598Z</time></trkpt><trkpt lat="45.9089357" lon="12.0508855"><ele>333.0</ele><time>2026-05-03T16:50:48.599Z</time></trkpt><trkpt lat="45.9090234" lon="12.051038"><ele>332.5</ele><time>2026-05-03T16:50:49.598Z</time></trkpt><trkpt lat="45.9091116" lon="12.0511937"><ele>332.0</ele><time>2026-05-03T16:50:50.599Z</time></trkpt><trkpt lat="45.9092048" lon="12.0513464"><ele>331.5</ele><time>2026-05-03T16:50:51.598Z</time></trkpt><trkpt lat="45.9092999" lon="12.0514996"><ele>331.0</ele><time>2026-05-03T16:50:52.599Z</time></trkpt><trkpt lat="45.9093977" lon="12.0516465"><ele>331.0</ele><time>2026-05-03T16:50:53.599Z</time></trkpt><trkpt lat="45.909492" lon="12.0517958"><ele>331.0</ele><time>2026-05-03T16:50:54.598Z</time></trkpt><trkpt lat="45.9095785" lon="12.0519543"><ele>331.0</ele><time>2026-05-03T16:50:55.599Z</time></trkpt><trkpt lat="45.9096557" lon="12.0521095"><ele>331.0</ele><time>2026-05-03T16:50:56.598Z</time></trkpt><trkpt lat="45.9097298" lon="12.0522616"><ele>331.0</ele><time>2026-05-03T16:50:57.599Z</time></trkpt><trkpt lat="45.9098018" lon="12.0524104"><ele>331.0</ele><time>2026-05-03T16:50:58.598Z</time></trkpt><trkpt lat="45.9098706" lon="12.0525525"><ele>331.0</ele><time>2026-05-03T16:50:59.598Z</time></trkpt><trkpt lat="45.9099483" lon="12.0526907"><ele>331.0</ele><time>2026-05-03T16:51:00.599Z</time></trkpt><trkpt lat="45.9100372" lon="12.052828"><ele>331.5</ele><time>2026-05-03T16:51:01.599Z</time></trkpt><trkpt lat="45.910131" lon="12.0529571"><ele>332.0</ele><time>2026-05-03T16:51:02.599Z</time></trkpt><trkpt lat="45.9102233" lon="12.0530795"><ele>332.5</ele><time>2026-05-03T16:51:03.599Z</time></trkpt><trkpt lat="45.9103102" lon="12.0531984"><ele>333.0</ele><time>2026-05-03T16:51:04.599Z</time></trkpt><trkpt lat="45.9103946" lon="12.0533109"><ele>328.0</ele><time>2026-05-03T16:51:05.598Z</time></trkpt><trkpt lat="45.9104743" lon="12.053407"><ele>323.0</ele><time>2026-05-03T16:51:06.598Z</time></trkpt><trkpt lat="45.9105498" lon="12.0534753"><ele>318.0</ele><time>2026-05-03T16:51:07.599Z</time></trkpt><trkpt lat="45.9106308" lon="12.0535263"><ele>313.0</ele><time>2026-05-03T16:51:08.598Z</time></trkpt><trkpt lat="45.9107234" lon="12.053554"><ele>308.0</ele><time>2026-05-03T16:51:09.599Z</time></trkpt><trkpt lat="45.9108326" lon="12.0535618"><ele>310.0</ele><time>2026-05-03T16:51:10.599Z</time></trkpt><trkpt lat="45.9109456" lon="12.0535621"><ele>312.0</ele><time>2026-05-03T16:51:11.598Z</time></trkpt><trkpt lat="45.9110643" lon="12.0535635"><ele>314.0</ele><time>2026-05-03T16:51:12.598Z</time></trkpt><trkpt lat="45.9111768" lon="12.0535606"><ele>316.0</ele><time>2026-05-03T16:51:13.598Z</time></trkpt><trkpt lat="45.9112973" lon="12.0535667"><ele>316.0</ele><time>2026-05-03T16:51:14.599Z</time></trkpt><trkpt lat="45.911414" lon="12.0535542"><ele>316.0</ele><time>2026-05-03T16:51:15.599Z</time></trkpt><trkpt lat="45.911522" lon="12.0535279"><ele>316.0</ele><time>2026-05-03T16:51:16.598Z</time></trkpt><trkpt lat="45.9116183" lon="12.0534872"><ele>316.0</ele><time>2026-05-03T16:51:17.598Z</time></trkpt><trkpt lat="45.9117138" lon="12.0534265"><ele>316.0</ele><time>2026-05-03T16:51:18.599Z</time></trkpt><trkpt lat="45.9118029" lon="12.053346"><ele>318.0</ele><time>2026-05-03T16:51:19.598Z</time></trkpt><trkpt lat="45.911886" lon="12.0532567"><ele>320.0</ele><time>2026-05-03T16:51:20.599Z</time></trkpt><trkpt lat="45.9119712" lon="12.0531751"><ele>322.0</ele><time>2026-05-03T16:51:21.598Z</time></trkpt><trkpt lat="45.9120474" lon="12.0531078"><ele>324.0</ele><time>2026-05-03T16:51:22.599Z</time></trkpt><trkpt lat="45.9121338" lon="12.0530702"><ele>326.0</ele><time>2026-05-03T16:51:23.599Z</time></trkpt><trkpt lat="45.9122244" lon="12.0530408"><ele>326.0</ele><time>2026-05-03T16:51:24.598Z</time></trkpt><trkpt lat="45.9123224" lon="12.0530161"><ele>326.0</ele><time>2026-05-03T16:51:25.599Z</time></trkpt><trkpt lat="45.9124238" lon="12.052995"><ele>326.0</ele><time>2026-05-03T16:51:26.599Z</time></trkpt><trkpt lat="45.9125266" lon="12.0529721"><ele>326.0</ele><time>2026-05-03T16:51:27.599Z</time></trkpt><trkpt lat="45.9126354" lon="12.052947"><ele>326.0</ele><time>2026-05-03T16:51:28.598Z</time></trkpt><trkpt lat="45.9127435" lon="12.0529248"><ele>326.8</ele><time>2026-05-03T16:51:29.598Z</time></trkpt><trkpt lat="45.9128525" lon="12.052901"><ele>327.6</ele><time>2026-05-03T16:51:30.599Z</time></trkpt><trkpt lat="45.9129627" lon="12.0528754"><ele>328.4</ele><time>2026-05-03T16:51:31.599Z</time></trkpt><trkpt lat="45.9130725" lon="12.0528521"><ele>329.2</ele><time>2026-05-03T16:51:32.599Z</time></trkpt><trkpt lat="45.9131811" lon="12.05283"><ele>330.0</ele><time>2026-05-03T16:51:33.598Z</time></trkpt><trkpt lat="45.9132872" lon="12.0528076"><ele>330.0</ele><time>2026-05-03T16:51:34.598Z</time></trkpt><trkpt lat="45.9133914" lon="12.0527772"><ele>330.0</ele><time>2026-05-03T16:51:35.598Z</time></trkpt><trkpt lat="45.9134912" lon="12.0527527"><ele>330.0</ele><time>2026-05-03T16:51:36.598Z</time></trkpt><trkpt lat="45.9135895" lon="12.052728"><ele>330.0</ele><time>2026-05-03T16:51:37.598Z</time></trkpt><trkpt lat="45.9136812" lon="12.052705"><ele>330.0</ele><time>2026-05-03T16:51:38.598Z</time></trkpt><trkpt lat="45.9137652" lon="12.0527059"><ele>332.2</ele><time>2026-05-03T16:51:39.599Z</time></trkpt><trkpt lat="45.913847" lon="12.0527254"><ele>334.4</ele><time>2026-05-03T16:51:40.598Z</time></trkpt><trkpt lat="45.9139273" lon="12.0527779"><ele>336.6</ele><time>2026-05-03T16:51:41.599Z</time></trkpt><trkpt lat="45.9139968" lon="12.0528627"><ele>338.8</ele><time>2026-05-03T16:51:42.598Z</time></trkpt><trkpt lat="45.9140661" lon="12.0529706"><ele>341.0</ele><time>2026-05-03T16:51:43.598Z</time></trkpt><trkpt lat="45.9141353" lon="12.0530904"><ele>341.0</ele><time>2026-05-03T16:51:44.598Z</time></trkpt><trkpt lat="45.9142047" lon="12.0532166"><ele>341.0</ele><time>2026-05-03T16:51:45.599Z</time></trkpt><trkpt lat="45.9142755" lon="12.0533466"><ele>341.0</ele><time>2026-05-03T16:51:46.598Z</time></trkpt><trkpt lat="45.9143483" lon="12.0534805"><ele>341.0</ele><time>2026-05-03T16:51:47.599Z</time></trkpt><trkpt lat="45.9144216" lon="12.0536158"><ele>340.4</ele><time>2026-05-03T16:51:48.598Z</time></trkpt><trkpt lat="45.9144938" lon="12.0537487"><ele>339.8</ele><time>2026-05-03T16:51:49.599Z</time></trkpt><trkpt lat="45.9145615" lon="12.0538806"><ele>339.2</ele><time>2026-05-03T16:51:50.599Z</time></trkpt><trkpt lat="45.9146236" lon="12.0540122"><ele>338.59999999999997</ele><time>2026-05-03T16:51:51.598Z</time></trkpt><trkpt lat="45.9146675" lon="12.0541496"><ele>338.0</ele><time>2026-05-03T16:51:52.599Z</time></trkpt><trkpt lat="45.9147031" lon="12.0542936"><ele>338.0</ele><time>2026-05-03T16:51:53.598Z</time></trkpt><trkpt lat="45.9147342" lon="12.0544438"><ele>338.0</ele><time>2026-05-03T16:51:54.598Z</time></trkpt><trkpt lat="45.9147645" lon="12.0545991"><ele>338.0</ele><time>2026-05-03T16:51:55.598Z</time></trkpt><trkpt lat="45.9147949" lon="12.054754"><ele>338.0</ele><time>2026-05-03T16:51:56.599Z</time></trkpt><trkpt lat="45.9148294" lon="12.0549058"><ele>338.0</ele><time>2026-05-03T16:51:57.599Z</time></trkpt><trkpt lat="45.9148642" lon="12.0550537"><ele>338.5</ele><time>2026-05-03T16:51:58.598Z</time></trkpt><trkpt lat="45.9148924" lon="12.0551878"><ele>339.0</ele><time>2026-05-03T16:51:59.599Z</time></trkpt><trkpt lat="45.9149143" lon="12.0553056"><ele>339.5</ele><time>2026-05-03T16:52:00.599Z</time></trkpt><trkpt lat="45.9149267" lon="12.0554138"><ele>340.0</ele><time>2026-05-03T16:52:01.599Z</time></trkpt><trkpt lat="45.9149202" lon="12.0555147"><ele>340.5</ele><time>2026-05-03T16:52:02.599Z</time></trkpt><trkpt lat="45.9149094" lon="12.0556051"><ele>341.0</ele><time>2026-05-03T16:52:03.599Z</time></trkpt><trkpt lat="45.9148456" lon="12.0556682"><ele>341.0</ele><time>2026-05-03T16:52:04.599Z</time></trkpt><trkpt lat="45.9147852" lon="12.0557167"><ele>341.0</ele><time>2026-05-03T16:52:05.598Z</time></trkpt><trkpt lat="45.9147082" lon="12.0557485"><ele>341.0</ele><time>2026-05-03T16:52:06.598Z</time></trkpt><trkpt lat="45.9146206" lon="12.0557614"><ele>341.0</ele><time>2026-05-03T16:52:07.599Z</time></trkpt><trkpt lat="45.914536" lon="12.0557758"><ele>341.0</ele><time>2026-05-03T16:52:08.599Z</time></trkpt><trkpt lat="45.9144594" lon="12.0558109"><ele>341.0</ele><time>2026-05-03T16:52:09.598Z</time></trkpt><trkpt lat="45.9143926" lon="12.0558668"><ele>342.33333333333337</ele><time>2026-05-03T16:52:10.598Z</time></trkpt><trkpt lat="45.9143464" lon="12.0559403"><ele>343.6666666666667</ele><time>2026-05-03T16:52:11.599Z</time></trkpt><trkpt lat="45.9143254" lon="12.0560268"><ele>345.0</ele><time>2026-05-03T16:52:12.599Z</time></trkpt><trkpt lat="45.9143475" lon="12.056199"><ele>346.3333333333333</ele><time>2026-05-03T16:52:14.598Z</time></trkpt><trkpt lat="45.9143925" lon="12.0562718"><ele>347.66666666666663</ele><time>2026-05-03T16:52:15.599Z</time></trkpt><trkpt lat="45.914451" lon="12.056343"><ele>349.0</ele><time>2026-05-03T16:52:16.599Z</time></trkpt><trkpt lat="45.9145251" lon="12.0564182"><ele>349.0</ele><time>2026-05-03T16:52:17.599Z</time></trkpt><trkpt lat="45.9146049" lon="12.056496"><ele>349.0</ele><time>2026-05-03T16:52:18.598Z</time></trkpt><trkpt lat="45.9146856" lon="12.0565769"><ele>349.0</ele><time>2026-05-03T16:52:19.599Z</time></trkpt><trkpt lat="45.9147679" lon="12.0566569"><ele>349.0</ele><time>2026-05-03T16:52:20.598Z</time></trkpt><trkpt lat="45.9148477" lon="12.0567313"><ele>349.0</ele><time>2026-05-03T16:52:21.599Z</time></trkpt><trkpt lat="45.9149201" lon="12.0568016"><ele>349.5</ele><time>2026-05-03T16:52:22.599Z</time></trkpt><trkpt lat="45.914982" lon="12.0568739"><ele>350.0</ele><time>2026-05-03T16:52:23.598Z</time></trkpt><trkpt lat="45.9150318" lon="12.0569582"><ele>350.5</ele><time>2026-05-03T16:52:24.598Z</time></trkpt><trkpt lat="45.9150715" lon="12.0570641"><ele>351.0</ele><time>2026-05-03T16:52:25.598Z</time></trkpt><trkpt lat="45.9150924" lon="12.0571852"><ele>351.5</ele><time>2026-05-03T16:52:26.599Z</time></trkpt><trkpt lat="45.9151018" lon="12.0573125"><ele>352.0</ele><time>2026-05-03T16:52:27.599Z</time></trkpt><trkpt lat="45.915102" lon="12.0574448"><ele>357.8</ele><time>2026-05-03T16:52:28.598Z</time></trkpt><trkpt lat="45.9151003" lon="12.0575814"><ele>363.6</ele><time>2026-05-03T16:52:29.599Z</time></trkpt><trkpt lat="45.9150992" lon="12.0577234"><ele>369.40000000000003</ele><time>2026-05-03T16:52:30.599Z</time></trkpt><trkpt lat="45.915101" lon="12.0578644"><ele>375.20000000000005</ele><time>2026-05-03T16:52:31.599Z</time></trkpt><trkpt lat="45.9151028" lon="12.0580061"><ele>381.0</ele><time>2026-05-03T16:52:32.598Z</time></trkpt><trkpt lat="45.9150997" lon="12.0581516"><ele>381.20000000000005</ele><time>2026-05-03T16:52:33.598Z</time></trkpt><trkpt lat="45.9150917" lon="12.0582924"><ele>381.40000000000003</ele><time>2026-05-03T16:52:34.599Z</time></trkpt><trkpt lat="45.9150771" lon="12.0584294"><ele>381.6</ele><time>2026-05-03T16:52:35.598Z</time></trkpt><trkpt lat="45.9150435" lon="12.0585535"><ele>381.8</ele><time>2026-05-03T16:52:36.599Z</time></trkpt><trkpt lat="45.9149933" lon="12.0586597"><ele>382.0</ele><time>2026-05-03T16:52:37.598Z</time></trkpt><trkpt lat="45.9149329" lon="12.0587433"><ele>378.3333333333333</ele><time>2026-05-03T16:52:38.598Z</time></trkpt><trkpt lat="45.9148707" lon="12.0588163"><ele>374.66666666666663</ele><time>2026-05-03T16:52:39.598Z</time></trkpt><trkpt lat="45.9148273" lon="12.0588986"><ele>371.0</ele><time>2026-05-03T16:52:40.598Z</time></trkpt><trkpt lat="45.9148029" lon="12.0589893"><ele>367.3333333333333</ele><time>2026-05-03T16:52:41.598Z</time></trkpt><trkpt lat="45.914797" lon="12.0590831"><ele>363.6666666666667</ele><time>2026-05-03T16:52:42.599Z</time></trkpt><trkpt lat="45.9148467" lon="12.0592565"><ele>360.0</ele><time>2026-05-03T16:52:44.598Z</time></trkpt><trkpt lat="45.9148969" lon="12.0593372"><ele>360.0</ele><time>2026-05-03T16:52:45.599Z</time></trkpt><trkpt lat="45.9149565" lon="12.0594142"><ele>360.0</ele><time>2026-05-03T16:52:46.598Z</time></trkpt><trkpt lat="45.9150313" lon="12.0594682"><ele>360.0</ele><time>2026-05-03T16:52:47.598Z</time></trkpt><trkpt lat="45.9151131" lon="12.0594956"><ele>360.0</ele><time>2026-05-03T16:52:48.599Z</time></trkpt><trkpt lat="45.9152004" lon="12.0594932"><ele>360.0</ele><time>2026-05-03T16:52:49.598Z</time></trkpt><trkpt lat="45.9152819" lon="12.0594774"><ele>360.0</ele><time>2026-05-03T16:52:50.598Z</time></trkpt><trkpt lat="45.9153674" lon="12.0594629"><ele>364.0</ele><time>2026-05-03T16:52:51.598Z</time></trkpt><trkpt lat="45.9154569" lon="12.0594511"><ele>368.0</ele><time>2026-05-03T16:52:52.598Z</time></trkpt><trkpt lat="45.9155482" lon="12.0594572"><ele>372.0</ele><time>2026-05-03T16:52:53.598Z</time></trkpt><trkpt lat="45.9156408" lon="12.0594801"><ele>376.0</ele><time>2026-05-03T16:52:54.599Z</time></trkpt><trkpt lat="45.9157284" lon="12.0595332"><ele>380.0</ele><time>2026-05-03T16:52:55.599Z</time></trkpt><trkpt lat="45.915817" lon="12.0595869"><ele>380.0</ele><time>2026-05-03T16:52:56.599Z</time></trkpt><trkpt lat="45.9159031" lon="12.0596478"><ele>380.0</ele><time>2026-05-03T16:52:57.598Z</time></trkpt><trkpt lat="45.915987" lon="12.059706"><ele>380.0</ele><time>2026-05-03T16:52:58.598Z</time></trkpt><trkpt lat="45.9160716" lon="12.0597645"><ele>380.0</ele><time>2026-05-03T16:52:59.598Z</time></trkpt><trkpt lat="45.916156" lon="12.0598247"><ele>380.0</ele><time>2026-05-03T16:53:00.599Z</time></trkpt><trkpt lat="45.9162404" lon="12.0598786"><ele>381.1666666666667</ele><time>2026-05-03T16:53:01.599Z</time></trkpt><trkpt lat="45.9163225" lon="12.0599336"><ele>382.33333333333337</ele><time>2026-05-03T16:53:02.598Z</time></trkpt><trkpt lat="45.916402" lon="12.0599939"><ele>383.5</ele><time>2026-05-03T16:53:03.596Z</time></trkpt><trkpt lat="45.9164796" lon="12.0600494"><ele>384.6666666666667</ele><time>2026-05-03T16:53:04.599Z</time></trkpt><trkpt lat="45.916552" lon="12.0601041"><ele>385.8333333333333</ele><time>2026-05-03T16:53:05.598Z</time></trkpt><trkpt lat="45.9166211" lon="12.0601611"><ele>387.0</ele><time>2026-05-03T16:53:06.598Z</time></trkpt><trkpt lat="45.9166884" lon="12.0602229"><ele>392.1666666666667</ele><time>2026-05-03T16:53:07.599Z</time></trkpt><trkpt lat="45.9167469" lon="12.0602963"><ele>397.33333333333337</ele><time>2026-05-03T16:53:08.599Z</time></trkpt><trkpt lat="45.9167946" lon="12.0603906"><ele>402.5</ele><time>2026-05-03T16:53:09.599Z</time></trkpt><trkpt lat="45.9168305" lon="12.0605015"><ele>407.6666666666667</ele><time>2026-05-03T16:53:10.598Z</time></trkpt><trkpt lat="45.9168465" lon="12.0606262"><ele>412.83333333333337</ele><time>2026-05-03T16:53:11.599Z</time></trkpt><trkpt lat="45.9168464" lon="12.0607528"><ele>418.0</ele><time>2026-05-03T16:53:12.598Z</time></trkpt><trkpt lat="45.9168438" lon="12.0608816"><ele>418.0</ele><time>2026-05-03T16:53:13.598Z</time></trkpt><trkpt lat="45.9168369" lon="12.0610174"><ele>418.0</ele><time>2026-05-03T16:53:14.599Z</time></trkpt><trkpt lat="45.9168305" lon="12.0611514"><ele>418.0</ele><time>2026-05-03T16:53:15.598Z</time></trkpt><trkpt lat="45.9168236" lon="12.0612884"><ele>418.0</ele><time>2026-05-03T16:53:16.599Z</time></trkpt><trkpt lat="45.9168163" lon="12.0614252"><ele>418.0</ele><time>2026-05-03T16:53:17.599Z</time></trkpt><trkpt lat="45.916809" lon="12.061563"><ele>416.50000000000006</ele><time>2026-05-03T16:53:18.598Z</time></trkpt><trkpt lat="45.9168026" lon="12.0616987"><ele>415.0</ele><time>2026-05-03T16:53:19.599Z</time></trkpt><trkpt lat="45.9167968" lon="12.0618266"><ele>413.5</ele><time>2026-05-03T16:53:20.599Z</time></trkpt><trkpt lat="45.9167973" lon="12.0619454"><ele>412.0</ele><time>2026-05-03T16:53:21.598Z</time></trkpt><trkpt lat="45.9168013" lon="12.0620559"><ele>410.50000000000006</ele><time>2026-05-03T16:53:22.599Z</time></trkpt><trkpt lat="45.9168114" lon="12.0621551"><ele>409.0</ele><time>2026-05-03T16:53:23.598Z</time></trkpt><trkpt lat="45.9168314" lon="12.0622437"><ele>409.0</ele><time>2026-05-03T16:53:24.599Z</time></trkpt><trkpt lat="45.9168672" lon="12.062325"><ele>409.0</ele><time>2026-05-03T16:53:25.598Z</time></trkpt><trkpt lat="45.9169187" lon="12.0623836"><ele>409.0</ele><time>2026-05-03T16:53:26.598Z</time></trkpt><trkpt lat="45.916983" lon="12.0624292"><ele>409.0</ele><time>2026-05-03T16:53:27.598Z</time></trkpt><trkpt lat="45.9170561" lon="12.0624599"><ele>409.0</ele><time>2026-05-03T16:53:28.599Z</time></trkpt><trkpt lat="45.9171353" lon="12.0624877"><ele>409.0</ele><time>2026-05-03T16:53:29.599Z</time></trkpt><trkpt lat="45.9172187" lon="12.0625137"><ele>409.0</ele><time>2026-05-03T16:53:30.598Z</time></trkpt><trkpt lat="45.917299" lon="12.0625386"><ele>408.00000000000006</ele><time>2026-05-03T16:53:31.598Z</time></trkpt><trkpt lat="45.9173732" lon="12.0625577"><ele>407.0</ele><time>2026-05-03T16:53:32.599Z</time></trkpt><trkpt lat="45.9174448" lon="12.0625652"><ele>406.0</ele><time>2026-05-03T16:53:33.598Z</time></trkpt><trkpt lat="45.9175677" lon="12.0625206"><ele>405.0</ele><time>2026-05-03T16:53:35.598Z</time></trkpt><trkpt lat="45.9176238" lon="12.0624655"><ele>404.00000000000006</ele><time>2026-05-03T16:53:36.599Z</time></trkpt><trkpt lat="45.9176809" lon="12.0624025"><ele>403.0</ele><time>2026-05-03T16:53:37.599Z</time></trkpt><trkpt lat="45.9177475" lon="12.0623401"><ele>408.33333333333337</ele><time>2026-05-03T16:53:38.598Z</time></trkpt><trkpt lat="45.9178161" lon="12.0622846"><ele>413.6666666666667</ele><time>2026-05-03T16:53:39.599Z</time></trkpt><trkpt lat="45.9178925" lon="12.0622448"><ele>419.0</ele><time>2026-05-03T16:53:40.598Z</time></trkpt><trkpt lat="45.9179698" lon="12.0622329"><ele>424.33333333333337</ele><time>2026-05-03T16:53:41.599Z</time></trkpt><trkpt lat="45.9180446" lon="12.0622407"><ele>429.6666666666667</ele><time>2026-05-03T16:53:42.598Z</time></trkpt><trkpt lat="45.9181272" lon="12.0622658"><ele>435.0</ele><time>2026-05-03T16:53:43.599Z</time></trkpt><trkpt lat="45.9182103" lon="12.0623117"><ele>435.0</ele><time>2026-05-03T16:53:44.598Z</time></trkpt><trkpt lat="45.9182941" lon="12.062365"><ele>435.0</ele><time>2026-05-03T16:53:45.599Z</time></trkpt><trkpt lat="45.9183819" lon="12.0624202"><ele>435.0</ele><time>2026-05-03T16:53:46.598Z</time></trkpt><trkpt lat="45.9184709" lon="12.0624778"><ele>435.0</ele><time>2026-05-03T16:53:47.598Z</time></trkpt><trkpt lat="45.9185638" lon="12.0625344"><ele>435.0</ele><time>2026-05-03T16:53:48.598Z</time></trkpt><trkpt lat="45.9186546" lon="12.0625914"><ele>433.0</ele><time>2026-05-03T16:53:49.598Z</time></trkpt><trkpt lat="45.9187471" lon="12.0626455"><ele>431.0</ele><time>2026-05-03T16:53:50.598Z</time></trkpt><trkpt lat="45.918839" lon="12.0627021"><ele>429.0</ele><time>2026-05-03T16:53:51.598Z</time></trkpt><trkpt lat="45.9189341" lon="12.0627522"><ele>427.0</ele><time>2026-05-03T16:53:52.598Z</time></trkpt><trkpt lat="45.9190266" lon="12.0628035"><ele>425.0</ele><time>2026-05-03T16:53:53.598Z</time></trkpt><trkpt lat="45.9191164" lon="12.0628579"><ele>424.99999999999994</ele><time>2026-05-03T16:53:54.598Z</time></trkpt><trkpt lat="45.9192069" lon="12.062909"><ele>425.0</ele><time>2026-05-03T16:53:55.599Z</time></trkpt><trkpt lat="45.9192921" lon="12.0629624"><ele>425.0</ele><time>2026-05-03T16:53:56.598Z</time></trkpt><trkpt lat="45.9193744" lon="12.0630158"><ele>425.0</ele><time>2026-05-03T16:53:57.598Z</time></trkpt><trkpt lat="45.9194556" lon="12.063067"><ele>424.99999999999994</ele><time>2026-05-03T16:53:58.599Z</time></trkpt><trkpt lat="45.9195272" lon="12.0631094"><ele>425.0</ele><time>2026-05-03T16:53:59.598Z</time></trkpt><trkpt lat="45.9195987" lon="12.0631402"><ele>425.66666666666663</ele><time>2026-05-03T16:54:00.598Z</time></trkpt><trkpt lat="45.9196719" lon="12.0631486"><ele>426.3333333333333</ele><time>2026-05-03T16:54:01.599Z</time></trkpt><trkpt lat="45.9197445" lon="12.0631262"><ele>427.0</ele><time>2026-05-03T16:54:02.599Z</time></trkpt><trkpt lat="45.9198209" lon="12.0630803"><ele>427.66666666666663</ele><time>2026-05-03T16:54:03.598Z</time></trkpt><trkpt lat="45.9198946" lon="12.0630198"><ele>428.3333333333333</ele><time>2026-05-03T16:54:04.599Z</time></trkpt><trkpt lat="45.9199709" lon="12.062948"><ele>429.0</ele><time>2026-05-03T16:54:05.599Z</time></trkpt><trkpt lat="45.9200435" lon="12.0628698"><ele>423.2</ele><time>2026-05-03T16:54:06.599Z</time></trkpt><trkpt lat="45.9201156" lon="12.0627904"><ele>417.4</ele><time>2026-05-03T16:54:07.598Z</time></trkpt><trkpt lat="45.9201848" lon="12.0627073"><ele>411.6</ele><time>2026-05-03T16:54:08.598Z</time></trkpt><trkpt lat="45.9202543" lon="12.0626251"><ele>405.8</ele><time>2026-05-03T16:54:09.599Z</time></trkpt><trkpt lat="45.9203219" lon="12.0625407"><ele>400.0</ele><time>2026-05-03T16:54:10.599Z</time></trkpt><trkpt lat="45.9203869" lon="12.0624501"><ele>403.6666666666667</ele><time>2026-05-03T16:54:11.599Z</time></trkpt><trkpt lat="45.9204407" lon="12.0623528"><ele>407.33333333333337</ele><time>2026-05-03T16:54:12.598Z</time></trkpt><trkpt lat="45.9204883" lon="12.0622514"><ele>411.0</ele><time>2026-05-03T16:54:13.599Z</time></trkpt><trkpt lat="45.9205259" lon="12.0621503"><ele>414.66666666666663</ele><time>2026-05-03T16:54:14.598Z</time></trkpt><trkpt lat="45.9205605" lon="12.0620378"><ele>418.3333333333333</ele><time>2026-05-03T16:54:15.598Z</time></trkpt><trkpt lat="45.9205901" lon="12.0619293"><ele>422.0</ele><time>2026-05-03T16:54:16.598Z</time></trkpt><trkpt lat="45.9206289" lon="12.0618173"><ele>421.99999999999994</ele><time>2026-05-03T16:54:17.599Z</time></trkpt><trkpt lat="45.9206791" lon="12.061715"><ele>422.0</ele><time>2026-05-03T16:54:18.598Z</time></trkpt><trkpt lat="45.9207336" lon="12.0616175"><ele>422.0</ele><time>2026-05-03T16:54:19.599Z</time></trkpt><trkpt lat="45.9207994" lon="12.0615329"><ele>422.0</ele><time>2026-05-03T16:54:20.598Z</time></trkpt><trkpt lat="45.9208717" lon="12.0614616"><ele>421.99999999999994</ele><time>2026-05-03T16:54:21.599Z</time></trkpt><trkpt lat="45.920951" lon="12.0614021"><ele>422.0</ele><time>2026-05-03T16:54:22.598Z</time></trkpt><trkpt lat="45.9210283" lon="12.0613448"><ele>426.3333333333333</ele><time>2026-05-03T16:54:23.598Z</time></trkpt><trkpt lat="45.9211068" lon="12.0613118"><ele>430.66666666666663</ele><time>2026-05-03T16:54:24.598Z</time></trkpt><trkpt lat="45.9211859" lon="12.0613132"><ele>435.0</ele><time>2026-05-03T16:54:25.598Z</time></trkpt><trkpt lat="45.9212623" lon="12.0613448"><ele>439.33333333333337</ele><time>2026-05-03T16:54:26.598Z</time></trkpt><trkpt lat="45.9213277" lon="12.0613968"><ele>443.6666666666667</ele><time>2026-05-03T16:54:27.599Z</time></trkpt><trkpt lat="45.9213843" lon="12.0614784"><ele>448.0</ele><time>2026-05-03T16:54:28.598Z</time></trkpt><trkpt lat="45.9214273" lon="12.0615703"><ele>444.79999999999995</ele><time>2026-05-03T16:54:29.598Z</time></trkpt><trkpt lat="45.921456" lon="12.0616788"><ele>441.59999999999997</ele><time>2026-05-03T16:54:30.599Z</time></trkpt><trkpt lat="45.9214691" lon="12.0618001"><ele>438.40000000000003</ele><time>2026-05-03T16:54:31.599Z</time></trkpt><trkpt lat="45.9214694" lon="12.0619311"><ele>435.20000000000005</ele><time>2026-05-03T16:54:32.599Z</time></trkpt><trkpt lat="45.92148" lon="12.0620647"><ele>432.0</ele><time>2026-05-03T16:54:33.599Z</time></trkpt><trkpt lat="45.9214999" lon="12.0622091"><ele>432.0</ele><time>2026-05-03T16:54:34.598Z</time></trkpt><trkpt lat="45.9215249" lon="12.0623561"><ele>432.00000000000006</ele><time>2026-05-03T16:54:35.599Z</time></trkpt><trkpt lat="45.9215592" lon="12.0625096"><ele>432.00000000000006</ele><time>2026-05-03T16:54:36.598Z</time></trkpt><trkpt lat="45.921597" lon="12.0626632"><ele>432.0</ele><time>2026-05-03T16:54:37.598Z</time></trkpt><trkpt lat="45.921632" lon="12.0628146"><ele>432.0</ele><time>2026-05-03T16:54:38.599Z</time></trkpt><trkpt lat="45.9216656" lon="12.0629665"><ele>429.3333333333333</ele><time>2026-05-03T16:54:39.599Z</time></trkpt><trkpt lat="45.9216972" lon="12.0631166"><ele>426.66666666666663</ele><time>2026-05-03T16:54:40.598Z</time></trkpt><trkpt lat="45.9217261" lon="12.0632507"><ele>424.0</ele><time>2026-05-03T16:54:41.599Z</time></trkpt><trkpt lat="45.9217576" lon="12.0633571"><ele>421.3333333333333</ele><time>2026-05-03T16:54:42.599Z</time></trkpt><trkpt lat="45.9218019" lon="12.0634305"><ele>418.66666666666663</ele><time>2026-05-03T16:54:43.598Z</time></trkpt><trkpt lat="45.9218555" lon="12.0634903"><ele>416.0</ele><time>2026-05-03T16:54:44.598Z</time></trkpt><trkpt lat="45.921984" lon="12.0635133"><ele>415.66666666666663</ele><time>2026-05-03T16:54:46.599Z</time></trkpt><trkpt lat="45.9220623" lon="12.0634846"><ele>415.3333333333333</ele><time>2026-05-03T16:54:47.599Z</time></trkpt><trkpt lat="45.9221452" lon="12.0634354"><ele>415.0</ele><time>2026-05-03T16:54:48.598Z</time></trkpt><trkpt lat="45.9222304" lon="12.06338"><ele>414.66666666666663</ele><time>2026-05-03T16:54:49.598Z</time></trkpt><trkpt lat="45.922315" lon="12.063325"><ele>414.3333333333333</ele><time>2026-05-03T16:54:50.598Z</time></trkpt><trkpt lat="45.9223904" lon="12.0632609"><ele>414.0</ele><time>2026-05-03T16:54:51.599Z</time></trkpt><trkpt lat="45.9224557" lon="12.0631854"><ele>413.5</ele><time>2026-05-03T16:54:52.599Z</time></trkpt><trkpt lat="45.9225128" lon="12.0630896"><ele>413.0</ele><time>2026-05-03T16:54:53.599Z</time></trkpt><trkpt lat="45.9225556" lon="12.0629775"><ele>412.5</ele><time>2026-05-03T16:54:54.599Z</time></trkpt><trkpt lat="45.922588" lon="12.0628682"><ele>412.0</ele><time>2026-05-03T16:54:55.598Z</time></trkpt><trkpt lat="45.9226181" lon="12.0627491"><ele>411.5</ele><time>2026-05-03T16:54:56.598Z</time></trkpt><trkpt lat="45.9226539" lon="12.0626339"><ele>411.0</ele><time>2026-05-03T16:54:57.598Z</time></trkpt><trkpt lat="45.9226982" lon="12.0625311"><ele>414.6666666666667</ele><time>2026-05-03T16:54:58.598Z</time></trkpt><trkpt lat="45.9227561" lon="12.0624458"><ele>418.33333333333337</ele><time>2026-05-03T16:54:59.599Z</time></trkpt><trkpt lat="45.922821" lon="12.0623743"><ele>422.0</ele><time>2026-05-03T16:55:00.598Z</time></trkpt><trkpt lat="45.9228973" lon="12.0623244"><ele>425.6666666666667</ele><time>2026-05-03T16:55:01.599Z</time></trkpt><trkpt lat="45.9229732" lon="12.0622854"><ele>429.33333333333337</ele><time>2026-05-03T16:55:02.598Z</time></trkpt><trkpt lat="45.9230482" lon="12.062252"><ele>433.0</ele><time>2026-05-03T16:55:03.599Z</time></trkpt><trkpt lat="45.9231202" lon="12.062189"><ele>433.0</ele><time>2026-05-03T16:55:04.598Z</time></trkpt><trkpt lat="45.9231976" lon="12.062109"><ele>432.99999999999994</ele><time>2026-05-03T16:55:05.598Z</time></trkpt><trkpt lat="45.9232746" lon="12.0620196"><ele>432.99999999999994</ele><time>2026-05-03T16:55:06.599Z</time></trkpt><trkpt lat="45.9233558" lon="12.0619321"><ele>433.0</ele><time>2026-05-03T16:55:07.599Z</time></trkpt><trkpt lat="45.9234385" lon="12.0618391"><ele>433.0</ele><time>2026-05-03T16:55:08.598Z</time></trkpt><trkpt lat="45.9235233" lon="12.0617399"><ele>432.4</ele><time>2026-05-03T16:55:09.599Z</time></trkpt><trkpt lat="45.9236112" lon="12.0616425"><ele>431.79999999999995</ele><time>2026-05-03T16:55:10.599Z</time></trkpt><trkpt lat="45.9236964" lon="12.0615433"><ele>431.2</ele><time>2026-05-03T16:55:11.599Z</time></trkpt><trkpt lat="45.9237803" lon="12.0614455"><ele>430.6</ele><time>2026-05-03T16:55:12.598Z</time></trkpt><trkpt lat="45.9238615" lon="12.0613564"><ele>430.0</ele><time>2026-05-03T16:55:13.599Z</time></trkpt><trkpt lat="45.9239365" lon="12.0612729"><ele>430.00000000000006</ele><time>2026-05-03T16:55:14.598Z</time></trkpt><trkpt lat="45.9240028" lon="12.0611945"><ele>430.0</ele><time>2026-05-03T16:55:15.599Z</time></trkpt><trkpt lat="45.9240729" lon="12.0611368"><ele>430.0</ele><time>2026-05-03T16:55:16.598Z</time></trkpt><trkpt lat="45.9241453" lon="12.0611032"><ele>430.0</ele><time>2026-05-03T16:55:17.598Z</time></trkpt><trkpt lat="45.9242178" lon="12.0610864"><ele>430.00000000000006</ele><time>2026-05-03T16:55:18.598Z</time></trkpt><trkpt lat="45.9242893" lon="12.0611555"><ele>430.0</ele><time>2026-05-03T16:55:19.598Z</time></trkpt><trkpt lat="45.9243373" lon="12.0612252"><ele>431.33333333333337</ele><time>2026-05-03T16:55:20.599Z</time></trkpt><trkpt lat="45.9243587" lon="12.0613336"><ele>432.6666666666667</ele><time>2026-05-03T16:55:21.599Z</time></trkpt><trkpt lat="45.9243551" lon="12.0614507"><ele>434.0</ele><time>2026-05-03T16:55:22.598Z</time></trkpt><trkpt lat="45.9243516" lon="12.0615753"><ele>435.33333333333337</ele><time>2026-05-03T16:55:23.599Z</time></trkpt><trkpt lat="45.9243181" lon="12.0617008"><ele>436.6666666666667</ele><time>2026-05-03T16:55:24.599Z</time></trkpt><trkpt lat="45.9242983" lon="12.0618276"><ele>438.0</ele><time>2026-05-03T16:55:25.599Z</time></trkpt><trkpt lat="45.9242923" lon="12.0619711"><ele>438.0</ele><time>2026-05-03T16:55:26.599Z</time></trkpt><trkpt lat="45.9242905" lon="12.0620992"><ele>438.0</ele><time>2026-05-03T16:55:27.598Z</time></trkpt><trkpt lat="45.9243008" lon="12.0622087"><ele>438.0</ele><time>2026-05-03T16:55:28.598Z</time></trkpt><trkpt lat="45.9243352" lon="12.0623061"><ele>438.0</ele><time>2026-05-03T16:55:29.599Z</time></trkpt><trkpt lat="45.9243854" lon="12.0623784"><ele>438.0</ele><time>2026-05-03T16:55:30.598Z</time></trkpt><trkpt lat="45.9244496" lon="12.0624265"><ele>438.0</ele><time>2026-05-03T16:55:31.599Z</time></trkpt><trkpt lat="45.9245274" lon="12.0624675"><ele>433.4</ele><time>2026-05-03T16:55:32.598Z</time></trkpt><trkpt lat="45.9246279" lon="12.0624719"><ele>428.79999999999995</ele><time>2026-05-03T16:55:33.599Z</time></trkpt><trkpt lat="45.9247266" lon="12.0624902"><ele>424.2</ele><time>2026-05-03T16:55:34.599Z</time></trkpt><trkpt lat="45.9248296" lon="12.0625069"><ele>419.6</ele><time>2026-05-03T16:55:35.599Z</time></trkpt><trkpt lat="45.9249324" lon="12.0625325"><ele>415.0</ele><time>2026-05-03T16:55:36.598Z</time></trkpt><trkpt lat="45.9250267" lon="12.0625798"><ele>417.8</ele><time>2026-05-03T16:55:37.598Z</time></trkpt><trkpt lat="45.9251134" lon="12.062655"><ele>420.6</ele><time>2026-05-03T16:55:38.598Z</time></trkpt><trkpt lat="45.9251943" lon="12.0627445"><ele>423.4</ele><time>2026-05-03T16:55:39.598Z</time></trkpt><trkpt lat="45.9252722" lon="12.0628451"><ele>426.2</ele><time>2026-05-03T16:55:40.599Z</time></trkpt><trkpt lat="45.9253484" lon="12.0629438"><ele>429.0</ele><time>2026-05-03T16:55:41.599Z</time></trkpt><trkpt lat="45.92542" lon="12.0630343"><ele>429.0</ele><time>2026-05-03T16:55:42.599Z</time></trkpt><trkpt lat="45.9254936" lon="12.0631115"><ele>429.0</ele><time>2026-05-03T16:55:43.598Z</time></trkpt><trkpt lat="45.9255748" lon="12.0631529"><ele>429.0</ele><time>2026-05-03T16:55:44.599Z</time></trkpt><trkpt lat="45.9256646" lon="12.063172"><ele>429.0</ele><time>2026-05-03T16:55:45.598Z</time></trkpt><trkpt lat="45.9257525" lon="12.0631528"><ele>429.0</ele><time>2026-05-03T16:55:46.599Z</time></trkpt><trkpt lat="45.9258321" lon="12.0631237"><ele>429.0</ele><time>2026-05-03T16:55:47.598Z</time></trkpt><trkpt lat="45.9259147" lon="12.0631003"><ele>429.0</ele><time>2026-05-03T16:55:48.598Z</time></trkpt><trkpt lat="45.9259914" lon="12.0631147"><ele>429.0</ele><time>2026-05-03T16:55:49.598Z</time></trkpt><trkpt lat="45.9260609" lon="12.0631745"><ele>429.0</ele><time>2026-05-03T16:55:50.599Z</time></trkpt><trkpt lat="45.9261072" lon="12.0632703"><ele>429.0</ele><time>2026-05-03T16:55:51.599Z</time></trkpt><trkpt lat="45.9261372" lon="12.0633986"><ele>429.0</ele><time>2026-05-03T16:55:52.599Z</time></trkpt><trkpt lat="45.9261555" lon="12.0635486"><ele>429.0</ele><time>2026-05-03T16:55:53.598Z</time></trkpt><trkpt lat="45.9261732" lon="12.063714"><ele>429.0</ele><time>2026-05-03T16:55:54.599Z</time></trkpt><trkpt lat="45.9261946" lon="12.0638896"><ele>429.0</ele><time>2026-05-03T16:55:55.599Z</time></trkpt><trkpt lat="45.9262156" lon="12.0640658"><ele>429.0</ele><time>2026-05-03T16:55:56.598Z</time></trkpt><trkpt lat="45.926237" lon="12.0642326"><ele>429.0</ele><time>2026-05-03T16:55:57.599Z</time></trkpt><trkpt lat="45.9262575" lon="12.0643943"><ele>427.4</ele><time>2026-05-03T16:55:58.598Z</time></trkpt><trkpt lat="45.9262779" lon="12.0645481"><ele>425.79999999999995</ele><time>2026-05-03T16:55:59.598Z</time></trkpt><trkpt lat="45.9262952" lon="12.0646973"><ele>424.20000000000005</ele><time>2026-05-03T16:56:00.598Z</time></trkpt><trkpt lat="45.9263137" lon="12.0648379"><ele>422.6</ele><time>2026-05-03T16:56:01.598Z</time></trkpt><trkpt lat="45.926342" lon="12.0649671"><ele>421.0</ele><time>2026-05-03T16:56:02.598Z</time></trkpt><trkpt lat="45.9263903" lon="12.0650702"><ele>421.33333333333337</ele><time>2026-05-03T16:56:03.598Z</time></trkpt><trkpt lat="45.9264387" lon="12.0651639"><ele>421.6666666666667</ele><time>2026-05-03T16:56:04.598Z</time></trkpt><trkpt lat="45.9265298" lon="12.0652101"><ele>422.0</ele><time>2026-05-03T16:56:05.598Z</time></trkpt><trkpt lat="45.9266102" lon="12.0652477"><ele>422.33333333333337</ele><time>2026-05-03T16:56:06.599Z</time></trkpt><trkpt lat="45.9266963" lon="12.0652736"><ele>422.6666666666667</ele><time>2026-05-03T16:56:07.598Z</time></trkpt><trkpt lat="45.9267804" lon="12.0653019"><ele>423.0</ele><time>2026-05-03T16:56:08.599Z</time></trkpt><trkpt lat="45.926857" lon="12.0653616"><ele>423.0</ele><time>2026-05-03T16:56:09.599Z</time></trkpt><trkpt lat="45.9269219" lon="12.0654501"><ele>423.0</ele><time>2026-05-03T16:56:10.599Z</time></trkpt><trkpt lat="45.926972" lon="12.0655544"><ele>423.0</ele><time>2026-05-03T16:56:11.599Z</time></trkpt><trkpt lat="45.9270177" lon="12.0656685"><ele>423.0</ele><time>2026-05-03T16:56:12.599Z</time></trkpt><trkpt lat="45.9270765" lon="12.0657765"><ele>423.0</ele><time>2026-05-03T16:56:13.599Z</time></trkpt><trkpt lat="45.9271512" lon="12.0658777"><ele>419.4</ele><time>2026-05-03T16:56:14.598Z</time></trkpt><trkpt lat="45.9272309" lon="12.0659744"><ele>415.79999999999995</ele><time>2026-05-03T16:56:15.599Z</time></trkpt><trkpt lat="45.9273098" lon="12.066074"><ele>412.2</ele><time>2026-05-03T16:56:16.599Z</time></trkpt><trkpt lat="45.9273791" lon="12.0661793"><ele>408.6</ele><time>2026-05-03T16:56:17.599Z</time></trkpt><trkpt lat="45.9274311" lon="12.0662928"><ele>405.0</ele><time>2026-05-03T16:56:18.598Z</time></trkpt><trkpt lat="45.9274546" lon="12.0664195"><ele>405.0</ele><time>2026-05-03T16:56:19.599Z</time></trkpt><trkpt lat="45.9274523" lon="12.0665423"><ele>405.0</ele><time>2026-05-03T16:56:20.598Z</time></trkpt><trkpt lat="45.9274172" lon="12.0666615"><ele>405.0</ele><time>2026-05-03T16:56:21.599Z</time></trkpt><trkpt lat="45.9273603" lon="12.0667675"><ele>405.0</ele><time>2026-05-03T16:56:22.599Z</time></trkpt><trkpt lat="45.9272913" lon="12.0668568"><ele>405.0</ele><time>2026-05-03T16:56:23.598Z</time></trkpt><trkpt lat="45.9272235" lon="12.0669488"><ele>403.2857142857143</ele><time>2026-05-03T16:56:24.599Z</time></trkpt><trkpt lat="45.9271611" lon="12.067032"><ele>401.57142857142856</ele><time>2026-05-03T16:56:25.598Z</time></trkpt><trkpt lat="45.9271086" lon="12.0671085"><ele>399.8571428571429</ele><time>2026-05-03T16:56:26.599Z</time></trkpt><trkpt lat="45.9270613" lon="12.067187"><ele>398.1428571428571</ele><time>2026-05-03T16:56:27.599Z</time></trkpt><trkpt lat="45.9270144" lon="12.0672663"><ele>396.42857142857144</ele><time>2026-05-03T16:56:28.598Z</time></trkpt><trkpt lat="45.9269879" lon="12.0673653"><ele>394.7142857142857</ele><time>2026-05-03T16:56:29.599Z</time></trkpt><trkpt lat="45.9269948" lon="12.0674641"><ele>393.0</ele><time>2026-05-03T16:56:30.598Z</time></trkpt><trkpt lat="45.927026" lon="12.0676441"><ele>392.5</ele><time>2026-05-03T16:56:32.598Z</time></trkpt><trkpt lat="45.9270636" lon="12.067728"><ele>392.0</ele><time>2026-05-03T16:56:33.599Z</time></trkpt><trkpt lat="45.9271095" lon="12.0678117"><ele>391.5</ele><time>2026-05-03T16:56:34.598Z</time></trkpt><trkpt lat="45.9271742" lon="12.0678854"><ele>391.0</ele><time>2026-05-03T16:56:35.598Z</time></trkpt><trkpt lat="45.9272795" lon="12.0679271"><ele>390.5</ele><time>2026-05-03T16:56:36.599Z</time></trkpt><trkpt lat="45.9273749" lon="12.0679831"><ele>390.0</ele><time>2026-05-03T16:56:37.599Z</time></trkpt><trkpt lat="45.9274753" lon="12.0680362"><ele>391.6</ele><time>2026-05-03T16:56:38.598Z</time></trkpt><trkpt lat="45.9275663" lon="12.0680767"><ele>393.2</ele><time>2026-05-03T16:56:39.598Z</time></trkpt><trkpt lat="45.9276568" lon="12.0680985"><ele>394.79999999999995</ele><time>2026-05-03T16:56:40.599Z</time></trkpt><trkpt lat="45.9277485" lon="12.0680922"><ele>396.4</ele><time>2026-05-03T16:56:41.599Z</time></trkpt><trkpt lat="45.927835" lon="12.06806"><ele>398.0</ele><time>2026-05-03T16:56:42.598Z</time></trkpt><trkpt lat="45.9279166" lon="12.0680015"><ele>398.0</ele><time>2026-05-03T16:56:43.598Z</time></trkpt><trkpt lat="45.9279955" lon="12.0679304"><ele>398.0</ele><time>2026-05-03T16:56:44.599Z</time></trkpt><trkpt lat="45.9280793" lon="12.0678621"><ele>398.0</ele><time>2026-05-03T16:56:45.599Z</time></trkpt><trkpt lat="45.9281706" lon="12.067822"><ele>398.0</ele><time>2026-05-03T16:56:46.599Z</time></trkpt><trkpt lat="45.9282635" lon="12.0678178"><ele>398.0</ele><time>2026-05-03T16:56:47.598Z</time></trkpt><trkpt lat="45.9283519" lon="12.0678465"><ele>397.0</ele><time>2026-05-03T16:56:48.598Z</time></trkpt><trkpt lat="45.9284315" lon="12.0679095"><ele>396.0</ele><time>2026-05-03T16:56:49.599Z</time></trkpt><trkpt lat="45.9285067" lon="12.067999"><ele>395.0</ele><time>2026-05-03T16:56:50.598Z</time></trkpt><trkpt lat="45.9285753" lon="12.0681072"><ele>394.0</ele><time>2026-05-03T16:56:51.599Z</time></trkpt><trkpt lat="45.9286415" lon="12.0682088"><ele>393.0</ele><time>2026-05-03T16:56:52.599Z</time></trkpt><trkpt lat="45.9286905" lon="12.0682943"><ele>393.0</ele><time>2026-05-03T16:56:53.598Z</time></trkpt><trkpt lat="45.9287367" lon="12.0683719"><ele>393.0</ele><time>2026-05-03T16:56:54.598Z</time></trkpt><trkpt lat="45.9287818" lon="12.0684488"><ele>393.0</ele><time>2026-05-03T16:56:55.599Z</time></trkpt><trkpt lat="45.9288384" lon="12.068534"><ele>393.0</ele><time>2026-05-03T16:56:56.599Z</time></trkpt><trkpt lat="45.9288946" lon="12.0686212"><ele>393.0</ele><time>2026-05-03T16:56:57.599Z</time></trkpt><trkpt lat="45.9289637" lon="12.0687266"><ele>393.0</ele><time>2026-05-03T16:56:58.598Z</time></trkpt><trkpt lat="45.9290398" lon="12.0688564"><ele>393.0</ele><time>2026-05-03T16:56:59.599Z</time></trkpt><trkpt lat="45.9291125" lon="12.0690092"><ele>393.0</ele><time>2026-05-03T16:57:00.598Z</time></trkpt><trkpt lat="45.9291822" lon="12.0691792"><ele>393.0</ele><time>2026-05-03T16:57:01.598Z</time></trkpt><trkpt lat="45.9292544" lon="12.0693549"><ele>393.0</ele><time>2026-05-03T16:57:02.598Z</time></trkpt><trkpt lat="45.9293271" lon="12.0695416"><ele>393.5</ele><time>2026-05-03T16:57:03.598Z</time></trkpt><trkpt lat="45.9293995" lon="12.0697302"><ele>394.0</ele><time>2026-05-03T16:57:04.598Z</time></trkpt><trkpt lat="45.9294727" lon="12.0699163"><ele>394.5</ele><time>2026-05-03T16:57:05.599Z</time></trkpt><trkpt lat="45.9295474" lon="12.0701033"><ele>395.0</ele><time>2026-05-03T16:57:06.598Z</time></trkpt><trkpt lat="45.9296205" lon="12.0702846"><ele>395.0</ele><time>2026-05-03T16:57:07.599Z</time></trkpt><trkpt lat="45.9296883" lon="12.0704581"><ele>395.0</ele><time>2026-05-03T16:57:08.598Z</time></trkpt><trkpt lat="45.9297506" lon="12.070621"><ele>395.0</ele><time>2026-05-03T16:57:09.598Z</time></trkpt><trkpt lat="45.9298065" lon="12.0707748"><ele>395.0</ele><time>2026-05-03T16:57:10.598Z</time></trkpt><trkpt lat="45.9298603" lon="12.0709183"><ele>394.16666666666663</ele><time>2026-05-03T16:57:11.598Z</time></trkpt><trkpt lat="45.9299109" lon="12.0710491"><ele>393.3333333333333</ele><time>2026-05-03T16:57:12.598Z</time></trkpt><trkpt lat="45.9299661" lon="12.0711587"><ele>392.5</ele><time>2026-05-03T16:57:13.598Z</time></trkpt><trkpt lat="45.9300256" lon="12.0712412"><ele>391.66666666666663</ele><time>2026-05-03T16:57:14.598Z</time></trkpt><trkpt lat="45.930086" lon="12.0713099"><ele>390.8333333333333</ele><time>2026-05-03T16:57:15.598Z</time></trkpt><trkpt lat="45.9301552" lon="12.0713702"><ele>390.0</ele><time>2026-05-03T16:57:16.598Z</time></trkpt><trkpt lat="45.9302286" lon="12.0714026"><ele>389.5</ele><time>2026-05-03T16:57:17.598Z</time></trkpt><trkpt lat="45.930309" lon="12.0714046"><ele>389.0</ele><time>2026-05-03T16:57:18.598Z</time></trkpt><trkpt lat="45.9303865" lon="12.0713775"><ele>388.5</ele><time>2026-05-03T16:57:19.599Z</time></trkpt><trkpt lat="45.9304525" lon="12.071316"><ele>388.0</ele><time>2026-05-03T16:57:20.599Z</time></trkpt><trkpt lat="45.9305139" lon="12.0712299"><ele>387.5</ele><time>2026-05-03T16:57:21.598Z</time></trkpt><trkpt lat="45.9305657" lon="12.0711338"><ele>387.0</ele><time>2026-05-03T16:57:22.599Z</time></trkpt><trkpt lat="45.9306097" lon="12.0710272"><ele>387.0</ele><time>2026-05-03T16:57:23.599Z</time></trkpt><trkpt lat="45.9306561" lon="12.0709208"><ele>387.0</ele><time>2026-05-03T16:57:24.598Z</time></trkpt><trkpt lat="45.930705" lon="12.0708109"><ele>387.0</ele><time>2026-05-03T16:57:25.599Z</time></trkpt><trkpt lat="45.9307517" lon="12.0707033"><ele>387.0</ele><time>2026-05-03T16:57:26.599Z</time></trkpt><trkpt lat="45.9308024" lon="12.0706188"><ele>387.0</ele><time>2026-05-03T16:57:27.599Z</time></trkpt><trkpt lat="45.9308647" lon="12.0705727"><ele>387.0</ele><time>2026-05-03T16:57:28.598Z</time></trkpt><trkpt lat="45.9309291" lon="12.0705783"><ele>388.8333333333333</ele><time>2026-05-03T16:57:29.599Z</time></trkpt><trkpt lat="45.9309834" lon="12.0706293"><ele>390.66666666666663</ele><time>2026-05-03T16:57:30.598Z</time></trkpt><trkpt lat="45.9310102" lon="12.0707134"><ele>392.5</ele><time>2026-05-03T16:57:31.599Z</time></trkpt><trkpt lat="45.9310203" lon="12.0708196"><ele>394.3333333333333</ele><time>2026-05-03T16:57:32.598Z</time></trkpt><trkpt lat="45.931015" lon="12.0709427"><ele>396.16666666666663</ele><time>2026-05-03T16:57:33.599Z</time></trkpt><trkpt lat="45.9310061" lon="12.0710818"><ele>398.0</ele><time>2026-05-03T16:57:34.599Z</time></trkpt><trkpt lat="45.9309968" lon="12.0712297"><ele>398.0</ele><time>2026-05-03T16:57:35.599Z</time></trkpt><trkpt lat="45.9309879" lon="12.0713821"><ele>398.0</ele><time>2026-05-03T16:57:36.599Z</time></trkpt><trkpt lat="45.9309794" lon="12.0715304"><ele>398.0</ele><time>2026-05-03T16:57:37.598Z</time></trkpt><trkpt lat="45.9309739" lon="12.0716795"><ele>398.0</ele><time>2026-05-03T16:57:38.598Z</time></trkpt><trkpt lat="45.9309737" lon="12.0718255"><ele>398.0</ele><time>2026-05-03T16:57:39.599Z</time></trkpt><trkpt lat="45.9309924" lon="12.0719617"><ele>396.0</ele><time>2026-05-03T16:57:40.598Z</time></trkpt><trkpt lat="45.9310285" lon="12.0720911"><ele>394.0</ele><time>2026-05-03T16:57:41.598Z</time></trkpt><trkpt lat="45.9310794" lon="12.0722027"><ele>392.0</ele><time>2026-05-03T16:57:42.598Z</time></trkpt><trkpt lat="45.9311507" lon="12.0722994"><ele>390.0</ele><time>2026-05-03T16:57:43.599Z</time></trkpt><trkpt lat="45.9312293" lon="12.0723933"><ele>388.0</ele><time>2026-05-03T16:57:44.599Z</time></trkpt><trkpt lat="45.9313122" lon="12.0725002"><ele>386.0</ele><time>2026-05-03T16:57:45.599Z</time></trkpt><trkpt lat="45.9313901" lon="12.0726232"><ele>384.0</ele><time>2026-05-03T16:57:46.598Z</time></trkpt><trkpt lat="45.9314556" lon="12.0727563"><ele>382.0</ele><time>2026-05-03T16:57:47.599Z</time></trkpt><trkpt lat="45.9315042" lon="12.0729071"><ele>380.0</ele><time>2026-05-03T16:57:48.599Z</time></trkpt><trkpt lat="45.9315414" lon="12.0730615"><ele>380.0</ele><time>2026-05-03T16:57:49.598Z</time></trkpt><trkpt lat="45.9315696" lon="12.0732151"><ele>380.0</ele><time>2026-05-03T16:57:50.599Z</time></trkpt><trkpt lat="45.9316037" lon="12.0733639"><ele>380.0</ele><time>2026-05-03T16:57:51.599Z</time></trkpt><trkpt lat="45.9316493" lon="12.0735032"><ele>380.0</ele><time>2026-05-03T16:57:52.599Z</time></trkpt><trkpt lat="45.9317084" lon="12.0736321"><ele>380.0</ele><time>2026-05-03T16:57:53.599Z</time></trkpt><trkpt lat="45.9317877" lon="12.0737513"><ele>378.0</ele><time>2026-05-03T16:57:54.599Z</time></trkpt><trkpt lat="45.9318813" lon="12.0738659"><ele>376.0</ele><time>2026-05-03T16:57:55.598Z</time></trkpt><trkpt lat="45.9319824" lon="12.0739888"><ele>374.0</ele><time>2026-05-03T16:57:56.599Z</time></trkpt><trkpt lat="45.9320759" lon="12.0741215"><ele>372.0</ele><time>2026-05-03T16:57:57.598Z</time></trkpt><trkpt lat="45.9321615" lon="12.0742635"><ele>367.5</ele><time>2026-05-03T16:57:58.598Z</time></trkpt><trkpt lat="45.9322368" lon="12.0744158"><ele>363.0</ele><time>2026-05-03T16:57:59.598Z</time></trkpt><trkpt lat="45.9323125" lon="12.0745703"><ele>358.5</ele><time>2026-05-03T16:58:00.598Z</time></trkpt><trkpt lat="45.9323951" lon="12.074721"><ele>354.0</ele><time>2026-05-03T16:58:01.598Z</time></trkpt><trkpt lat="45.9324929" lon="12.0748689"><ele>353.0</ele><time>2026-05-03T16:58:02.598Z</time></trkpt><trkpt lat="45.9326028" lon="12.0750155"><ele>352.0</ele><time>2026-05-03T16:58:03.598Z</time></trkpt><trkpt lat="45.9327243" lon="12.0751645"><ele>351.0</ele><time>2026-05-03T16:58:04.599Z</time></trkpt><trkpt lat="45.9328546" lon="12.0753135"><ele>351.0</ele><time>2026-05-03T16:58:05.598Z</time></trkpt><trkpt lat="45.9329872" lon="12.0754693"><ele>351.0</ele><time>2026-05-03T16:58:06.599Z</time></trkpt><trkpt lat="45.9331216" lon="12.0756281"><ele>351.0</ele><time>2026-05-03T16:58:07.598Z</time></trkpt><trkpt lat="45.93326" lon="12.0757864"><ele>351.6666666666667</ele><time>2026-05-03T16:58:08.598Z</time></trkpt><trkpt lat="45.9333963" lon="12.0759446"><ele>352.33333333333337</ele><time>2026-05-03T16:58:09.598Z</time></trkpt><trkpt lat="45.9335308" lon="12.0760989"><ele>353.0</ele><time>2026-05-03T16:58:10.598Z</time></trkpt><trkpt lat="45.9336649" lon="12.076248"><ele>353.0</ele><time>2026-05-03T16:58:11.598Z</time></trkpt><trkpt lat="45.9337946" lon="12.0763915"><ele>353.0</ele><time>2026-05-03T16:58:12.599Z</time></trkpt><trkpt lat="45.9339197" lon="12.0765327"><ele>353.0</ele><time>2026-05-03T16:58:13.599Z</time></trkpt><trkpt lat="45.9340405" lon="12.0766718"><ele>355.6666666666667</ele><time>2026-05-03T16:58:14.599Z</time></trkpt><trkpt lat="45.9341591" lon="12.0768094"><ele>358.3333333333333</ele><time>2026-05-03T16:58:15.598Z</time></trkpt><trkpt lat="45.9342742" lon="12.0769495"><ele>361.0</ele><time>2026-05-03T16:58:16.598Z</time></trkpt><trkpt lat="45.9343855" lon="12.0770963"><ele>361.0</ele><time>2026-05-03T16:58:17.598Z</time></trkpt><trkpt lat="45.9344952" lon="12.0772438"><ele>361.0</ele><time>2026-05-03T16:58:18.599Z</time></trkpt><trkpt lat="45.9346063" lon="12.0773955"><ele>361.0</ele><time>2026-05-03T16:58:19.598Z</time></trkpt><trkpt lat="45.934717" lon="12.0775468"><ele>360.75</ele><time>2026-05-03T16:58:20.598Z</time></trkpt><trkpt lat="45.9348265" lon="12.0776919"><ele>360.5</ele><time>2026-05-03T16:58:21.599Z</time></trkpt><trkpt lat="45.9349345" lon="12.077839"><ele>360.25</ele><time>2026-05-03T16:58:22.598Z</time></trkpt><trkpt lat="45.9350419" lon="12.0779879"><ele>360.0</ele><time>2026-05-03T16:58:23.598Z</time></trkpt><trkpt lat="45.9351489" lon="12.078141"><ele>352.0</ele><time>2026-05-03T16:58:24.599Z</time></trkpt><trkpt lat="45.9352564" lon="12.0782923"><ele>344.0</ele><time>2026-05-03T16:58:25.599Z</time></trkpt><trkpt lat="45.9353627" lon="12.078437"><ele>336.0</ele><time>2026-05-03T16:58:26.598Z</time></trkpt><trkpt lat="45.9354722" lon="12.0785803"><ele>328.0</ele><time>2026-05-03T16:58:27.598Z</time></trkpt><trkpt lat="45.9355783" lon="12.078724"><ele>328.0</ele><time>2026-05-03T16:58:28.598Z</time></trkpt><trkpt lat="45.9356835" lon="12.0788727"><ele>328.0</ele><time>2026-05-03T16:58:29.598Z</time></trkpt><trkpt lat="45.9357897" lon="12.0790219"><ele>328.0</ele><time>2026-05-03T16:58:30.599Z</time></trkpt><trkpt lat="45.9358924" lon="12.0791703"><ele>328.0</ele><time>2026-05-03T16:58:31.599Z</time></trkpt><trkpt lat="45.9359979" lon="12.0793237"><ele>328.25</ele><time>2026-05-03T16:58:32.599Z</time></trkpt><trkpt lat="45.9360948" lon="12.0794784"><ele>328.5</ele><time>2026-05-03T16:58:33.598Z</time></trkpt><trkpt lat="45.9361874" lon="12.0796321"><ele>328.75</ele><time>2026-05-03T16:58:34.598Z</time></trkpt><trkpt lat="45.9362734" lon="12.0797905"><ele>329.0</ele><time>2026-05-03T16:58:35.599Z</time></trkpt><trkpt lat="45.9363523" lon="12.0799515"><ele>324.5</ele><time>2026-05-03T16:58:36.598Z</time></trkpt><trkpt lat="45.9364274" lon="12.0801092"><ele>320.0</ele><time>2026-05-03T16:58:37.599Z</time></trkpt><trkpt lat="45.9364981" lon="12.0802628"><ele>315.5</ele><time>2026-05-03T16:58:38.599Z</time></trkpt><trkpt lat="45.9365634" lon="12.0804167"><ele>311.0</ele><time>2026-05-03T16:58:39.599Z</time></trkpt><trkpt lat="45.93662" lon="12.0805794"><ele>311.0</ele><time>2026-05-03T16:58:40.599Z</time></trkpt><trkpt lat="45.9366635" lon="12.080757"><ele>311.0</ele><time>2026-05-03T16:58:41.599Z</time></trkpt><trkpt lat="45.9366975" lon="12.0809474"><ele>311.0</ele><time>2026-05-03T16:58:42.598Z</time></trkpt><trkpt lat="45.9367146" lon="12.0811401"><ele>311.0</ele><time>2026-05-03T16:58:43.598Z</time></trkpt><trkpt lat="45.9367211" lon="12.0813319"><ele>310.25</ele><time>2026-05-03T16:58:44.598Z</time></trkpt><trkpt lat="45.9367212" lon="12.0815203"><ele>309.5</ele><time>2026-05-03T16:58:45.598Z</time></trkpt><trkpt lat="45.9367239" lon="12.0817031"><ele>308.75</ele><time>2026-05-03T16:58:46.599Z</time></trkpt><trkpt lat="45.936735" lon="12.0818782"><ele>308.0</ele><time>2026-05-03T16:58:47.599Z</time></trkpt><trkpt lat="45.9367507" lon="12.0820531"><ele>306.25</ele><time>2026-05-03T16:58:48.599Z</time></trkpt><trkpt lat="45.9367705" lon="12.0822216"><ele>304.5</ele><time>2026-05-03T16:58:49.599Z</time></trkpt><trkpt lat="45.936802" lon="12.082386"><ele>302.75</ele><time>2026-05-03T16:58:50.599Z</time></trkpt><trkpt lat="45.9368446" lon="12.0825472"><ele>301.0</ele><time>2026-05-03T16:58:51.599Z</time></trkpt><trkpt lat="45.9369023" lon="12.0827078"><ele>299.75</ele><time>2026-05-03T16:58:52.598Z</time></trkpt><trkpt lat="45.9369745" lon="12.0828658"><ele>298.5</ele><time>2026-05-03T16:58:53.599Z</time></trkpt><trkpt lat="45.9370529" lon="12.0830262"><ele>297.25</ele><time>2026-05-03T16:58:54.599Z</time></trkpt><trkpt lat="45.9371406" lon="12.0831844"><ele>296.0</ele><time>2026-05-03T16:58:55.598Z</time></trkpt><trkpt lat="45.9372317" lon="12.0833375"><ele>294.5</ele><time>2026-05-03T16:58:56.598Z</time></trkpt><trkpt lat="45.9373152" lon="12.0834909"><ele>293.0</ele><time>2026-05-03T16:58:57.599Z</time></trkpt><trkpt lat="45.9373932" lon="12.0836416"><ele>291.5</ele><time>2026-05-03T16:58:58.599Z</time></trkpt><trkpt lat="45.937464" lon="12.0837959"><ele>290.0</ele><time>2026-05-03T16:58:59.599Z</time></trkpt><trkpt lat="45.9375264" lon="12.0839485"><ele>288.8</ele><time>2026-05-03T16:59:00.599Z</time></trkpt><trkpt lat="45.9375802" lon="12.0840983"><ele>287.6</ele><time>2026-05-03T16:59:01.599Z</time></trkpt><trkpt lat="45.9376337" lon="12.0842329"><ele>286.4</ele><time>2026-05-03T16:59:02.598Z</time></trkpt><trkpt lat="45.9376938" lon="12.0843495"><ele>285.2</ele><time>2026-05-03T16:59:03.599Z</time></trkpt><trkpt lat="45.9377606" lon="12.0844495"><ele>284.0</ele><time>2026-05-03T16:59:04.599Z</time></trkpt><trkpt lat="45.9378408" lon="12.0845326"><ele>284.0</ele><time>2026-05-03T16:59:05.599Z</time></trkpt><trkpt lat="45.9379304" lon="12.0845921"><ele>284.0</ele><time>2026-05-03T16:59:06.598Z</time></trkpt><trkpt lat="45.9380295" lon="12.0846318"><ele>284.0</ele><time>2026-05-03T16:59:07.598Z</time></trkpt><trkpt lat="45.9381349" lon="12.084659"><ele>284.0</ele><time>2026-05-03T16:59:08.599Z</time></trkpt><trkpt lat="45.9382404" lon="12.0846965"><ele>284.0</ele><time>2026-05-03T16:59:09.599Z</time></trkpt><trkpt lat="45.9383398" lon="12.0847372"><ele>284.59999999999997</ele><time>2026-05-03T16:59:10.599Z</time></trkpt><trkpt lat="45.9384327" lon="12.0847971"><ele>285.2</ele><time>2026-05-03T16:59:11.598Z</time></trkpt><trkpt lat="45.9385179" lon="12.0848718"><ele>285.79999999999995</ele><time>2026-05-03T16:59:12.599Z</time></trkpt><trkpt lat="45.9385937" lon="12.084974"><ele>286.4</ele><time>2026-05-03T16:59:13.599Z</time></trkpt><trkpt lat="45.9386679" lon="12.0850907"><ele>287.0</ele><time>2026-05-03T16:59:14.598Z</time></trkpt><trkpt lat="45.9387536" lon="12.0852047"><ele>284.5</ele><time>2026-05-03T16:59:15.598Z</time></trkpt><trkpt lat="45.9388538" lon="12.085313"><ele>282.0</ele><time>2026-05-03T16:59:16.599Z</time></trkpt><trkpt lat="45.9389632" lon="12.0854186"><ele>279.5</ele><time>2026-05-03T16:59:17.598Z</time></trkpt><trkpt lat="45.9390866" lon="12.0855285"><ele>277.0</ele><time>2026-05-03T16:59:18.598Z</time></trkpt><trkpt lat="45.9392132" lon="12.0856417"><ele>276.5</ele><time>2026-05-03T16:59:19.598Z</time></trkpt><trkpt lat="45.9393393" lon="12.0857549"><ele>276.0</ele><time>2026-05-03T16:59:20.598Z</time></trkpt><trkpt lat="45.9394641" lon="12.0858622"><ele>275.5</ele><time>2026-05-03T16:59:21.598Z</time></trkpt><trkpt lat="45.9395835" lon="12.0859677"><ele>275.0</ele><time>2026-05-03T16:59:22.598Z</time></trkpt><trkpt lat="45.939702" lon="12.0860754"><ele>273.5</ele><time>2026-05-03T16:59:23.598Z</time></trkpt><trkpt lat="45.9398158" lon="12.0861716"><ele>272.0</ele><time>2026-05-03T16:59:24.599Z</time></trkpt><trkpt lat="45.9399185" lon="12.0862748"><ele>270.5</ele><time>2026-05-03T16:59:25.598Z</time></trkpt><trkpt lat="45.9400133" lon="12.0863812"><ele>269.0</ele><time>2026-05-03T16:59:26.599Z</time></trkpt><trkpt lat="45.9401039" lon="12.0865039"><ele>268.75</ele><time>2026-05-03T16:59:27.599Z</time></trkpt><trkpt lat="45.9401887" lon="12.0866506"><ele>268.5</ele><time>2026-05-03T16:59:28.599Z</time></trkpt><trkpt lat="45.940265" lon="12.0868142"><ele>268.25</ele><time>2026-05-03T16:59:29.598Z</time></trkpt><trkpt lat="45.9403349" lon="12.0869879"><ele>268.0</ele><time>2026-05-03T16:59:30.599Z</time></trkpt><trkpt lat="45.9404057" lon="12.087163"><ele>268.0</ele><time>2026-05-03T16:59:31.598Z</time></trkpt><trkpt lat="45.9404774" lon="12.0873408"><ele>268.0</ele><time>2026-05-03T16:59:32.598Z</time></trkpt><trkpt lat="45.9405508" lon="12.0875194"><ele>268.0</ele><time>2026-05-03T16:59:33.599Z</time></trkpt><trkpt lat="45.9406242" lon="12.0876996"><ele>268.0</ele><time>2026-05-03T16:59:34.599Z</time></trkpt><trkpt lat="45.9406965" lon="12.0878745"><ele>267.5</ele><time>2026-05-03T16:59:35.599Z</time></trkpt><trkpt lat="45.9407738" lon="12.08805"><ele>267.0</ele><time>2026-05-03T16:59:36.599Z</time></trkpt><trkpt lat="45.9408557" lon="12.0882185"><ele>266.5</ele><time>2026-05-03T16:59:37.598Z</time></trkpt><trkpt lat="45.9409463" lon="12.0883817"><ele>266.0</ele><time>2026-05-03T16:59:38.599Z</time></trkpt><trkpt lat="45.9410356" lon="12.0885411"><ele>266.0</ele><time>2026-05-03T16:59:39.598Z</time></trkpt><trkpt lat="45.9411238" lon="12.0886935"><ele>266.0</ele><time>2026-05-03T16:59:40.598Z</time></trkpt><trkpt lat="45.9412152" lon="12.0888304"><ele>266.0</ele><time>2026-05-03T16:59:41.599Z</time></trkpt><trkpt lat="45.9413011" lon="12.0889601"><ele>266.0</ele><time>2026-05-03T16:59:42.598Z</time></trkpt><trkpt lat="45.9413873" lon="12.089091"><ele>266.0</ele><time>2026-05-03T16:59:43.598Z</time></trkpt><trkpt lat="45.9414717" lon="12.0892277"><ele>266.0</ele><time>2026-05-03T16:59:44.599Z</time></trkpt><trkpt lat="45.9415566" lon="12.0893743"><ele>266.0</ele><time>2026-05-03T16:59:45.598Z</time></trkpt><trkpt lat="45.9416377" lon="12.089523"><ele>266.0</ele><time>2026-05-03T16:59:46.598Z</time></trkpt><trkpt lat="45.9417161" lon="12.0896786"><ele>266.0</ele><time>2026-05-03T16:59:47.599Z</time></trkpt><trkpt lat="45.9417946" lon="12.0898251"><ele>266.0</ele><time>2026-05-03T16:59:48.598Z</time></trkpt><trkpt lat="45.9418759" lon="12.0899711"><ele>266.0</ele><time>2026-05-03T16:59:49.599Z</time></trkpt><trkpt lat="45.9419588" lon="12.0901172"><ele>266.0</ele><time>2026-05-03T16:59:50.599Z</time></trkpt><trkpt lat="45.9420453" lon="12.0902555"><ele>264.75</ele><time>2026-05-03T16:59:51.599Z</time></trkpt><trkpt lat="45.942132" lon="12.0903962"><ele>263.5</ele><time>2026-05-03T16:59:52.599Z</time></trkpt><trkpt lat="45.9422183" lon="12.0905377"><ele>262.25</ele><time>2026-05-03T16:59:53.598Z</time></trkpt><trkpt lat="45.9423072" lon="12.090679"><ele>261.0</ele><time>2026-05-03T16:59:54.599Z</time></trkpt><trkpt lat="45.9423992" lon="12.0908174"><ele>261.25</ele><time>2026-05-03T16:59:55.599Z</time></trkpt><trkpt lat="45.9424912" lon="12.0909592"><ele>261.5</ele><time>2026-05-03T16:59:56.599Z</time></trkpt><trkpt lat="45.9425827" lon="12.0910988"><ele>261.75</ele><time>2026-05-03T16:59:57.599Z</time></trkpt><trkpt lat="45.9426748" lon="12.0912395"><ele>262.0</ele><time>2026-05-03T16:59:58.599Z</time></trkpt><trkpt lat="45.9427631" lon="12.0913823"><ele>262.0</ele><time>2026-05-03T16:59:59.599Z</time></trkpt><trkpt lat="45.9428543" lon="12.0915299"><ele>262.0</ele><time>2026-05-03T17:00:00.598Z</time></trkpt><trkpt lat="45.9429464" lon="12.0916765"><ele>262.0</ele><time>2026-05-03T17:00:01.598Z</time></trkpt><trkpt lat="45.9430384" lon="12.0918203"><ele>262.0</ele><time>2026-05-03T17:00:02.599Z</time></trkpt><trkpt lat="45.9431279" lon="12.0919701"><ele>261.5</ele><time>2026-05-03T17:00:03.599Z</time></trkpt><trkpt lat="45.9432249" lon="12.0921177"><ele>261.0</ele><time>2026-05-03T17:00:04.598Z</time></trkpt><trkpt lat="45.9433182" lon="12.0922692"><ele>260.5</ele><time>2026-05-03T17:00:05.598Z</time></trkpt><trkpt lat="45.9434117" lon="12.0924236"><ele>260.0</ele><time>2026-05-03T17:00:06.598Z</time></trkpt><trkpt lat="45.9435038" lon="12.0925736"><ele>259.75</ele><time>2026-05-03T17:00:07.599Z</time></trkpt><trkpt lat="45.943593" lon="12.092725"><ele>259.5</ele><time>2026-05-03T17:00:08.598Z</time></trkpt><trkpt lat="45.9436857" lon="12.0928708"><ele>259.25</ele><time>2026-05-03T17:00:09.599Z</time></trkpt><trkpt lat="45.9437746" lon="12.0930146"><ele>259.0</ele><time>2026-05-03T17:00:10.599Z</time></trkpt><trkpt lat="45.9438672" lon="12.0931427"><ele>258.59999999999997</ele><time>2026-05-03T17:00:11.599Z</time></trkpt><trkpt lat="45.9439619" lon="12.0932607"><ele>258.2</ele><time>2026-05-03T17:00:12.598Z</time></trkpt><trkpt lat="45.9440504" lon="12.0933669"><ele>257.79999999999995</ele><time>2026-05-03T17:00:13.599Z</time></trkpt><trkpt lat="45.9441338" lon="12.0934658"><ele>257.4</ele><time>2026-05-03T17:00:14.599Z</time></trkpt><trkpt lat="45.9442087" lon="12.0935492"><ele>257.0</ele><time>2026-05-03T17:00:15.598Z</time></trkpt><trkpt lat="45.9442704" lon="12.0936465"><ele>258.2</ele><time>2026-05-03T17:00:16.598Z</time></trkpt><trkpt lat="45.9443146" lon="12.0937597"><ele>259.4</ele><time>2026-05-03T17:00:17.598Z</time></trkpt><trkpt lat="45.9443405" lon="12.0938844"><ele>260.6</ele><time>2026-05-03T17:00:18.599Z</time></trkpt><trkpt lat="45.9443535" lon="12.0940227"><ele>261.8</ele><time>2026-05-03T17:00:19.598Z</time></trkpt><trkpt lat="45.9443598" lon="12.0941731"><ele>263.0</ele><time>2026-05-03T17:00:20.599Z</time></trkpt><trkpt lat="45.9443586" lon="12.0943264"><ele>263.0</ele><time>2026-05-03T17:00:21.599Z</time></trkpt><trkpt lat="45.9443591" lon="12.0944823"><ele>263.0</ele><time>2026-05-03T17:00:22.598Z</time></trkpt><trkpt lat="45.9443635" lon="12.0946386"><ele>263.0</ele><time>2026-05-03T17:00:23.598Z</time></trkpt><trkpt lat="45.9443773" lon="12.0947975"><ele>263.0</ele><time>2026-05-03T17:00:24.599Z</time></trkpt><trkpt lat="45.9443945" lon="12.0949575"><ele>263.0</ele><time>2026-05-03T17:00:25.599Z</time></trkpt><trkpt lat="45.9444247" lon="12.0951238"><ele>263.0</ele><time>2026-05-03T17:00:26.598Z</time></trkpt><trkpt lat="45.9444656" lon="12.0952952"><ele>263.0</ele><time>2026-05-03T17:00:27.598Z</time></trkpt><trkpt lat="45.9445159" lon="12.0954756"><ele>263.0</ele><time>2026-05-03T17:00:28.599Z</time></trkpt><trkpt lat="45.9445695" lon="12.0956608"><ele>263.0</ele><time>2026-05-03T17:00:29.598Z</time></trkpt><trkpt lat="45.9446281" lon="12.0958511"><ele>262.6666666666667</ele><time>2026-05-03T17:00:30.598Z</time></trkpt><trkpt lat="45.944683" lon="12.096049"><ele>262.3333333333333</ele><time>2026-05-03T17:00:31.599Z</time></trkpt><trkpt lat="45.9447417" lon="12.0962489"><ele>262.0</ele><time>2026-05-03T17:00:32.598Z</time></trkpt><trkpt lat="45.9448022" lon="12.0964502"><ele>261.3333333333333</ele><time>2026-05-03T17:00:33.598Z</time></trkpt><trkpt lat="45.9448632" lon="12.0966499"><ele>260.6666666666667</ele><time>2026-05-03T17:00:34.599Z</time></trkpt><trkpt lat="45.9449254" lon="12.0968492"><ele>260.0</ele><time>2026-05-03T17:00:35.598Z</time></trkpt><trkpt lat="45.9449865" lon="12.0970488"><ele>261.33333333333337</ele><time>2026-05-03T17:00:36.599Z</time></trkpt><trkpt lat="45.9450488" lon="12.0972523"><ele>262.6666666666667</ele><time>2026-05-03T17:00:37.598Z</time></trkpt><trkpt lat="45.9451095" lon="12.0974577"><ele>264.0</ele><time>2026-05-03T17:00:38.598Z</time></trkpt><trkpt lat="45.9451698" lon="12.0976551"><ele>264.0</ele><time>2026-05-03T17:00:39.598Z</time></trkpt><trkpt lat="45.9452285" lon="12.0978535"><ele>264.0</ele><time>2026-05-03T17:00:40.599Z</time></trkpt><trkpt lat="45.945284" lon="12.0980491"><ele>264.0</ele><time>2026-05-03T17:00:41.598Z</time></trkpt><trkpt lat="45.9453436" lon="12.0982443"><ele>264.0</ele><time>2026-05-03T17:00:42.598Z</time></trkpt><trkpt lat="45.9454014" lon="12.0984329"><ele>262.75</ele><time>2026-05-03T17:00:43.598Z</time></trkpt><trkpt lat="45.9454567" lon="12.0986241"><ele>261.5</ele><time>2026-05-03T17:00:44.599Z</time></trkpt><trkpt lat="45.9455135" lon="12.0988154"><ele>260.25</ele><time>2026-05-03T17:00:45.598Z</time></trkpt><trkpt lat="45.9455704" lon="12.0990081"><ele>259.0</ele><time>2026-05-03T17:00:46.598Z</time></trkpt><trkpt lat="45.945626" lon="12.0992"><ele>258.0</ele><time>2026-05-03T17:00:47.599Z</time></trkpt><trkpt lat="45.9456826" lon="12.0993953"><ele>257.0</ele><time>2026-05-03T17:00:48.598Z</time></trkpt><trkpt lat="45.9457386" lon="12.0995874"><ele>256.0</ele><time>2026-05-03T17:00:49.598Z</time></trkpt><trkpt lat="45.9457979" lon="12.0997827"><ele>255.0</ele><time>2026-05-03T17:00:50.599Z</time></trkpt><trkpt lat="45.9458574" lon="12.0999739"><ele>255.66666666666669</ele><time>2026-05-03T17:00:51.598Z</time></trkpt><trkpt lat="45.9459184" lon="12.1001696"><ele>256.33333333333337</ele><time>2026-05-03T17:00:52.598Z</time></trkpt><trkpt lat="45.9459777" lon="12.1003702"><ele>257.0</ele><time>2026-05-03T17:00:53.598Z</time></trkpt><trkpt lat="45.9460376" lon="12.1005699"><ele>255.0</ele><time>2026-05-03T17:00:54.598Z</time></trkpt><trkpt lat="45.9460935" lon="12.1007793"><ele>253.0</ele><time>2026-05-03T17:00:55.598Z</time></trkpt><trkpt lat="45.9461518" lon="12.1009848"><ele>251.0</ele><time>2026-05-03T17:00:56.599Z</time></trkpt><trkpt lat="45.9462068" lon="12.1011889"><ele>251.0</ele><time>2026-05-03T17:00:57.598Z</time></trkpt><trkpt lat="45.9462654" lon="12.1013905"><ele>251.0</ele><time>2026-05-03T17:00:58.598Z</time></trkpt><trkpt lat="45.946325" lon="12.1015923"><ele>251.0</ele><time>2026-05-03T17:00:59.598Z</time></trkpt><trkpt lat="45.9463811" lon="12.1017925"><ele>249.33333333333334</ele><time>2026-05-03T17:01:00.598Z</time></trkpt><trkpt lat="45.946441" lon="12.1019954"><ele>247.66666666666669</ele><time>2026-05-03T17:01:01.598Z</time></trkpt><trkpt lat="45.9464956" lon="12.1021981"><ele>246.0</ele><time>2026-05-03T17:01:02.598Z</time></trkpt><trkpt lat="45.9465529" lon="12.1023984"><ele>246.25</ele><time>2026-05-03T17:01:03.599Z</time></trkpt><trkpt lat="45.9466084" lon="12.1025949"><ele>246.5</ele><time>2026-05-03T17:01:04.599Z</time></trkpt><trkpt lat="45.9466613" lon="12.1027912"><ele>246.75</ele><time>2026-05-03T17:01:05.599Z</time></trkpt><trkpt lat="45.9467145" lon="12.1029847"><ele>247.0</ele><time>2026-05-03T17:01:06.599Z</time></trkpt><trkpt lat="45.9467667" lon="12.1031749"><ele>245.5</ele><time>2026-05-03T17:01:07.599Z</time></trkpt><trkpt lat="45.9468165" lon="12.1033664"><ele>244.0</ele><time>2026-05-03T17:01:08.599Z</time></trkpt><trkpt lat="45.9468723" lon="12.1035531"><ele>242.5</ele><time>2026-05-03T17:01:09.599Z</time></trkpt><trkpt lat="45.9469356" lon="12.1037386"><ele>241.0</ele><time>2026-05-03T17:01:10.598Z</time></trkpt><trkpt lat="45.9470036" lon="12.1039227"><ele>239.33333333333331</ele><time>2026-05-03T17:01:11.598Z</time></trkpt><trkpt lat="45.9470788" lon="12.1041088"><ele>237.66666666666669</ele><time>2026-05-03T17:01:12.599Z</time></trkpt><trkpt lat="45.9471593" lon="12.1042944"><ele>236.0</ele><time>2026-05-03T17:01:13.599Z</time></trkpt><trkpt lat="45.9472427" lon="12.1044824"><ele>236.0</ele><time>2026-05-03T17:01:14.599Z</time></trkpt><trkpt lat="45.9473329" lon="12.1046653"><ele>236.0</ele><time>2026-05-03T17:01:15.598Z</time></trkpt><trkpt lat="45.9474227" lon="12.1048493"><ele>236.0</ele><time>2026-05-03T17:01:16.598Z</time></trkpt><trkpt lat="45.947511" lon="12.1050291"><ele>235.0</ele><time>2026-05-03T17:01:17.599Z</time></trkpt><trkpt lat="45.947601" lon="12.1052074"><ele>234.0</ele><time>2026-05-03T17:01:18.599Z</time></trkpt><trkpt lat="45.9476869" lon="12.1053827"><ele>233.0</ele><time>2026-05-03T17:01:19.598Z</time></trkpt><trkpt lat="45.9477735" lon="12.1055545"><ele>233.0</ele><time>2026-05-03T17:01:20.599Z</time></trkpt><trkpt lat="45.9478583" lon="12.1057213"><ele>233.0</ele><time>2026-05-03T17:01:21.598Z</time></trkpt><trkpt lat="45.9479447" lon="12.1058881"><ele>233.0</ele><time>2026-05-03T17:01:22.598Z</time></trkpt><trkpt lat="45.9480274" lon="12.1060534"><ele>233.0</ele><time>2026-05-03T17:01:23.598Z</time></trkpt><trkpt lat="45.9481117" lon="12.1062127"><ele>231.75</ele><time>2026-05-03T17:01:24.598Z</time></trkpt><trkpt lat="45.9482017" lon="12.1063689"><ele>230.5</ele><time>2026-05-03T17:01:25.599Z</time></trkpt><trkpt lat="45.9482946" lon="12.1065237"><ele>229.25</ele><time>2026-05-03T17:01:26.599Z</time></trkpt><trkpt lat="45.9483966" lon="12.1066733"><ele>228.0</ele><time>2026-05-03T17:01:27.599Z</time></trkpt><trkpt lat="45.9485052" lon="12.1068202"><ele>227.0</ele><time>2026-05-03T17:01:28.599Z</time></trkpt><trkpt lat="45.9486208" lon="12.1069627"><ele>226.0</ele><time>2026-05-03T17:01:29.599Z</time></trkpt><trkpt lat="45.9487424" lon="12.1071042"><ele>225.0</ele><time>2026-05-03T17:01:30.599Z</time></trkpt><trkpt lat="45.9488633" lon="12.1072447"><ele>225.0</ele><time>2026-05-03T17:01:31.599Z</time></trkpt><trkpt lat="45.9489834" lon="12.1073821"><ele>225.0</ele><time>2026-05-03T17:01:32.598Z</time></trkpt><trkpt lat="45.949102" lon="12.1075197"><ele>225.0</ele><time>2026-05-03T17:01:33.598Z</time></trkpt><trkpt lat="45.9492202" lon="12.1076565"><ele>222.66666666666669</ele><time>2026-05-03T17:01:34.599Z</time></trkpt><trkpt lat="45.9493377" lon="12.1077926"><ele>220.33333333333334</ele><time>2026-05-03T17:01:35.599Z</time></trkpt><trkpt lat="45.9494567" lon="12.1079257"><ele>218.0</ele><time>2026-05-03T17:01:36.598Z</time></trkpt><trkpt lat="45.949573" lon="12.1080584"><ele>218.0</ele><time>2026-05-03T17:01:37.598Z</time></trkpt><trkpt lat="45.9496873" lon="12.10819"><ele>218.0</ele><time>2026-05-03T17:01:38.599Z</time></trkpt><trkpt lat="45.9498029" lon="12.1083198"><ele>218.0</ele><time>2026-05-03T17:01:39.599Z</time></trkpt><trkpt lat="45.9499172" lon="12.1084516"><ele>218.0</ele><time>2026-05-03T17:01:40.599Z</time></trkpt><trkpt lat="45.9500303" lon="12.1085809"><ele>218.0</ele><time>2026-05-03T17:01:41.598Z</time></trkpt><trkpt lat="45.9501433" lon="12.1087065"><ele>218.0</ele><time>2026-05-03T17:01:42.598Z</time></trkpt><trkpt lat="45.9502534" lon="12.1088362"><ele>218.0</ele><time>2026-05-03T17:01:43.598Z</time></trkpt><trkpt lat="45.9503624" lon="12.1089673"><ele>218.0</ele><time>2026-05-03T17:01:44.599Z</time></trkpt><trkpt lat="45.9504662" lon="12.1091001"><ele>217.25</ele><time>2026-05-03T17:01:45.598Z</time></trkpt><trkpt lat="45.9505629" lon="12.1092421"><ele>216.5</ele><time>2026-05-03T17:01:46.598Z</time></trkpt><trkpt lat="45.9506518" lon="12.109398"><ele>215.75</ele><time>2026-05-03T17:01:47.598Z</time></trkpt><trkpt lat="45.9507394" lon="12.1095681"><ele>215.0</ele><time>2026-05-03T17:01:48.598Z</time></trkpt><trkpt lat="45.9508201" lon="12.1097458"><ele>215.75</ele><time>2026-05-03T17:01:49.598Z</time></trkpt><trkpt lat="45.9509023" lon="12.1099243"><ele>216.5</ele><time>2026-05-03T17:01:50.599Z</time></trkpt><trkpt lat="45.9509838" lon="12.1101047"><ele>217.25</ele><time>2026-05-03T17:01:51.598Z</time></trkpt><trkpt lat="45.9510624" lon="12.1102838"><ele>218.0</ele><time>2026-05-03T17:01:52.598Z</time></trkpt><trkpt lat="45.9511391" lon="12.1104569"><ele>218.0</ele><time>2026-05-03T17:01:53.599Z</time></trkpt><trkpt lat="45.9512101" lon="12.1106216"><ele>218.0</ele><time>2026-05-03T17:01:54.599Z</time></trkpt><trkpt lat="45.9512789" lon="12.1107818"><ele>218.0</ele><time>2026-05-03T17:01:55.599Z</time></trkpt><trkpt lat="45.9513476" lon="12.1109406"><ele>218.0</ele><time>2026-05-03T17:01:56.599Z</time></trkpt><trkpt lat="45.9514124" lon="12.1110964"><ele>216.75</ele><time>2026-05-03T17:01:57.598Z</time></trkpt><trkpt lat="45.9514725" lon="12.1112654"><ele>215.5</ele><time>2026-05-03T17:01:58.598Z</time></trkpt><trkpt lat="45.9515221" lon="12.1114452"><ele>214.25</ele><time>2026-05-03T17:01:59.598Z</time></trkpt><trkpt lat="45.9515633" lon="12.1116346"><ele>213.0</ele><time>2026-05-03T17:02:00.598Z</time></trkpt><trkpt lat="45.9515934" lon="12.1118364"><ele>211.66666666666669</ele><time>2026-05-03T17:02:01.598Z</time></trkpt><trkpt lat="45.9516162" lon="12.1120487"><ele>210.33333333333334</ele><time>2026-05-03T17:02:02.598Z</time></trkpt><trkpt lat="45.9516344" lon="12.1122657"><ele>209.0</ele><time>2026-05-03T17:02:03.598Z</time></trkpt><trkpt lat="45.9516482" lon="12.112486"><ele>208.0</ele><time>2026-05-03T17:02:04.598Z</time></trkpt><trkpt lat="45.951665" lon="12.1127105"><ele>207.0</ele><time>2026-05-03T17:02:05.599Z</time></trkpt><trkpt lat="45.9516835" lon="12.1129393"><ele>206.0</ele><time>2026-05-03T17:02:06.599Z</time></trkpt><trkpt lat="45.9516989" lon="12.1131702"><ele>206.33333333333334</ele><time>2026-05-03T17:02:07.599Z</time></trkpt><trkpt lat="45.951715" lon="12.1134023"><ele>206.66666666666669</ele><time>2026-05-03T17:02:08.599Z</time></trkpt><trkpt lat="45.9517298" lon="12.1136286"><ele>207.0</ele><time>2026-05-03T17:02:09.599Z</time></trkpt><trkpt lat="45.9517436" lon="12.1138499"><ele>207.0</ele><time>2026-05-03T17:02:10.598Z</time></trkpt><trkpt lat="45.9517542" lon="12.1140681"><ele>207.0</ele><time>2026-05-03T17:02:11.598Z</time></trkpt><trkpt lat="45.951767" lon="12.1142805"><ele>207.0</ele><time>2026-05-03T17:02:12.599Z</time></trkpt><trkpt lat="45.9517788" lon="12.114493"><ele>207.0</ele><time>2026-05-03T17:02:13.598Z</time></trkpt><trkpt lat="45.9517969" lon="12.1147014"><ele>205.0</ele><time>2026-05-03T17:02:14.599Z</time></trkpt><trkpt lat="45.9518181" lon="12.1149104"><ele>203.0</ele><time>2026-05-03T17:02:15.599Z</time></trkpt><trkpt lat="45.9518475" lon="12.115119"><ele>201.0</ele><time>2026-05-03T17:02:16.598Z</time></trkpt><trkpt lat="45.9518869" lon="12.1153219"><ele>199.0</ele><time>2026-05-03T17:02:17.599Z</time></trkpt><trkpt lat="45.9519362" lon="12.1155219"><ele>199.0</ele><time>2026-05-03T17:02:18.599Z</time></trkpt><trkpt lat="45.9519933" lon="12.1157156"><ele>199.0</ele><time>2026-05-03T17:02:19.599Z</time></trkpt><trkpt lat="45.9520582" lon="12.1159046"><ele>199.0</ele><time>2026-05-03T17:02:20.599Z</time></trkpt><trkpt lat="45.9521305" lon="12.1160923"><ele>199.0</ele><time>2026-05-03T17:02:21.599Z</time></trkpt><trkpt lat="45.9522106" lon="12.1162748"><ele>198.0</ele><time>2026-05-03T17:02:22.599Z</time></trkpt><trkpt lat="45.9522978" lon="12.1164537"><ele>197.0</ele><time>2026-05-03T17:02:23.598Z</time></trkpt><trkpt lat="45.952388" lon="12.1166353"><ele>196.0</ele><time>2026-05-03T17:02:24.598Z</time></trkpt><trkpt lat="45.9524742" lon="12.1168139"><ele>195.33333333333331</ele><time>2026-05-03T17:02:25.599Z</time></trkpt><trkpt lat="45.9525605" lon="12.116997"><ele>194.66666666666669</ele><time>2026-05-03T17:02:26.598Z</time></trkpt><trkpt lat="45.9526504" lon="12.1171774"><ele>194.0</ele><time>2026-05-03T17:02:27.599Z</time></trkpt><trkpt lat="45.9527379" lon="12.1173529"><ele>194.0</ele><time>2026-05-03T17:02:28.598Z</time></trkpt><trkpt lat="45.9528277" lon="12.1175236"><ele>194.0</ele><time>2026-05-03T17:02:29.599Z</time></trkpt><trkpt lat="45.9529147" lon="12.1176942"><ele>194.0</ele><time>2026-05-03T17:02:30.598Z</time></trkpt><trkpt lat="45.9530012" lon="12.1178585"><ele>194.0</ele><time>2026-05-03T17:02:31.599Z</time></trkpt><trkpt lat="45.9530927" lon="12.1180159"><ele>194.0</ele><time>2026-05-03T17:02:32.598Z</time></trkpt><trkpt lat="45.9531829" lon="12.1181689"><ele>194.0</ele><time>2026-05-03T17:02:33.598Z</time></trkpt><trkpt lat="45.9532859" lon="12.1182955"><ele>194.0</ele><time>2026-05-03T17:02:34.599Z</time></trkpt><trkpt lat="45.9533809" lon="12.1184351"><ele>194.0</ele><time>2026-05-03T17:02:35.599Z</time></trkpt><trkpt lat="45.9534718" lon="12.1185896"><ele>195.5</ele><time>2026-05-03T17:02:36.599Z</time></trkpt><trkpt lat="45.9535518" lon="12.1187542"><ele>197.0</ele><time>2026-05-03T17:02:37.598Z</time></trkpt><trkpt lat="45.953625" lon="12.1189199"><ele>198.5</ele><time>2026-05-03T17:02:38.598Z</time></trkpt><trkpt lat="45.9537062" lon="12.1190829"><ele>200.0</ele><time>2026-05-03T17:02:39.598Z</time></trkpt><trkpt lat="45.9538023" lon="12.1192372"><ele>200.0</ele><time>2026-05-03T17:02:40.598Z</time></trkpt><trkpt lat="45.9539125" lon="12.1193831"><ele>200.0</ele><time>2026-05-03T17:02:41.598Z</time></trkpt><trkpt lat="45.9540302" lon="12.1195239"><ele>200.0</ele><time>2026-05-03T17:02:42.598Z</time></trkpt><trkpt lat="45.9541549" lon="12.1196648"><ele>201.0</ele><time>2026-05-03T17:02:43.598Z</time></trkpt><trkpt lat="45.9542843" lon="12.1198024"><ele>202.0</ele><time>2026-05-03T17:02:44.598Z</time></trkpt><trkpt lat="45.9544131" lon="12.1199387"><ele>203.0</ele><time>2026-05-03T17:02:45.599Z</time></trkpt><trkpt lat="45.9545439" lon="12.120072"><ele>201.0</ele><time>2026-05-03T17:02:46.599Z</time></trkpt><trkpt lat="45.9546761" lon="12.120205"><ele>199.0</ele><time>2026-05-03T17:02:47.599Z</time></trkpt><trkpt lat="45.9548067" lon="12.1203378"><ele>197.0</ele><time>2026-05-03T17:02:48.599Z</time></trkpt><trkpt lat="45.9549341" lon="12.1204676"><ele>197.66666666666669</ele><time>2026-05-03T17:02:49.598Z</time></trkpt><trkpt lat="45.9550609" lon="12.120594"><ele>198.33333333333331</ele><time>2026-05-03T17:02:50.599Z</time></trkpt><trkpt lat="45.9551931" lon="12.1207162"><ele>199.0</ele><time>2026-05-03T17:02:51.598Z</time></trkpt><trkpt lat="45.9553228" lon="12.120838"><ele>199.0</ele><time>2026-05-03T17:02:52.598Z</time></trkpt><trkpt lat="45.9554548" lon="12.1209616"><ele>199.0</ele><time>2026-05-03T17:02:53.598Z</time></trkpt><trkpt lat="45.9555835" lon="12.121082"><ele>199.0</ele><time>2026-05-03T17:02:54.599Z</time></trkpt><trkpt lat="45.9557117" lon="12.1212015"><ele>199.0</ele><time>2026-05-03T17:02:55.599Z</time></trkpt><trkpt lat="45.9558408" lon="12.1213205"><ele>199.0</ele><time>2026-05-03T17:02:56.598Z</time></trkpt><trkpt lat="45.9559678" lon="12.1214406"><ele>199.0</ele><time>2026-05-03T17:02:57.599Z</time></trkpt><trkpt lat="45.9560979" lon="12.1215621"><ele>199.66666666666666</ele><time>2026-05-03T17:02:58.599Z</time></trkpt><trkpt lat="45.9562276" lon="12.1216847"><ele>200.33333333333331</ele><time>2026-05-03T17:02:59.599Z</time></trkpt><trkpt lat="45.9563578" lon="12.1218029"><ele>201.0</ele><time>2026-05-03T17:03:00.599Z</time></trkpt><trkpt lat="45.9564869" lon="12.1219268"><ele>201.0</ele><time>2026-05-03T17:03:01.599Z</time></trkpt><trkpt lat="45.9566165" lon="12.1220488"><ele>201.0</ele><time>2026-05-03T17:03:02.599Z</time></trkpt><trkpt lat="45.9567473" lon="12.1221701"><ele>201.0</ele><time>2026-05-03T17:03:03.598Z</time></trkpt><trkpt lat="45.9568769" lon="12.1222881"><ele>201.5</ele><time>2026-05-03T17:03:04.599Z</time></trkpt><trkpt lat="45.9569958" lon="12.1223953"><ele>202.0</ele><time>2026-05-03T17:03:05.598Z</time></trkpt><trkpt lat="45.9571063" lon="12.1224948"><ele>202.5</ele><time>2026-05-03T17:03:06.598Z</time></trkpt><trkpt lat="45.9572025" lon="12.1225883"><ele>203.0</ele><time>2026-05-03T17:03:07.598Z</time></trkpt><trkpt lat="45.9572825" lon="12.1226684"><ele>203.00000000000003</ele><time>2026-05-03T17:03:08.598Z</time></trkpt><trkpt lat="45.9573534" lon="12.1227398"><ele>203.0</ele><time>2026-05-03T17:03:09.599Z</time></trkpt><trkpt lat="45.9574083" lon="12.1228026"><ele>203.0</ele><time>2026-05-03T17:03:10.598Z</time></trkpt><trkpt lat="45.957471" lon="12.1229104"><ele>203.0</ele><time>2026-05-03T17:03:12.598Z</time></trkpt><trkpt lat="45.9574952" lon="12.1229952"><ele>203.00000000000003</ele><time>2026-05-03T17:03:14.599Z</time></trkpt><trkpt lat="45.9575126" lon="12.1230823"><ele>203.0</ele><time>2026-05-03T17:03:18.599Z</time></trkpt><trkpt lat="45.9575879" lon="12.123186"><ele>203.2</ele><time>2026-05-03T17:04:05.599Z</time></trkpt><trkpt lat="45.9576487" lon="12.1232305"><ele>203.4</ele><time>2026-05-03T17:04:06.599Z</time></trkpt><trkpt lat="45.9577279" lon="12.1232698"><ele>203.6</ele><time>2026-05-03T17:04:07.598Z</time></trkpt><trkpt lat="45.9578225" lon="12.1233132"><ele>203.79999999999998</ele><time>2026-05-03T17:04:08.598Z</time></trkpt><trkpt lat="45.9579333" lon="12.1233716"><ele>204.0</ele><time>2026-05-03T17:04:09.599Z</time></trkpt><trkpt lat="45.9580453" lon="12.1234423"><ele>204.75</ele><time>2026-05-03T17:04:10.598Z</time></trkpt><trkpt lat="45.9581661" lon="12.1235229"><ele>205.5</ele><time>2026-05-03T17:04:11.598Z</time></trkpt><trkpt lat="45.9582841" lon="12.123616"><ele>206.25</ele><time>2026-05-03T17:04:12.598Z</time></trkpt><trkpt lat="45.9583999" lon="12.1237248"><ele>207.0</ele><time>2026-05-03T17:04:13.599Z</time></trkpt><trkpt lat="45.9585091" lon="12.1238403"><ele>207.25</ele><time>2026-05-03T17:04:14.598Z</time></trkpt><trkpt lat="45.9586148" lon="12.1239643"><ele>207.5</ele><time>2026-05-03T17:04:15.598Z</time></trkpt><trkpt lat="45.9587195" lon="12.1240948"><ele>207.75</ele><time>2026-05-03T17:04:16.599Z</time></trkpt><trkpt lat="45.958818" lon="12.1242259"><ele>208.0</ele><time>2026-05-03T17:04:17.599Z</time></trkpt><trkpt lat="45.9589126" lon="12.1243627"><ele>209.0</ele><time>2026-05-03T17:04:18.598Z</time></trkpt><trkpt lat="45.9590053" lon="12.1245068"><ele>210.0</ele><time>2026-05-03T17:04:19.599Z</time></trkpt><trkpt lat="45.9590902" lon="12.1246562"><ele>211.0</ele><time>2026-05-03T17:04:20.599Z</time></trkpt><trkpt lat="45.9591694" lon="12.1248169"><ele>212.0</ele><time>2026-05-03T17:04:21.598Z</time></trkpt><trkpt lat="45.959243" lon="12.1249865"><ele>212.5</ele><time>2026-05-03T17:04:22.598Z</time></trkpt><trkpt lat="45.959315" lon="12.1251565"><ele>213.0</ele><time>2026-05-03T17:04:23.599Z</time></trkpt><trkpt lat="45.9593846" lon="12.125331"><ele>213.5</ele><time>2026-05-03T17:04:24.599Z</time></trkpt><trkpt lat="45.9594582" lon="12.1255111"><ele>214.0</ele><time>2026-05-03T17:04:25.599Z</time></trkpt><trkpt lat="45.9595228" lon="12.1256952"><ele>214.25</ele><time>2026-05-03T17:04:26.599Z</time></trkpt><trkpt lat="45.9595877" lon="12.1258803"><ele>214.5</ele><time>2026-05-03T17:04:27.599Z</time></trkpt><trkpt lat="45.9596511" lon="12.1260666"><ele>214.75</ele><time>2026-05-03T17:04:28.599Z</time></trkpt><trkpt lat="45.9597139" lon="12.1262497"><ele>215.0</ele><time>2026-05-03T17:04:29.598Z</time></trkpt><trkpt lat="45.9597777" lon="12.1264338"><ele>214.75</ele><time>2026-05-03T17:04:30.599Z</time></trkpt><trkpt lat="45.9598431" lon="12.1266232"><ele>214.5</ele><time>2026-05-03T17:04:31.599Z</time></trkpt><trkpt lat="45.9599074" lon="12.1268097"><ele>214.25</ele><time>2026-05-03T17:04:32.598Z</time></trkpt><trkpt lat="45.9599697" lon="12.1269933"><ele>214.0</ele><time>2026-05-03T17:04:33.598Z</time></trkpt><trkpt lat="45.9600339" lon="12.1271722"><ele>214.5</ele><time>2026-05-03T17:04:34.599Z</time></trkpt><trkpt lat="45.9601032" lon="12.1273474"><ele>215.0</ele><time>2026-05-03T17:04:35.599Z</time></trkpt><trkpt lat="45.960178" lon="12.1275167"><ele>215.5</ele><time>2026-05-03T17:04:36.599Z</time></trkpt><trkpt lat="45.9602605" lon="12.1276803"><ele>216.0</ele><time>2026-05-03T17:04:37.598Z</time></trkpt><trkpt lat="45.9603459" lon="12.1278438"><ele>216.5</ele><time>2026-05-03T17:04:38.598Z</time></trkpt><trkpt lat="45.9604347" lon="12.1280004"><ele>217.0</ele><time>2026-05-03T17:04:39.599Z</time></trkpt><trkpt lat="45.9605283" lon="12.1281555"><ele>217.5</ele><time>2026-05-03T17:04:40.598Z</time></trkpt><trkpt lat="45.9606308" lon="12.128309"><ele>218.0</ele><time>2026-05-03T17:04:41.598Z</time></trkpt><trkpt lat="45.9607417" lon="12.1284626"><ele>218.0</ele><time>2026-05-03T17:04:42.598Z</time></trkpt><trkpt lat="45.9608532" lon="12.1286128"><ele>218.0</ele><time>2026-05-03T17:04:43.599Z</time></trkpt><trkpt lat="45.9609637" lon="12.128764"><ele>218.0</ele><time>2026-05-03T17:04:44.599Z</time></trkpt><trkpt lat="45.9610718" lon="12.1289171"><ele>219.0</ele><time>2026-05-03T17:04:45.599Z</time></trkpt><trkpt lat="45.9611825" lon="12.1290676"><ele>220.0</ele><time>2026-05-03T17:04:46.598Z</time></trkpt><trkpt lat="45.9612926" lon="12.1292179"><ele>221.0</ele><time>2026-05-03T17:04:47.598Z</time></trkpt><trkpt lat="45.9614042" lon="12.1293684"><ele>221.0</ele><time>2026-05-03T17:04:48.598Z</time></trkpt><trkpt lat="45.9615132" lon="12.1295142"><ele>221.0</ele><time>2026-05-03T17:04:49.598Z</time></trkpt><trkpt lat="45.9616233" lon="12.1296618"><ele>221.0</ele><time>2026-05-03T17:04:50.599Z</time></trkpt><trkpt lat="45.961733" lon="12.1298071"><ele>221.0</ele><time>2026-05-03T17:04:51.599Z</time></trkpt><trkpt lat="45.9618417" lon="12.1299502"><ele>220.75</ele><time>2026-05-03T17:04:52.599Z</time></trkpt><trkpt lat="45.9619475" lon="12.1300965"><ele>220.5</ele><time>2026-05-03T17:04:53.599Z</time></trkpt><trkpt lat="45.9620553" lon="12.1302408"><ele>220.25</ele><time>2026-05-03T17:04:54.598Z</time></trkpt><trkpt lat="45.9621607" lon="12.1303849"><ele>220.0</ele><time>2026-05-03T17:04:55.598Z</time></trkpt><trkpt lat="45.9622688" lon="12.1305285"><ele>220.0</ele><time>2026-05-03T17:04:56.599Z</time></trkpt><trkpt lat="45.9623742" lon="12.1306681"><ele>220.0</ele><time>2026-05-03T17:04:57.598Z</time></trkpt><trkpt lat="45.9624774" lon="12.1308108"><ele>220.0</ele><time>2026-05-03T17:04:58.598Z</time></trkpt><trkpt lat="45.96258" lon="12.1309546"><ele>220.0</ele><time>2026-05-03T17:04:59.598Z</time></trkpt><trkpt lat="45.9626808" lon="12.1310909"><ele>220.75</ele><time>2026-05-03T17:05:00.599Z</time></trkpt><trkpt lat="45.9627839" lon="12.131227"><ele>221.5</ele><time>2026-05-03T17:05:01.598Z</time></trkpt><trkpt lat="45.962884" lon="12.1313606"><ele>222.25</ele><time>2026-05-03T17:05:02.598Z</time></trkpt><trkpt lat="45.9629826" lon="12.131493"><ele>223.0</ele><time>2026-05-03T17:05:03.598Z</time></trkpt><trkpt lat="45.9630794" lon="12.1316282"><ele>223.75</ele><time>2026-05-03T17:05:04.598Z</time></trkpt><trkpt lat="45.9631755" lon="12.1317581"><ele>224.5</ele><time>2026-05-03T17:05:05.598Z</time></trkpt><trkpt lat="45.9632693" lon="12.1318854"><ele>225.25</ele><time>2026-05-03T17:05:06.598Z</time></trkpt><trkpt lat="45.9633618" lon="12.1320125"><ele>226.0</ele><time>2026-05-03T17:05:07.599Z</time></trkpt><trkpt lat="45.9634506" lon="12.1321366"><ele>226.0</ele><time>2026-05-03T17:05:08.598Z</time></trkpt><trkpt lat="45.9635437" lon="12.1322629"><ele>226.0</ele><time>2026-05-03T17:05:09.599Z</time></trkpt><trkpt lat="45.9636364" lon="12.1323857"><ele>226.0</ele><time>2026-05-03T17:05:10.599Z</time></trkpt><trkpt lat="45.9637307" lon="12.1325122"><ele>226.0</ele><time>2026-05-03T17:05:11.598Z</time></trkpt><trkpt lat="45.9638265" lon="12.1326383"><ele>226.5</ele><time>2026-05-03T17:05:12.598Z</time></trkpt><trkpt lat="45.9639211" lon="12.1327634"><ele>227.0</ele><time>2026-05-03T17:05:13.599Z</time></trkpt><trkpt lat="45.9640145" lon="12.1328901"><ele>227.5</ele><time>2026-05-03T17:05:14.599Z</time></trkpt><trkpt lat="45.9641093" lon="12.133015"><ele>228.0</ele><time>2026-05-03T17:05:15.598Z</time></trkpt><trkpt lat="45.9642022" lon="12.1331447"><ele>229.0</ele><time>2026-05-03T17:05:16.598Z</time></trkpt><trkpt lat="45.9642981" lon="12.1332703"><ele>230.0</ele><time>2026-05-03T17:05:17.599Z</time></trkpt><trkpt lat="45.9643922" lon="12.1333968"><ele>231.0</ele><time>2026-05-03T17:05:18.599Z</time></trkpt><trkpt lat="45.9644857" lon="12.1335218"><ele>232.0</ele><time>2026-05-03T17:05:19.598Z</time></trkpt><trkpt lat="45.9645799" lon="12.1336524"><ele>232.0</ele><time>2026-05-03T17:05:20.599Z</time></trkpt><trkpt lat="45.9646768" lon="12.1337846"><ele>232.0</ele><time>2026-05-03T17:05:21.598Z</time></trkpt><trkpt lat="45.9647727" lon="12.1339173"><ele>232.0</ele><time>2026-05-03T17:05:22.598Z</time></trkpt><trkpt lat="45.9648701" lon="12.1340493"><ele>232.0</ele><time>2026-05-03T17:05:23.598Z</time></trkpt><trkpt lat="45.9649654" lon="12.134184"><ele>232.75</ele><time>2026-05-03T17:05:24.598Z</time></trkpt><trkpt lat="45.9650603" lon="12.1343168"><ele>233.5</ele><time>2026-05-03T17:05:25.598Z</time></trkpt><trkpt lat="45.9651512" lon="12.134451"><ele>234.25</ele><time>2026-05-03T17:05:26.598Z</time></trkpt><trkpt lat="45.9652421" lon="12.1345919"><ele>235.0</ele><time>2026-05-03T17:05:27.598Z</time></trkpt><trkpt lat="45.9653259" lon="12.134739"><ele>236.0</ele><time>2026-05-03T17:05:28.598Z</time></trkpt><trkpt lat="45.9654022" lon="12.1348903"><ele>237.0</ele><time>2026-05-03T17:05:29.598Z</time></trkpt><trkpt lat="45.9654735" lon="12.1350492"><ele>238.0</ele><time>2026-05-03T17:05:30.599Z</time></trkpt><trkpt lat="45.9655405" lon="12.1352111"><ele>239.0</ele><time>2026-05-03T17:05:31.599Z</time></trkpt><trkpt lat="45.9656003" lon="12.1353787"><ele>239.0</ele><time>2026-05-03T17:05:32.598Z</time></trkpt><trkpt lat="45.9656528" lon="12.1355543"><ele>239.0</ele><time>2026-05-03T17:05:33.598Z</time></trkpt><trkpt lat="45.9656976" lon="12.1357318"><ele>239.0</ele><time>2026-05-03T17:05:34.599Z</time></trkpt><trkpt lat="45.9657375" lon="12.1359129"><ele>239.0</ele><time>2026-05-03T17:05:35.599Z</time></trkpt><trkpt lat="45.9657676" lon="12.1360952"><ele>239.25</ele><time>2026-05-03T17:05:36.599Z</time></trkpt><trkpt lat="45.9657929" lon="12.1362762"><ele>239.5</ele><time>2026-05-03T17:05:37.599Z</time></trkpt><trkpt lat="45.9658152" lon="12.1364449"><ele>239.75</ele><time>2026-05-03T17:05:38.598Z</time></trkpt><trkpt lat="45.965829" lon="12.1366059"><ele>240.0</ele><time>2026-05-03T17:05:39.598Z</time></trkpt><trkpt lat="45.9658374" lon="12.1367597"><ele>240.0</ele><time>2026-05-03T17:05:40.599Z</time></trkpt><trkpt lat="45.965838" lon="12.1369013"><ele>240.0</ele><time>2026-05-03T17:05:41.599Z</time></trkpt><trkpt lat="45.9658299" lon="12.1370244"><ele>240.0</ele><time>2026-05-03T17:05:42.599Z</time></trkpt><trkpt lat="45.9658204" lon="12.1371244"><ele>240.0</ele><time>2026-05-03T17:05:43.599Z</time></trkpt><trkpt lat="45.965784" lon="12.137276"><ele>240.0</ele><time>2026-05-03T17:05:45.599Z</time></trkpt><trkpt lat="45.9657286" lon="12.1374139"><ele>239.25</ele><time>2026-05-03T17:05:47.598Z</time></trkpt><trkpt lat="45.9657001" lon="12.1375773"><ele>238.5</ele><time>2026-05-03T17:05:49.599Z</time></trkpt><trkpt lat="45.9657564" lon="12.1377149"><ele>237.75</ele><time>2026-05-03T17:05:51.598Z</time></trkpt><trkpt lat="45.9658624" lon="12.1377427"><ele>237.0</ele><time>2026-05-03T17:05:53.598Z</time></trkpt><trkpt lat="45.9659763" lon="12.1377064"><ele>239.2</ele><time>2026-05-03T17:05:55.599Z</time></trkpt><trkpt lat="45.9660854" lon="12.1377509"><ele>241.39999999999998</ele><time>2026-05-03T17:05:57.598Z</time></trkpt><trkpt lat="45.9661528" lon="12.1378714"><ele>243.60000000000002</ele><time>2026-05-03T17:05:59.598Z</time></trkpt><trkpt lat="45.9661862" lon="12.1379589"><ele>245.8</ele><time>2026-05-03T17:06:01.598Z</time></trkpt><trkpt lat="45.9662359" lon="12.1380801"><ele>248.0</ele><time>2026-05-03T17:06:04.599Z</time></trkpt><trkpt lat="45.9662543" lon="12.13817"><ele>247.0</ele><time>2026-05-03T17:06:05.598Z</time></trkpt><trkpt lat="45.9662716" lon="12.138275"><ele>246.0</ele><time>2026-05-03T17:06:06.599Z</time></trkpt><trkpt lat="45.9662953" lon="12.1383955"><ele>245.0</ele><time>2026-05-03T17:06:07.598Z</time></trkpt><trkpt lat="45.9663238" lon="12.1385407"><ele>244.0</ele><time>2026-05-03T17:06:08.598Z</time></trkpt><trkpt lat="45.9663586" lon="12.1387014"><ele>243.0</ele><time>2026-05-03T17:06:09.598Z</time></trkpt><trkpt lat="45.9663928" lon="12.1388631"><ele>243.0</ele><time>2026-05-03T17:06:10.598Z</time></trkpt><trkpt lat="45.9664288" lon="12.139038"><ele>243.0</ele><time>2026-05-03T17:06:11.598Z</time></trkpt><trkpt lat="45.966466" lon="12.1392182"><ele>243.0</ele><time>2026-05-03T17:06:12.598Z</time></trkpt><trkpt lat="45.9665051" lon="12.1393997"><ele>243.0</ele><time>2026-05-03T17:06:13.599Z</time></trkpt><trkpt lat="45.9665436" lon="12.1395846"><ele>243.0</ele><time>2026-05-03T17:06:14.598Z</time></trkpt><trkpt lat="45.9665828" lon="12.13977"><ele>243.0</ele><time>2026-05-03T17:06:15.599Z</time></trkpt><trkpt lat="45.966625" lon="12.1399543"><ele>243.0</ele><time>2026-05-03T17:06:16.598Z</time></trkpt><trkpt lat="45.9666645" lon="12.1401383"><ele>243.0</ele><time>2026-05-03T17:06:17.598Z</time></trkpt><trkpt lat="45.9667014" lon="12.1403238"><ele>243.75</ele><time>2026-05-03T17:06:18.599Z</time></trkpt><trkpt lat="45.9667395" lon="12.1405096"><ele>244.5</ele><time>2026-05-03T17:06:19.598Z</time></trkpt><trkpt lat="45.966781" lon="12.1406925"><ele>245.25</ele><time>2026-05-03T17:06:20.598Z</time></trkpt><trkpt lat="45.9668207" lon="12.1408718"><ele>246.0</ele><time>2026-05-03T17:06:21.599Z</time></trkpt><trkpt lat="45.9668592" lon="12.1410496"><ele>246.25</ele><time>2026-05-03T17:06:22.598Z</time></trkpt><trkpt lat="45.9668964" lon="12.1412262"><ele>246.5</ele><time>2026-05-03T17:06:23.598Z</time></trkpt><trkpt lat="45.9669329" lon="12.1413995"><ele>246.75</ele><time>2026-05-03T17:06:24.598Z</time></trkpt><trkpt lat="45.9669724" lon="12.141568"><ele>247.0</ele><time>2026-05-03T17:06:25.598Z</time></trkpt><trkpt lat="45.967012" lon="12.1417355"><ele>247.25</ele><time>2026-05-03T17:06:26.598Z</time></trkpt><trkpt lat="45.9670476" lon="12.1419016"><ele>247.5</ele><time>2026-05-03T17:06:27.598Z</time></trkpt><trkpt lat="45.9670821" lon="12.1420684"><ele>247.75</ele><time>2026-05-03T17:06:28.598Z</time></trkpt><trkpt lat="45.9671171" lon="12.1422342"><ele>248.0</ele><time>2026-05-03T17:06:29.599Z</time></trkpt><trkpt lat="45.9671524" lon="12.1423997"><ele>248.0</ele><time>2026-05-03T17:06:30.599Z</time></trkpt><trkpt lat="45.9671919" lon="12.1425592"><ele>248.0</ele><time>2026-05-03T17:06:31.598Z</time></trkpt><trkpt lat="45.9672247" lon="12.1427094"><ele>248.0</ele><time>2026-05-03T17:06:32.599Z</time></trkpt><trkpt lat="45.9672536" lon="12.1428489"><ele>248.0</ele><time>2026-05-03T17:06:33.599Z</time></trkpt><trkpt lat="45.9672804" lon="12.1429725"><ele>248.0</ele><time>2026-05-03T17:06:34.598Z</time></trkpt><trkpt lat="45.9672992" lon="12.143082"><ele>248.00000000000003</ele><time>2026-05-03T17:06:35.598Z</time></trkpt><trkpt lat="45.9673154" lon="12.1431735"><ele>248.0</ele><time>2026-05-03T17:06:36.598Z</time></trkpt><trkpt lat="45.9673401" lon="12.1433215"><ele>248.0</ele><time>2026-05-03T17:06:38.599Z</time></trkpt><trkpt lat="45.9673483" lon="12.1434282"><ele>248.0</ele><time>2026-05-03T17:06:40.599Z</time></trkpt><trkpt lat="45.9673191" lon="12.143538"><ele>248.00000000000003</ele><time>2026-05-03T17:06:43.599Z</time></trkpt><trkpt lat="45.9673782" lon="12.143497"><ele>248.0</ele><time>2026-05-03T17:06:50.599Z</time></trkpt><trkpt lat="45.9673835" lon="12.1433939"><ele>248.0</ele><time>2026-05-03T17:06:52.598Z</time></trkpt><trkpt lat="45.9673548" lon="12.1432533"><ele>248.0</ele><time>2026-05-03T17:06:54.599Z</time></trkpt><trkpt lat="45.9673196" lon="12.1430923"><ele>248.0</ele><time>2026-05-03T17:06:56.599Z</time></trkpt><trkpt lat="45.9672876" lon="12.1429216"><ele>248.0</ele><time>2026-05-03T17:06:58.599Z</time></trkpt><trkpt lat="45.96727" lon="12.142828"><ele>248.0</ele><time>2026-05-03T17:06:59.598Z</time></trkpt><trkpt lat="45.9672479" lon="12.1427234"><ele>248.00000000000003</ele><time>2026-05-03T17:07:00.598Z</time></trkpt><trkpt lat="45.967222" lon="12.1426097"><ele>248.0</ele><time>2026-05-03T17:07:01.598Z</time></trkpt><trkpt lat="45.9671957" lon="12.1424954"><ele>248.0</ele><time>2026-05-03T17:07:02.598Z</time></trkpt><trkpt lat="45.9671689" lon="12.1423881"><ele>248.0</ele><time>2026-05-03T17:07:03.598Z</time></trkpt><trkpt lat="45.9671429" lon="12.1422871"><ele>248.00000000000003</ele><time>2026-05-03T17:07:04.599Z</time></trkpt><trkpt lat="45.9671197" lon="12.1421923"><ele>248.0</ele><time>2026-05-03T17:07:05.599Z</time></trkpt><trkpt lat="45.967098" lon="12.1420985"><ele>248.0</ele><time>2026-05-03T17:07:06.599Z</time></trkpt><trkpt lat="45.9670783" lon="12.1420075"><ele>248.0</ele><time>2026-05-03T17:07:07.598Z</time></trkpt><trkpt lat="45.9670629" lon="12.1419155"><ele>248.0</ele><time>2026-05-03T17:07:08.599Z</time></trkpt><trkpt lat="45.9670745" lon="12.1417487"><ele>248.0</ele><time>2026-05-03T17:07:10.598Z</time></trkpt><trkpt lat="45.9671592" lon="12.1416558"><ele>248.0</ele><time>2026-05-03T17:07:12.598Z</time></trkpt><trkpt lat="45.9672976" lon="12.1416393"><ele>248.0</ele><time>2026-05-03T17:07:14.598Z</time></trkpt><trkpt lat="45.9673893" lon="12.1416282"><ele>248.0</ele><time>2026-05-03T17:07:15.598Z</time></trkpt><trkpt lat="45.9674902" lon="12.1416229"><ele>248.0</ele><time>2026-05-03T17:07:16.598Z</time></trkpt><trkpt lat="45.9675988" lon="12.1416147"><ele>248.0</ele><time>2026-05-03T17:07:17.598Z</time></trkpt><trkpt lat="45.9677091" lon="12.1416041"><ele>248.0</ele><time>2026-05-03T17:07:18.599Z</time></trkpt><trkpt lat="45.9678207" lon="12.1415885"><ele>249.0</ele><time>2026-05-03T17:07:19.598Z</time></trkpt><trkpt lat="45.9679395" lon="12.1415845"><ele>250.0</ele><time>2026-05-03T17:07:20.598Z</time></trkpt><trkpt lat="45.9680562" lon="12.141577"><ele>251.0</ele><time>2026-05-03T17:07:21.598Z</time></trkpt><trkpt lat="45.968171" lon="12.1415699"><ele>252.0</ele><time>2026-05-03T17:07:22.598Z</time></trkpt><trkpt lat="45.9682857" lon="12.1415588"><ele>252.39999999999998</ele><time>2026-05-03T17:07:23.599Z</time></trkpt><trkpt lat="45.9683964" lon="12.1415517"><ele>252.79999999999998</ele><time>2026-05-03T17:07:24.599Z</time></trkpt><trkpt lat="45.9685016" lon="12.1415444"><ele>253.2</ele><time>2026-05-03T17:07:25.598Z</time></trkpt><trkpt lat="45.9685996" lon="12.1415375"><ele>253.6</ele><time>2026-05-03T17:07:26.598Z</time></trkpt><trkpt lat="45.9686853" lon="12.1415238"><ele>254.0</ele><time>2026-05-03T17:07:27.599Z</time></trkpt><trkpt lat="45.9687683" lon="12.141522"><ele>254.00000000000003</ele><time>2026-05-03T17:07:28.599Z</time></trkpt><trkpt lat="45.9688377" lon="12.1415146"><ele>254.0</ele><time>2026-05-03T17:07:29.599Z</time></trkpt><trkpt lat="45.9689054" lon="12.1415053"><ele>254.0</ele><time>2026-05-03T17:07:30.598Z</time></trkpt><trkpt lat="45.968978" lon="12.1414961"><ele>254.0</ele><time>2026-05-03T17:07:31.598Z</time></trkpt><trkpt lat="45.9690574" lon="12.1414908"><ele>254.00000000000003</ele><time>2026-05-03T17:07:32.598Z</time></trkpt><trkpt lat="45.9691444" lon="12.1414905"><ele>254.0</ele><time>2026-05-03T17:07:33.598Z</time></trkpt><trkpt lat="45.9692342" lon="12.141482"><ele>255.00000000000003</ele><time>2026-05-03T17:07:34.599Z</time></trkpt><trkpt lat="45.9693262" lon="12.1414783"><ele>256.0</ele><time>2026-05-03T17:07:35.599Z</time></trkpt><trkpt lat="45.9694193" lon="12.1414792"><ele>257.0</ele><time>2026-05-03T17:07:36.599Z</time></trkpt><trkpt lat="45.9695004" lon="12.1414791"><ele>258.0</ele><time>2026-05-03T17:07:37.598Z</time></trkpt><trkpt lat="45.9695738" lon="12.1414694"><ele>259.0</ele><time>2026-05-03T17:07:38.599Z</time></trkpt><trkpt lat="45.9696397" lon="12.14146"><ele>260.0</ele><time>2026-05-03T17:07:39.598Z</time></trkpt><trkpt lat="45.969731" lon="12.1414468"><ele>260.0</ele><time>2026-05-03T17:07:41.598Z</time></trkpt><trkpt lat="45.9698025" lon="12.1414634"><ele>260.0</ele><time>2026-05-03T17:07:43.598Z</time></trkpt><trkpt lat="45.9698571" lon="12.1415533"><ele>260.0</ele><time>2026-05-03T17:07:45.599Z</time></trkpt><trkpt lat="45.9699031" lon="12.1417067"><ele>260.0</ele><time>2026-05-03T17:07:47.598Z</time></trkpt><trkpt lat="45.9699294" lon="12.1417935"><ele>260.0</ele><time>2026-05-03T17:07:48.599Z</time></trkpt><trkpt lat="45.9699534" lon="12.1418805"><ele>260.0</ele><time>2026-05-03T17:07:49.598Z</time></trkpt><trkpt lat="45.9699748" lon="12.1420195"><ele>260.00000000000006</ele><time>2026-05-03T17:07:51.598Z</time></trkpt><trkpt lat="45.9699875" lon="12.1421207"><ele>260.0</ele><time>2026-05-03T17:07:53.598Z</time></trkpt><trkpt lat="45.9700567" lon="12.1421866"><ele>260.0</ele><time>2026-05-03T17:07:56.599Z</time></trkpt><trkpt lat="45.9701261" lon="12.1421888"><ele>260.0</ele><time>2026-05-03T17:08:09.598Z</time></trkpt><trkpt lat="45.9701929" lon="12.1422013"><ele>260.0</ele><time>2026-05-03T17:08:12.599Z</time></trkpt><trkpt lat="45.9701342" lon="12.1421073"><ele>260.00000000000006</ele><time>2026-05-03T17:09:00.599Z</time></trkpt><trkpt lat="45.9700677" lon="12.1421103"><ele>260.0</ele><time>2026-05-03T17:09:02.598Z</time></trkpt><trkpt lat="45.9700025" lon="12.1420922"><ele>260.00000000000006</ele><time>2026-05-03T17:09:04.598Z</time></trkpt><trkpt lat="45.9699694" lon="12.1420104"><ele>260.0</ele><time>2026-05-03T17:09:06.599Z</time></trkpt><trkpt lat="45.9699621" lon="12.1418989"><ele>260.0</ele><time>2026-05-03T17:09:08.598Z</time></trkpt><trkpt lat="45.9699495" lon="12.141801"><ele>260.0</ele><time>2026-05-03T17:09:10.598Z</time></trkpt><trkpt lat="45.9699276" lon="12.1417111"><ele>260.0</ele><time>2026-05-03T17:09:12.598Z</time></trkpt><trkpt lat="45.9698969" lon="12.141611"><ele>260.00000000000006</ele><time>2026-05-03T17:09:14.598Z</time></trkpt><trkpt lat="45.9698716" lon="12.1415176"><ele>260.0</ele><time>2026-05-03T17:09:16.599Z</time></trkpt><trkpt lat="45.9698154" lon="12.1414213"><ele>260.0</ele><time>2026-05-03T17:09:19.598Z</time></trkpt><trkpt lat="45.9697121" lon="12.1414577"><ele>260.0</ele><time>2026-05-03T17:09:21.599Z</time></trkpt><trkpt lat="45.9696104" lon="12.1414723"><ele>260.0</ele><time>2026-05-03T17:09:23.598Z</time></trkpt><trkpt lat="45.9694867" lon="12.1414641"><ele>260.0</ele><time>2026-05-03T17:09:25.598Z</time></trkpt><trkpt lat="45.9694135" lon="12.141478"><ele>260.0</ele><time>2026-05-03T17:09:26.599Z</time></trkpt><trkpt lat="45.9693371" lon="12.1414799"><ele>260.0</ele><time>2026-05-03T17:09:27.598Z</time></trkpt><trkpt lat="45.9692557" lon="12.1414885"><ele>260.0</ele><time>2026-05-03T17:09:28.598Z</time></trkpt><trkpt lat="45.9691772" lon="12.1414963"><ele>260.0</ele><time>2026-05-03T17:09:29.599Z</time></trkpt><trkpt lat="45.9691067" lon="12.1415047"><ele>260.0</ele><time>2026-05-03T17:09:30.598Z</time></trkpt><trkpt lat="45.9689935" lon="12.1415093"><ele>260.0</ele><time>2026-05-03T17:09:32.598Z</time></trkpt><trkpt lat="45.9688682" lon="12.1415157"><ele>259.0</ele><time>2026-05-03T17:09:34.599Z</time></trkpt><trkpt lat="45.9687998" lon="12.1415178"><ele>258.0</ele><time>2026-05-03T17:09:35.598Z</time></trkpt><trkpt lat="45.9687193" lon="12.1415251"><ele>257.0</ele><time>2026-05-03T17:09:36.599Z</time></trkpt><trkpt lat="45.9686373" lon="12.1415257"><ele>256.0</ele><time>2026-05-03T17:09:37.599Z</time></trkpt><trkpt lat="45.9685516" lon="12.1415309"><ele>255.00000000000003</ele><time>2026-05-03T17:09:38.599Z</time></trkpt><trkpt lat="45.9684619" lon="12.1415371"><ele>254.0</ele><time>2026-05-03T17:09:39.598Z</time></trkpt><trkpt lat="45.968371" lon="12.1415458"><ele>253.6</ele><time>2026-05-03T17:09:40.598Z</time></trkpt><trkpt lat="45.9682743" lon="12.1415554"><ele>253.2</ele><time>2026-05-03T17:09:41.599Z</time></trkpt><trkpt lat="45.9681706" lon="12.1415643"><ele>252.79999999999998</ele><time>2026-05-03T17:09:42.599Z</time></trkpt><trkpt lat="45.9680666" lon="12.1415714"><ele>252.39999999999998</ele><time>2026-05-03T17:09:43.599Z</time></trkpt><trkpt lat="45.9679571" lon="12.1415757"><ele>252.0</ele><time>2026-05-03T17:09:44.598Z</time></trkpt><trkpt lat="45.967845" lon="12.1415842"><ele>252.0</ele><time>2026-05-03T17:09:45.599Z</time></trkpt><trkpt lat="45.9677377" lon="12.1415934"><ele>252.0</ele><time>2026-05-03T17:09:46.599Z</time></trkpt><trkpt lat="45.9676327" lon="12.1416012"><ele>252.0</ele><time>2026-05-03T17:09:47.598Z</time></trkpt><trkpt lat="45.9675421" lon="12.1416087"><ele>252.0</ele><time>2026-05-03T17:09:48.598Z</time></trkpt><trkpt lat="45.9674545" lon="12.1416193"><ele>252.0</ele><time>2026-05-03T17:09:49.599Z</time></trkpt><trkpt lat="45.9673723" lon="12.1416208"><ele>251.33333333333334</ele><time>2026-05-03T17:09:50.599Z</time></trkpt><trkpt lat="45.9673014" lon="12.1416258"><ele>250.66666666666669</ele><time>2026-05-03T17:09:51.598Z</time></trkpt><trkpt lat="45.9672346" lon="12.1416237"><ele>250.0</ele><time>2026-05-03T17:09:52.598Z</time></trkpt><trkpt lat="45.9671399" lon="12.1416248"><ele>249.33333333333334</ele><time>2026-05-03T17:09:54.598Z</time></trkpt><trkpt lat="45.9670693" lon="12.1416276"><ele>248.66666666666669</ele><time>2026-05-03T17:09:57.598Z</time></trkpt><trkpt lat="45.9669999" lon="12.1416381"><ele>248.0</ele><time>2026-05-03T17:10:03.598Z</time></trkpt><trkpt lat="45.9669147" lon="12.1416674"><ele>248.0</ele><time>2026-05-03T17:10:05.598Z</time></trkpt><trkpt lat="45.9667939" lon="12.1416904"><ele>248.0</ele><time>2026-05-03T17:10:07.599Z</time></trkpt><trkpt lat="45.9667203" lon="12.1417043"><ele>248.0</ele><time>2026-05-03T17:10:08.598Z</time></trkpt><trkpt lat="45.9666422" lon="12.1417211"><ele>248.0</ele><time>2026-05-03T17:10:09.598Z</time></trkpt><trkpt lat="45.9665574" lon="12.1417391"><ele>248.0</ele><time>2026-05-03T17:10:10.598Z</time></trkpt><trkpt lat="45.9664684" lon="12.1417529"><ele>247.66666666666669</ele><time>2026-05-03T17:10:11.599Z</time></trkpt><trkpt lat="45.9663774" lon="12.141761"><ele>247.33333333333334</ele><time>2026-05-03T17:10:12.598Z</time></trkpt><trkpt lat="45.96629" lon="12.141777"><ele>247.0</ele><time>2026-05-03T17:10:13.599Z</time></trkpt><trkpt lat="45.9662003" lon="12.1417798"><ele>246.66666666666669</ele><time>2026-05-03T17:10:14.599Z</time></trkpt><trkpt lat="45.9661148" lon="12.1417838"><ele>246.33333333333334</ele><time>2026-05-03T17:10:15.598Z</time></trkpt><trkpt lat="45.9660276" lon="12.1417908"><ele>246.0</ele><time>2026-05-03T17:10:16.599Z</time></trkpt><trkpt lat="45.9659413" lon="12.1417968"><ele>245.20000000000002</ele><time>2026-05-03T17:10:17.598Z</time></trkpt><trkpt lat="45.9658586" lon="12.1418078"><ele>244.40000000000003</ele><time>2026-05-03T17:10:18.598Z</time></trkpt><trkpt lat="45.9657781" lon="12.1418143"><ele>243.6</ele><time>2026-05-03T17:10:19.599Z</time></trkpt><trkpt lat="45.9657067" lon="12.1418159"><ele>242.8</ele><time>2026-05-03T17:10:20.599Z</time></trkpt><trkpt lat="45.9655918" lon="12.1418244"><ele>242.0</ele><time>2026-05-03T17:10:22.599Z</time></trkpt><trkpt lat="45.9654818" lon="12.1417793"><ele>242.0</ele><time>2026-05-03T17:10:24.598Z</time></trkpt><trkpt lat="45.9653778" lon="12.1417342"><ele>242.0</ele><time>2026-05-03T17:10:26.598Z</time></trkpt><trkpt lat="45.9652989" lon="12.1418051"><ele>242.0</ele><time>2026-05-03T17:10:28.598Z</time></trkpt><trkpt lat="45.9652865" lon="12.1419575"><ele>242.0</ele><time>2026-05-03T17:10:30.598Z</time></trkpt><trkpt lat="45.9653212" lon="12.1420452"><ele>242.0</ele><time>2026-05-03T17:10:31.598Z</time></trkpt><trkpt lat="45.9653492" lon="12.1421498"><ele>242.0</ele><time>2026-05-03T17:10:32.598Z</time></trkpt><trkpt lat="45.9653714" lon="12.1422689"><ele>242.0</ele><time>2026-05-03T17:10:33.599Z</time></trkpt><trkpt lat="45.9653829" lon="12.142406"><ele>242.0</ele><time>2026-05-03T17:10:34.599Z</time></trkpt><trkpt lat="45.9653898" lon="12.1425673"><ele>242.0</ele><time>2026-05-03T17:10:35.598Z</time></trkpt><trkpt lat="45.9653995" lon="12.1427543"><ele>242.0</ele><time>2026-05-03T17:10:36.598Z</time></trkpt><trkpt lat="45.9654154" lon="12.1429627"><ele>241.66666666666669</ele><time>2026-05-03T17:10:37.599Z</time></trkpt><trkpt lat="45.9654255" lon="12.1431869"><ele>241.33333333333331</ele><time>2026-05-03T17:10:38.598Z</time></trkpt><trkpt lat="45.9654369" lon="12.1434159"><ele>241.0</ele><time>2026-05-03T17:10:39.599Z</time></trkpt><trkpt lat="45.9654476" lon="12.1436476"><ele>240.66666666666666</ele><time>2026-05-03T17:10:40.598Z</time></trkpt><trkpt lat="45.9654613" lon="12.1438749"><ele>240.33333333333331</ele><time>2026-05-03T17:10:41.598Z</time></trkpt><trkpt lat="45.9654707" lon="12.1441005"><ele>240.0</ele><time>2026-05-03T17:10:42.598Z</time></trkpt><trkpt lat="45.9654832" lon="12.1443228"><ele>239.25</ele><time>2026-05-03T17:10:43.599Z</time></trkpt><trkpt lat="45.9654961" lon="12.1445406"><ele>238.5</ele><time>2026-05-03T17:10:44.599Z</time></trkpt><trkpt lat="45.9655141" lon="12.1447543"><ele>237.75</ele><time>2026-05-03T17:10:45.599Z</time></trkpt><trkpt lat="45.9655381" lon="12.1449615"><ele>237.0</ele><time>2026-05-03T17:10:46.599Z</time></trkpt><trkpt lat="45.9655676" lon="12.145169"><ele>237.0</ele><time>2026-05-03T17:10:47.598Z</time></trkpt><trkpt lat="45.9655985" lon="12.1453689"><ele>237.0</ele><time>2026-05-03T17:10:48.598Z</time></trkpt><trkpt lat="45.9656357" lon="12.1455639"><ele>237.0</ele><time>2026-05-03T17:10:49.598Z</time></trkpt><trkpt lat="45.9656791" lon="12.1457567"><ele>237.0</ele><time>2026-05-03T17:10:50.598Z</time></trkpt><trkpt lat="45.9657291" lon="12.1459441"><ele>237.0</ele><time>2026-05-03T17:10:51.599Z</time></trkpt><trkpt lat="45.9657823" lon="12.1461257"><ele>237.0</ele><time>2026-05-03T17:10:52.598Z</time></trkpt><trkpt lat="45.9658355" lon="12.1463085"><ele>237.0</ele><time>2026-05-03T17:10:53.598Z</time></trkpt><trkpt lat="45.9658946" lon="12.1464872"><ele>237.0</ele><time>2026-05-03T17:10:54.599Z</time></trkpt><trkpt lat="45.9659623" lon="12.1466636"><ele>238.0</ele><time>2026-05-03T17:10:55.599Z</time></trkpt><trkpt lat="45.9660323" lon="12.1468392"><ele>239.0</ele><time>2026-05-03T17:10:56.599Z</time></trkpt><trkpt lat="45.9661012" lon="12.1470137"><ele>240.0</ele><time>2026-05-03T17:10:57.598Z</time></trkpt><trkpt lat="45.9661705" lon="12.1471884"><ele>241.0</ele><time>2026-05-03T17:10:58.599Z</time></trkpt><trkpt lat="45.9662412" lon="12.1473601"><ele>241.5</ele><time>2026-05-03T17:10:59.599Z</time></trkpt><trkpt lat="45.9663123" lon="12.1475313"><ele>242.0</ele><time>2026-05-03T17:11:00.599Z</time></trkpt><trkpt lat="45.9663839" lon="12.1477037"><ele>242.5</ele><time>2026-05-03T17:11:01.598Z</time></trkpt><trkpt lat="45.9664533" lon="12.147873"><ele>243.0</ele><time>2026-05-03T17:11:02.598Z</time></trkpt><trkpt lat="45.9665254" lon="12.1480504"><ele>244.25</ele><time>2026-05-03T17:11:03.598Z</time></trkpt><trkpt lat="45.966593" lon="12.1482273"><ele>245.5</ele><time>2026-05-03T17:11:04.599Z</time></trkpt><trkpt lat="45.9666599" lon="12.1484081"><ele>246.75</ele><time>2026-05-03T17:11:05.598Z</time></trkpt><trkpt lat="45.9667308" lon="12.1485881"><ele>248.0</ele><time>2026-05-03T17:11:06.598Z</time></trkpt><trkpt lat="45.9668005" lon="12.1487692"><ele>248.5</ele><time>2026-05-03T17:11:07.598Z</time></trkpt><trkpt lat="45.9668709" lon="12.1489514"><ele>249.0</ele><time>2026-05-03T17:11:08.599Z</time></trkpt><trkpt lat="45.9669377" lon="12.1491369"><ele>249.5</ele><time>2026-05-03T17:11:09.598Z</time></trkpt><trkpt lat="45.9670022" lon="12.1493223"><ele>250.0</ele><time>2026-05-03T17:11:10.598Z</time></trkpt><trkpt lat="45.9670651" lon="12.1495096"><ele>250.25</ele><time>2026-05-03T17:11:11.598Z</time></trkpt><trkpt lat="45.9671262" lon="12.149698"><ele>250.5</ele><time>2026-05-03T17:11:12.599Z</time></trkpt><trkpt lat="45.9671862" lon="12.1498864"><ele>250.75</ele><time>2026-05-03T17:11:13.599Z</time></trkpt><trkpt lat="45.9672463" lon="12.1500739"><ele>251.0</ele><time>2026-05-03T17:11:14.599Z</time></trkpt><trkpt lat="45.9673057" lon="12.1502603"><ele>251.0</ele><time>2026-05-03T17:11:15.598Z</time></trkpt><trkpt lat="45.9673645" lon="12.1504466"><ele>251.0</ele><time>2026-05-03T17:11:16.599Z</time></trkpt><trkpt lat="45.9674201" lon="12.1506331"><ele>251.0</ele><time>2026-05-03T17:11:17.598Z</time></trkpt><trkpt lat="45.9674759" lon="12.1508167"><ele>251.0</ele><time>2026-05-03T17:11:18.599Z</time></trkpt><trkpt lat="45.9675318" lon="12.1510046"><ele>253.5</ele><time>2026-05-03T17:11:19.598Z</time></trkpt><trkpt lat="45.9675908" lon="12.1511919"><ele>256.0</ele><time>2026-05-03T17:11:20.598Z</time></trkpt><trkpt lat="45.9676468" lon="12.1513802"><ele>258.5</ele><time>2026-05-03T17:11:21.599Z</time></trkpt><trkpt lat="45.967705" lon="12.1515691"><ele>261.0</ele><time>2026-05-03T17:11:22.599Z</time></trkpt><trkpt lat="45.9677606" lon="12.1517574"><ele>261.0</ele><time>2026-05-03T17:11:23.599Z</time></trkpt><trkpt lat="45.9678213" lon="12.1519403"><ele>261.0</ele><time>2026-05-03T17:11:24.599Z</time></trkpt><trkpt lat="45.9678817" lon="12.1521255"><ele>261.0</ele><time>2026-05-03T17:11:25.599Z</time></trkpt><trkpt lat="45.9679375" lon="12.1523081"><ele>261.0</ele><time>2026-05-03T17:11:26.598Z</time></trkpt><trkpt lat="45.967991" lon="12.1524961"><ele>259.0</ele><time>2026-05-03T17:11:27.598Z</time></trkpt><trkpt lat="45.9680446" lon="12.1526725"><ele>257.0</ele><time>2026-05-03T17:11:28.599Z</time></trkpt><trkpt lat="45.9680964" lon="12.1528474"><ele>255.0</ele><time>2026-05-03T17:11:29.598Z</time></trkpt><trkpt lat="45.9681503" lon="12.1530198"><ele>253.0</ele><time>2026-05-03T17:11:30.599Z</time></trkpt><trkpt lat="45.9682092" lon="12.1531905"><ele>251.75</ele><time>2026-05-03T17:11:31.598Z</time></trkpt><trkpt lat="45.9682739" lon="12.1533626"><ele>250.5</ele><time>2026-05-03T17:11:32.598Z</time></trkpt><trkpt lat="45.9683403" lon="12.1535277"><ele>249.25</ele><time>2026-05-03T17:11:33.599Z</time></trkpt><trkpt lat="45.9684165" lon="12.1536894"><ele>248.0</ele><time>2026-05-03T17:11:34.598Z</time></trkpt><trkpt lat="45.9684954" lon="12.1538537"><ele>249.75</ele><time>2026-05-03T17:11:35.598Z</time></trkpt><trkpt lat="45.9685782" lon="12.1540187"><ele>251.5</ele><time>2026-05-03T17:11:36.598Z</time></trkpt><trkpt lat="45.968666" lon="12.1541817"><ele>253.25</ele><time>2026-05-03T17:11:37.599Z</time></trkpt><trkpt lat="45.9687523" lon="12.1543454"><ele>255.0</ele><time>2026-05-03T17:11:38.598Z</time></trkpt><trkpt lat="45.9688455" lon="12.154514"><ele>255.0</ele><time>2026-05-03T17:11:39.599Z</time></trkpt><trkpt lat="45.9689364" lon="12.1546774"><ele>255.0</ele><time>2026-05-03T17:11:40.598Z</time></trkpt><trkpt lat="45.9690245" lon="12.1548471"><ele>255.0</ele><time>2026-05-03T17:11:41.598Z</time></trkpt><trkpt lat="45.9691154" lon="12.1550114"><ele>255.0</ele><time>2026-05-03T17:11:42.599Z</time></trkpt><trkpt lat="45.9692053" lon="12.1551723"><ele>254.0</ele><time>2026-05-03T17:11:43.599Z</time></trkpt><trkpt lat="45.9692966" lon="12.1553413"><ele>253.0</ele><time>2026-05-03T17:11:44.599Z</time></trkpt><trkpt lat="45.9693879" lon="12.1555133"><ele>252.0</ele><time>2026-05-03T17:11:45.598Z</time></trkpt><trkpt lat="45.9694804" lon="12.1556812"><ele>251.0</ele><time>2026-05-03T17:11:46.598Z</time></trkpt><trkpt lat="45.9695719" lon="12.1558503"><ele>251.0</ele><time>2026-05-03T17:11:47.599Z</time></trkpt><trkpt lat="45.9696622" lon="12.1560159"><ele>251.0</ele><time>2026-05-03T17:11:48.598Z</time></trkpt><trkpt lat="45.9697563" lon="12.1561848"><ele>251.0</ele><time>2026-05-03T17:11:49.598Z</time></trkpt><trkpt lat="45.9698498" lon="12.1563538"><ele>251.0</ele><time>2026-05-03T17:11:50.599Z</time></trkpt><trkpt lat="45.9699426" lon="12.1565228"><ele>255.75</ele><time>2026-05-03T17:11:51.598Z</time></trkpt><trkpt lat="45.9700362" lon="12.1566916"><ele>260.5</ele><time>2026-05-03T17:11:52.599Z</time></trkpt><trkpt lat="45.9701284" lon="12.1568586"><ele>265.25</ele><time>2026-05-03T17:11:53.598Z</time></trkpt><trkpt lat="45.9702219" lon="12.1570287"><ele>270.0</ele><time>2026-05-03T17:11:54.598Z</time></trkpt><trkpt lat="45.970314" lon="12.1571988"><ele>266.75</ele><time>2026-05-03T17:11:55.599Z</time></trkpt><trkpt lat="45.9704054" lon="12.1573693"><ele>263.5</ele><time>2026-05-03T17:11:56.598Z</time></trkpt><trkpt lat="45.9704954" lon="12.157539"><ele>260.25</ele><time>2026-05-03T17:11:57.598Z</time></trkpt><trkpt lat="45.9705845" lon="12.1577097"><ele>257.0</ele><time>2026-05-03T17:11:58.599Z</time></trkpt><trkpt lat="45.9706714" lon="12.1578843"><ele>257.0</ele><time>2026-05-03T17:11:59.598Z</time></trkpt><trkpt lat="45.970751" lon="12.1580663"><ele>257.0</ele><time>2026-05-03T17:12:00.598Z</time></trkpt><trkpt lat="45.9708232" lon="12.15825"><ele>257.0</ele><time>2026-05-03T17:12:01.598Z</time></trkpt><trkpt lat="45.9708883" lon="12.1584442"><ele>257.0</ele><time>2026-05-03T17:12:02.599Z</time></trkpt><trkpt lat="45.9709452" lon="12.1586427"><ele>261.0</ele><time>2026-05-03T17:12:03.599Z</time></trkpt><trkpt lat="45.9709982" lon="12.1588465"><ele>265.0</ele><time>2026-05-03T17:12:04.598Z</time></trkpt><trkpt lat="45.9710524" lon="12.1590494"><ele>269.0</ele><time>2026-05-03T17:12:05.599Z</time></trkpt><trkpt lat="45.9711038" lon="12.1592551"><ele>269.0</ele><time>2026-05-03T17:12:06.599Z</time></trkpt><trkpt lat="45.9711595" lon="12.1594588"><ele>269.0</ele><time>2026-05-03T17:12:07.598Z</time></trkpt><trkpt lat="45.971215" lon="12.1596695"><ele>269.0</ele><time>2026-05-03T17:12:08.598Z</time></trkpt><trkpt lat="45.9712701" lon="12.1598806"><ele>263.6666666666667</ele><time>2026-05-03T17:12:09.598Z</time></trkpt><trkpt lat="45.9713281" lon="12.1600911"><ele>258.3333333333333</ele><time>2026-05-03T17:12:10.599Z</time></trkpt><trkpt lat="45.9713856" lon="12.160302"><ele>253.0</ele><time>2026-05-03T17:12:11.598Z</time></trkpt><trkpt lat="45.9714392" lon="12.1605144"><ele>249.75</ele><time>2026-05-03T17:12:12.599Z</time></trkpt><trkpt lat="45.9714934" lon="12.1607156"><ele>246.5</ele><time>2026-05-03T17:12:13.598Z</time></trkpt><trkpt lat="45.9715421" lon="12.160908"><ele>243.25</ele><time>2026-05-03T17:12:14.598Z</time></trkpt><trkpt lat="45.9715842" lon="12.1610952"><ele>240.0</ele><time>2026-05-03T17:12:15.598Z</time></trkpt><trkpt lat="45.9716186" lon="12.1612759"><ele>240.0</ele><time>2026-05-03T17:12:16.599Z</time></trkpt><trkpt lat="45.9716449" lon="12.1614592"><ele>240.0</ele><time>2026-05-03T17:12:17.598Z</time></trkpt><trkpt lat="45.9716664" lon="12.1616442"><ele>240.0</ele><time>2026-05-03T17:12:18.598Z</time></trkpt><trkpt lat="45.9716843" lon="12.161834"><ele>240.0</ele><time>2026-05-03T17:12:19.598Z</time></trkpt><trkpt lat="45.9716948" lon="12.1620286"><ele>244.75</ele><time>2026-05-03T17:12:20.599Z</time></trkpt><trkpt lat="45.971697" lon="12.1622249"><ele>249.5</ele><time>2026-05-03T17:12:21.599Z</time></trkpt><trkpt lat="45.9716989" lon="12.1624206"><ele>254.25</ele><time>2026-05-03T17:12:22.599Z</time></trkpt><trkpt lat="45.9717012" lon="12.1626215"><ele>259.0</ele><time>2026-05-03T17:12:23.599Z</time></trkpt><trkpt lat="45.971699" lon="12.1628254"><ele>259.0</ele><time>2026-05-03T17:12:24.598Z</time></trkpt><trkpt lat="45.9716991" lon="12.1630281"><ele>259.0</ele><time>2026-05-03T17:12:25.599Z</time></trkpt><trkpt lat="45.9717031" lon="12.1632356"><ele>259.0</ele><time>2026-05-03T17:12:26.599Z</time></trkpt><trkpt lat="45.9717065" lon="12.1634469"><ele>259.0</ele><time>2026-05-03T17:12:27.598Z</time></trkpt><trkpt lat="45.9717085" lon="12.1636553"><ele>259.0</ele><time>2026-05-03T17:12:28.598Z</time></trkpt><trkpt lat="45.971711" lon="12.1638665"><ele>259.0</ele><time>2026-05-03T17:12:29.599Z</time></trkpt><trkpt lat="45.9717126" lon="12.1640808"><ele>259.0</ele><time>2026-05-03T17:12:30.598Z</time></trkpt><trkpt lat="45.9717161" lon="12.1642942"><ele>259.0</ele><time>2026-05-03T17:12:31.598Z</time></trkpt><trkpt lat="45.9717206" lon="12.1645089"><ele>259.0</ele><time>2026-05-03T17:12:32.599Z</time></trkpt><trkpt lat="45.9717256" lon="12.1647236"><ele>259.0</ele><time>2026-05-03T17:12:33.599Z</time></trkpt><trkpt lat="45.9717296" lon="12.1649363"><ele>259.0</ele><time>2026-05-03T17:12:34.599Z</time></trkpt><trkpt lat="45.9717367" lon="12.1651526"><ele>259.0</ele><time>2026-05-03T17:12:35.598Z</time></trkpt><trkpt lat="45.9717426" lon="12.1653695"><ele>259.66666666666663</ele><time>2026-05-03T17:12:36.599Z</time></trkpt><trkpt lat="45.9717483" lon="12.1655859"><ele>260.3333333333333</ele><time>2026-05-03T17:12:37.598Z</time></trkpt><trkpt lat="45.971755" lon="12.1658055"><ele>261.0</ele><time>2026-05-03T17:12:38.598Z</time></trkpt><trkpt lat="45.9717621" lon="12.1660217"><ele>262.3333333333333</ele><time>2026-05-03T17:12:39.598Z</time></trkpt><trkpt lat="45.9717729" lon="12.166238"><ele>263.66666666666663</ele><time>2026-05-03T17:12:40.598Z</time></trkpt><trkpt lat="45.9717902" lon="12.1664522"><ele>265.0</ele><time>2026-05-03T17:12:41.599Z</time></trkpt><trkpt lat="45.971816" lon="12.1666683"><ele>266.66666666666663</ele><time>2026-05-03T17:12:42.599Z</time></trkpt><trkpt lat="45.9718501" lon="12.1668886"><ele>268.3333333333333</ele><time>2026-05-03T17:12:43.599Z</time></trkpt><trkpt lat="45.9718867" lon="12.1671109"><ele>270.0</ele><time>2026-05-03T17:12:44.599Z</time></trkpt><trkpt lat="45.9719259" lon="12.1673293"><ele>269.3333333333333</ele><time>2026-05-03T17:12:45.599Z</time></trkpt><trkpt lat="45.971965" lon="12.1675479"><ele>268.66666666666663</ele><time>2026-05-03T17:12:46.599Z</time></trkpt><trkpt lat="45.9720052" lon="12.1677658"><ele>268.0</ele><time>2026-05-03T17:12:47.599Z</time></trkpt><trkpt lat="45.9720422" lon="12.1679835"><ele>266.66666666666663</ele><time>2026-05-03T17:12:48.599Z</time></trkpt><trkpt lat="45.9720784" lon="12.1681964"><ele>265.3333333333333</ele><time>2026-05-03T17:12:49.598Z</time></trkpt><trkpt lat="45.9721145" lon="12.1684079"><ele>264.0</ele><time>2026-05-03T17:12:50.598Z</time></trkpt><trkpt lat="45.9721516" lon="12.1686162"><ele>264.0</ele><time>2026-05-03T17:12:51.599Z</time></trkpt><trkpt lat="45.9721902" lon="12.1688237"><ele>264.0</ele><time>2026-05-03T17:12:52.599Z</time></trkpt><trkpt lat="45.9722297" lon="12.1690322"><ele>264.0</ele><time>2026-05-03T17:12:53.598Z</time></trkpt><trkpt lat="45.9722676" lon="12.1692417"><ele>261.3333333333333</ele><time>2026-05-03T17:12:54.599Z</time></trkpt><trkpt lat="45.9723066" lon="12.1694536"><ele>258.66666666666663</ele><time>2026-05-03T17:12:55.599Z</time></trkpt><trkpt lat="45.9723469" lon="12.169662"><ele>256.0</ele><time>2026-05-03T17:12:56.598Z</time></trkpt><trkpt lat="45.9723848" lon="12.1698693"><ele>253.0</ele><time>2026-05-03T17:12:57.599Z</time></trkpt><trkpt lat="45.972419" lon="12.17008"><ele>250.0</ele><time>2026-05-03T17:12:58.598Z</time></trkpt><trkpt lat="45.9724559" lon="12.1702914"><ele>247.0</ele><time>2026-05-03T17:12:59.598Z</time></trkpt><trkpt lat="45.9724955" lon="12.1704985"><ele>263.66666666666663</ele><time>2026-05-03T17:13:00.599Z</time></trkpt><trkpt lat="45.97254" lon="12.1707137"><ele>280.3333333333333</ele><time>2026-05-03T17:13:01.598Z</time></trkpt><trkpt lat="45.9725925" lon="12.1709286"><ele>297.0</ele><time>2026-05-03T17:13:02.599Z</time></trkpt><trkpt lat="45.9726485" lon="12.1711413"><ele>297.0</ele><time>2026-05-03T17:13:03.599Z</time></trkpt><trkpt lat="45.9727059" lon="12.1713557"><ele>297.0</ele><time>2026-05-03T17:13:04.598Z</time></trkpt><trkpt lat="45.9727637" lon="12.1715669"><ele>297.0</ele><time>2026-05-03T17:13:05.598Z</time></trkpt><trkpt lat="45.9728233" lon="12.1717789"><ele>289.6666666666667</ele><time>2026-05-03T17:13:06.598Z</time></trkpt><trkpt lat="45.9728868" lon="12.17199"><ele>282.33333333333337</ele><time>2026-05-03T17:13:07.598Z</time></trkpt><trkpt lat="45.9729502" lon="12.1721979"><ele>275.0</ele><time>2026-05-03T17:13:08.598Z</time></trkpt><trkpt lat="45.9730112" lon="12.1724066"><ele>267.33333333333337</ele><time>2026-05-03T17:13:09.598Z</time></trkpt><trkpt lat="45.9730739" lon="12.1726143"><ele>259.6666666666667</ele><time>2026-05-03T17:13:10.598Z</time></trkpt><trkpt lat="45.973135" lon="12.1728235"><ele>252.0</ele><time>2026-05-03T17:13:11.598Z</time></trkpt><trkpt lat="45.9731963" lon="12.1730315"><ele>251.66666666666669</ele><time>2026-05-03T17:13:12.598Z</time></trkpt><trkpt lat="45.9732561" lon="12.1732359"><ele>251.33333333333334</ele><time>2026-05-03T17:13:13.598Z</time></trkpt><trkpt lat="45.9733106" lon="12.1734415"><ele>251.0</ele><time>2026-05-03T17:13:14.598Z</time></trkpt><trkpt lat="45.9733639" lon="12.1736454"><ele>251.0</ele><time>2026-05-03T17:13:15.598Z</time></trkpt><trkpt lat="45.9734153" lon="12.1738537"><ele>251.0</ele><time>2026-05-03T17:13:16.599Z</time></trkpt><trkpt lat="45.9734635" lon="12.1740626"><ele>251.0</ele><time>2026-05-03T17:13:17.598Z</time></trkpt><trkpt lat="45.973508" lon="12.1742764"><ele>247.33333333333334</ele><time>2026-05-03T17:13:18.598Z</time></trkpt><trkpt lat="45.9735476" lon="12.1744915"><ele>243.66666666666669</ele><time>2026-05-03T17:13:19.598Z</time></trkpt><trkpt lat="45.9735831" lon="12.1747049"><ele>240.0</ele><time>2026-05-03T17:13:20.599Z</time></trkpt><trkpt lat="45.9736126" lon="12.1749252"><ele>240.0</ele><time>2026-05-03T17:13:21.598Z</time></trkpt><trkpt lat="45.9736422" lon="12.1751442"><ele>240.0</ele><time>2026-05-03T17:13:22.598Z</time></trkpt><trkpt lat="45.9736702" lon="12.1753657"><ele>240.0</ele><time>2026-05-03T17:13:23.599Z</time></trkpt><trkpt lat="45.9736987" lon="12.1755846"><ele>239.0</ele><time>2026-05-03T17:13:24.598Z</time></trkpt><trkpt lat="45.973726" lon="12.1757957"><ele>238.0</ele><time>2026-05-03T17:13:25.599Z</time></trkpt><trkpt lat="45.9737507" lon="12.1759895"><ele>237.0</ele><time>2026-05-03T17:13:26.598Z</time></trkpt><trkpt lat="45.9737761" lon="12.1761709"><ele>236.0</ele><time>2026-05-03T17:13:27.598Z</time></trkpt><trkpt lat="45.9738" lon="12.1763418"><ele>236.0</ele><time>2026-05-03T17:13:28.599Z</time></trkpt><trkpt lat="45.9738259" lon="12.1765041"><ele>236.0</ele><time>2026-05-03T17:13:29.598Z</time></trkpt><trkpt lat="45.9738515" lon="12.1766578"><ele>236.0</ele><time>2026-05-03T17:13:30.598Z</time></trkpt><trkpt lat="45.9738769" lon="12.1768151"><ele>236.0</ele><time>2026-05-03T17:13:31.599Z</time></trkpt><trkpt lat="45.9739048" lon="12.1769886"><ele>236.0</ele><time>2026-05-03T17:13:32.598Z</time></trkpt><trkpt lat="45.9739298" lon="12.1771728"><ele>236.0</ele><time>2026-05-03T17:13:33.598Z</time></trkpt><trkpt lat="45.9739559" lon="12.1773648"><ele>236.0</ele><time>2026-05-03T17:13:34.598Z</time></trkpt><trkpt lat="45.973984" lon="12.1775651"><ele>236.0</ele><time>2026-05-03T17:13:35.598Z</time></trkpt><trkpt lat="45.9740145" lon="12.1777751"><ele>236.0</ele><time>2026-05-03T17:13:36.599Z</time></trkpt><trkpt lat="45.9740435" lon="12.1779899"><ele>236.0</ele><time>2026-05-03T17:13:37.599Z</time></trkpt><trkpt lat="45.9740753" lon="12.1782106"><ele>236.0</ele><time>2026-05-03T17:13:38.598Z</time></trkpt><trkpt lat="45.9741056" lon="12.1784378"><ele>236.33333333333334</ele><time>2026-05-03T17:13:39.599Z</time></trkpt><trkpt lat="45.9741398" lon="12.1786716"><ele>236.66666666666669</ele><time>2026-05-03T17:13:40.598Z</time></trkpt><trkpt lat="45.9741755" lon="12.1789125"><ele>237.0</ele><time>2026-05-03T17:13:41.599Z</time></trkpt><trkpt lat="45.9742121" lon="12.1791532"><ele>237.0</ele><time>2026-05-03T17:13:42.599Z</time></trkpt><trkpt lat="45.9742465" lon="12.1793965"><ele>237.0</ele><time>2026-05-03T17:13:43.598Z</time></trkpt><trkpt lat="45.9742797" lon="12.1796343"><ele>237.0</ele><time>2026-05-03T17:13:44.599Z</time></trkpt><trkpt lat="45.9743121" lon="12.1798723"><ele>236.0</ele><time>2026-05-03T17:13:45.599Z</time></trkpt><trkpt lat="45.9743463" lon="12.1801115"><ele>235.0</ele><time>2026-05-03T17:13:46.598Z</time></trkpt><trkpt lat="45.9743781" lon="12.180351"><ele>234.0</ele><time>2026-05-03T17:13:47.599Z</time></trkpt><trkpt lat="45.974412" lon="12.1805899"><ele>233.33333333333331</ele><time>2026-05-03T17:13:48.599Z</time></trkpt><trkpt lat="45.9744473" lon="12.1808257"><ele>232.66666666666666</ele><time>2026-05-03T17:13:49.599Z</time></trkpt><trkpt lat="45.9744822" lon="12.181063"><ele>232.0</ele><time>2026-05-03T17:13:50.599Z</time></trkpt><trkpt lat="45.974516" lon="12.181302"><ele>231.66666666666666</ele><time>2026-05-03T17:13:51.599Z</time></trkpt><trkpt lat="45.9745503" lon="12.1815401"><ele>231.33333333333331</ele><time>2026-05-03T17:13:52.598Z</time></trkpt><trkpt lat="45.9745845" lon="12.1817757"><ele>231.0</ele><time>2026-05-03T17:13:53.599Z</time></trkpt><trkpt lat="45.9746181" lon="12.1820102"><ele>231.0</ele><time>2026-05-03T17:13:54.598Z</time></trkpt><trkpt lat="45.9746513" lon="12.1822455"><ele>231.0</ele><time>2026-05-03T17:13:55.599Z</time></trkpt><trkpt lat="45.9746853" lon="12.1824801"><ele>231.0</ele><time>2026-05-03T17:13:56.599Z</time></trkpt><trkpt lat="45.9747214" lon="12.1827148"><ele>232.66666666666669</ele><time>2026-05-03T17:13:57.598Z</time></trkpt><trkpt lat="45.9747558" lon="12.1829493"><ele>234.33333333333334</ele><time>2026-05-03T17:13:58.599Z</time></trkpt><trkpt lat="45.9747895" lon="12.1831858"><ele>236.0</ele><time>2026-05-03T17:13:59.598Z</time></trkpt><trkpt lat="45.9748252" lon="12.1834176"><ele>235.66666666666669</ele><time>2026-05-03T17:14:00.599Z</time></trkpt><trkpt lat="45.9748577" lon="12.1836538"><ele>235.33333333333331</ele><time>2026-05-03T17:14:01.598Z</time></trkpt><trkpt lat="45.9748931" lon="12.18389"><ele>235.0</ele><time>2026-05-03T17:14:02.598Z</time></trkpt><trkpt lat="45.9749242" lon="12.1841282"><ele>235.0</ele><time>2026-05-03T17:14:03.598Z</time></trkpt><trkpt lat="45.9749573" lon="12.1843663"><ele>235.0</ele><time>2026-05-03T17:14:04.598Z</time></trkpt><trkpt lat="45.9749916" lon="12.1846021"><ele>235.0</ele><time>2026-05-03T17:14:05.598Z</time></trkpt><trkpt lat="45.9750257" lon="12.1848398"><ele>239.0</ele><time>2026-05-03T17:14:06.598Z</time></trkpt><trkpt lat="45.9750637" lon="12.1850725"><ele>243.0</ele><time>2026-05-03T17:14:07.599Z</time></trkpt><trkpt lat="45.9751033" lon="12.1853054"><ele>247.0</ele><time>2026-05-03T17:14:08.599Z</time></trkpt><trkpt lat="45.9751479" lon="12.1855353"><ele>245.0</ele><time>2026-05-03T17:14:09.598Z</time></trkpt><trkpt lat="45.9752009" lon="12.185764"><ele>243.0</ele><time>2026-05-03T17:14:10.599Z</time></trkpt><trkpt lat="45.9752684" lon="12.1859854"><ele>241.0</ele><time>2026-05-03T17:14:11.598Z</time></trkpt><trkpt lat="45.9753427" lon="12.186207"><ele>241.0</ele><time>2026-05-03T17:14:12.598Z</time></trkpt><trkpt lat="45.9754217" lon="12.1864247"><ele>241.0</ele><time>2026-05-03T17:14:13.599Z</time></trkpt><trkpt lat="45.9755049" lon="12.1866425"><ele>241.0</ele><time>2026-05-03T17:14:14.598Z</time></trkpt><trkpt lat="45.9755917" lon="12.1868566"><ele>240.66666666666666</ele><time>2026-05-03T17:14:15.598Z</time></trkpt><trkpt lat="45.9756798" lon="12.1870731"><ele>240.33333333333331</ele><time>2026-05-03T17:14:16.598Z</time></trkpt><trkpt lat="45.9757708" lon="12.1872892"><ele>240.0</ele><time>2026-05-03T17:14:17.598Z</time></trkpt><trkpt lat="45.9758615" lon="12.1875038"><ele>240.0</ele><time>2026-05-03T17:14:18.599Z</time></trkpt><trkpt lat="45.9759524" lon="12.1877197"><ele>240.0</ele><time>2026-05-03T17:14:19.599Z</time></trkpt><trkpt lat="45.9760446" lon="12.1879349"><ele>240.0</ele><time>2026-05-03T17:14:20.598Z</time></trkpt><trkpt lat="45.9761365" lon="12.1881473"><ele>237.66666666666669</ele><time>2026-05-03T17:14:21.598Z</time></trkpt><trkpt lat="45.9762269" lon="12.188359"><ele>235.33333333333334</ele><time>2026-05-03T17:14:22.598Z</time></trkpt><trkpt lat="45.9763164" lon="12.1885726"><ele>233.0</ele><time>2026-05-03T17:14:23.598Z</time></trkpt><trkpt lat="45.9764042" lon="12.188785"><ele>233.0</ele><time>2026-05-03T17:14:24.599Z</time></trkpt><trkpt lat="45.976491" lon="12.1889989"><ele>233.0</ele><time>2026-05-03T17:14:25.599Z</time></trkpt><trkpt lat="45.9765753" lon="12.1892163"><ele>233.0</ele><time>2026-05-03T17:14:26.598Z</time></trkpt><trkpt lat="45.9766568" lon="12.1894419"><ele>232.66666666666669</ele><time>2026-05-03T17:14:27.599Z</time></trkpt><trkpt lat="45.9767309" lon="12.18967"><ele>232.33333333333331</ele><time>2026-05-03T17:14:28.598Z</time></trkpt><trkpt lat="45.976802" lon="12.1899022"><ele>232.0</ele><time>2026-05-03T17:14:29.599Z</time></trkpt><trkpt lat="45.9768736" lon="12.1901371"><ele>232.0</ele><time>2026-05-03T17:14:30.599Z</time></trkpt><trkpt lat="45.9769431" lon="12.1903724"><ele>232.0</ele><time>2026-05-03T17:14:31.598Z</time></trkpt><trkpt lat="45.9770143" lon="12.1906113"><ele>232.0</ele><time>2026-05-03T17:14:32.598Z</time></trkpt><trkpt lat="45.9770845" lon="12.1908518"><ele>230.66666666666666</ele><time>2026-05-03T17:14:33.598Z</time></trkpt><trkpt lat="45.9771577" lon="12.1910914"><ele>229.33333333333331</ele><time>2026-05-03T17:14:34.599Z</time></trkpt><trkpt lat="45.9772294" lon="12.1913328"><ele>228.0</ele><time>2026-05-03T17:14:35.598Z</time></trkpt><trkpt lat="45.9773021" lon="12.1915722"><ele>228.0</ele><time>2026-05-03T17:14:36.598Z</time></trkpt><trkpt lat="45.9773735" lon="12.1918095"><ele>228.0</ele><time>2026-05-03T17:14:37.598Z</time></trkpt><trkpt lat="45.9774495" lon="12.1920512"><ele>228.0</ele><time>2026-05-03T17:14:38.598Z</time></trkpt><trkpt lat="45.9775249" lon="12.1922925"><ele>229.33333333333331</ele><time>2026-05-03T17:14:39.598Z</time></trkpt><trkpt lat="45.9776011" lon="12.1925331"><ele>230.66666666666666</ele><time>2026-05-03T17:14:40.598Z</time></trkpt><trkpt lat="45.9776722" lon="12.1927754"><ele>232.0</ele><time>2026-05-03T17:14:41.599Z</time></trkpt><trkpt lat="45.977745" lon="12.1930193"><ele>231.66666666666666</ele><time>2026-05-03T17:14:42.599Z</time></trkpt><trkpt lat="45.9778187" lon="12.193263"><ele>231.33333333333331</ele><time>2026-05-03T17:14:43.598Z</time></trkpt><trkpt lat="45.9778915" lon="12.1935061"><ele>231.0</ele><time>2026-05-03T17:14:44.598Z</time></trkpt><trkpt lat="45.9779654" lon="12.1937487"><ele>231.0</ele><time>2026-05-03T17:14:45.599Z</time></trkpt><trkpt lat="45.9780355" lon="12.1939913"><ele>231.0</ele><time>2026-05-03T17:14:46.599Z</time></trkpt><trkpt lat="45.9781077" lon="12.1942324"><ele>231.0</ele><time>2026-05-03T17:14:47.599Z</time></trkpt><trkpt lat="45.9781818" lon="12.1944725"><ele>231.0</ele><time>2026-05-03T17:14:48.598Z</time></trkpt><trkpt lat="45.9782538" lon="12.1947103"><ele>231.0</ele><time>2026-05-03T17:14:49.599Z</time></trkpt><trkpt lat="45.9783248" lon="12.1949498"><ele>231.0</ele><time>2026-05-03T17:14:50.598Z</time></trkpt><trkpt lat="45.9783948" lon="12.1951877"><ele>231.0</ele><time>2026-05-03T17:14:51.599Z</time></trkpt><trkpt lat="45.9784677" lon="12.1954252"><ele>231.0</ele><time>2026-05-03T17:14:52.599Z</time></trkpt><trkpt lat="45.978538" lon="12.1956591"><ele>231.0</ele><time>2026-05-03T17:14:53.598Z</time></trkpt><trkpt lat="45.9786079" lon="12.1958916"><ele>229.66666666666669</ele><time>2026-05-03T17:14:54.599Z</time></trkpt><trkpt lat="45.9786786" lon="12.1961207"><ele>228.33333333333334</ele><time>2026-05-03T17:14:55.599Z</time></trkpt><trkpt lat="45.9787547" lon="12.1963408"><ele>227.0</ele><time>2026-05-03T17:14:56.598Z</time></trkpt><trkpt lat="45.9788356" lon="12.1965547"><ele>226.66666666666669</ele><time>2026-05-03T17:14:57.599Z</time></trkpt><trkpt lat="45.9789194" lon="12.1967654"><ele>226.33333333333331</ele><time>2026-05-03T17:14:58.598Z</time></trkpt><trkpt lat="45.9790043" lon="12.1969695"><ele>226.0</ele><time>2026-05-03T17:14:59.598Z</time></trkpt><trkpt lat="45.979089" lon="12.1971696"><ele>226.33333333333331</ele><time>2026-05-03T17:15:00.599Z</time></trkpt><trkpt lat="45.9791774" lon="12.1973654"><ele>226.66666666666669</ele><time>2026-05-03T17:15:01.599Z</time></trkpt><trkpt lat="45.9792666" lon="12.1975598"><ele>227.0</ele><time>2026-05-03T17:15:02.599Z</time></trkpt><trkpt lat="45.9793507" lon="12.1977596"><ele>228.0</ele><time>2026-05-03T17:15:03.598Z</time></trkpt><trkpt lat="45.9794373" lon="12.1979587"><ele>229.0</ele><time>2026-05-03T17:15:04.599Z</time></trkpt><trkpt lat="45.9795249" lon="12.1981567"><ele>230.0</ele><time>2026-05-03T17:15:05.599Z</time></trkpt><trkpt lat="45.9796119" lon="12.198355"><ele>230.0</ele><time>2026-05-03T17:15:06.598Z</time></trkpt><trkpt lat="45.9797005" lon="12.198556"><ele>230.0</ele><time>2026-05-03T17:15:07.599Z</time></trkpt><trkpt lat="45.9797886" lon="12.1987595"><ele>230.0</ele><time>2026-05-03T17:15:08.598Z</time></trkpt><trkpt lat="45.9798794" lon="12.1989655"><ele>230.0</ele><time>2026-05-03T17:15:09.598Z</time></trkpt><trkpt lat="45.9799692" lon="12.1991677"><ele>230.0</ele><time>2026-05-03T17:15:10.598Z</time></trkpt><trkpt lat="45.9800591" lon="12.1993708"><ele>230.0</ele><time>2026-05-03T17:15:11.598Z</time></trkpt><trkpt lat="45.9801478" lon="12.199577"><ele>230.66666666666669</ele><time>2026-05-03T17:15:12.598Z</time></trkpt><trkpt lat="45.9802361" lon="12.1997786"><ele>231.33333333333331</ele><time>2026-05-03T17:15:13.598Z</time></trkpt><trkpt lat="45.9803254" lon="12.1999808"><ele>232.0</ele><time>2026-05-03T17:15:14.598Z</time></trkpt><trkpt lat="45.9804149" lon="12.200182"><ele>232.0</ele><time>2026-05-03T17:15:15.599Z</time></trkpt><trkpt lat="45.9805017" lon="12.2003814"><ele>232.0</ele><time>2026-05-03T17:15:16.599Z</time></trkpt><trkpt lat="45.9805876" lon="12.2005757"><ele>232.0</ele><time>2026-05-03T17:15:17.599Z</time></trkpt><trkpt lat="45.9806711" lon="12.2007552"><ele>231.0</ele><time>2026-05-03T17:15:18.599Z</time></trkpt><trkpt lat="45.9807478" lon="12.2009265"><ele>230.0</ele><time>2026-05-03T17:15:19.599Z</time></trkpt><trkpt lat="45.9808255" lon="12.2010962"><ele>229.0</ele><time>2026-05-03T17:15:20.598Z</time></trkpt><trkpt lat="45.9809042" lon="12.2012683"><ele>228.0</ele><time>2026-05-03T17:15:21.598Z</time></trkpt><trkpt lat="45.980985" lon="12.201446"><ele>229.66666666666669</ele><time>2026-05-03T17:15:22.599Z</time></trkpt><trkpt lat="45.9810626" lon="12.2016285"><ele>231.33333333333334</ele><time>2026-05-03T17:15:23.598Z</time></trkpt><trkpt lat="45.9811344" lon="12.2018179"><ele>233.0</ele><time>2026-05-03T17:15:24.598Z</time></trkpt><trkpt lat="45.9812072" lon="12.2020099"><ele>233.0</ele><time>2026-05-03T17:15:25.599Z</time></trkpt><trkpt lat="45.9812749" lon="12.2022084"><ele>233.0</ele><time>2026-05-03T17:15:26.598Z</time></trkpt><trkpt lat="45.9813436" lon="12.2024146"><ele>233.0</ele><time>2026-05-03T17:15:27.599Z</time></trkpt><trkpt lat="45.9814081" lon="12.2026286"><ele>233.0</ele><time>2026-05-03T17:15:28.599Z</time></trkpt><trkpt lat="45.9814704" lon="12.2028464"><ele>233.0</ele><time>2026-05-03T17:15:29.599Z</time></trkpt><trkpt lat="45.9815344" lon="12.2030662"><ele>233.0</ele><time>2026-05-03T17:15:30.599Z</time></trkpt><trkpt lat="45.9815997" lon="12.2032881"><ele>233.0</ele><time>2026-05-03T17:15:31.598Z</time></trkpt><trkpt lat="45.9816619" lon="12.2035125"><ele>233.0</ele><time>2026-05-03T17:15:32.598Z</time></trkpt><trkpt lat="45.9817255" lon="12.2037389"><ele>233.0</ele><time>2026-05-03T17:15:33.598Z</time></trkpt><trkpt lat="45.9817893" lon="12.2039677"><ele>235.0</ele><time>2026-05-03T17:15:34.599Z</time></trkpt><trkpt lat="45.9818532" lon="12.2041967"><ele>237.0</ele><time>2026-05-03T17:15:35.598Z</time></trkpt><trkpt lat="45.9819182" lon="12.2044273"><ele>239.0</ele><time>2026-05-03T17:15:36.599Z</time></trkpt><trkpt lat="45.9819808" lon="12.2046601"><ele>238.0</ele><time>2026-05-03T17:15:37.598Z</time></trkpt><trkpt lat="45.9820457" lon="12.2048946"><ele>237.0</ele><time>2026-05-03T17:15:38.599Z</time></trkpt><trkpt lat="45.9821121" lon="12.2051271"><ele>236.0</ele><time>2026-05-03T17:15:39.598Z</time></trkpt><trkpt lat="45.9821786" lon="12.2053636"><ele>236.0</ele><time>2026-05-03T17:15:40.598Z</time></trkpt><trkpt lat="45.9822457" lon="12.2056004"><ele>236.0</ele><time>2026-05-03T17:15:41.598Z</time></trkpt><trkpt lat="45.9823109" lon="12.2058374"><ele>236.0</ele><time>2026-05-03T17:15:42.599Z</time></trkpt><trkpt lat="45.9823786" lon="12.2060747"><ele>236.0</ele><time>2026-05-03T17:15:43.599Z</time></trkpt><trkpt lat="45.9824472" lon="12.2063137"><ele>236.0</ele><time>2026-05-03T17:15:44.598Z</time></trkpt><trkpt lat="45.9825154" lon="12.2065529"><ele>236.0</ele><time>2026-05-03T17:15:45.598Z</time></trkpt><trkpt lat="45.9825836" lon="12.2067938"><ele>236.0</ele><time>2026-05-03T17:15:46.598Z</time></trkpt><trkpt lat="45.9826496" lon="12.2070339"><ele>236.0</ele><time>2026-05-03T17:15:47.598Z</time></trkpt><trkpt lat="45.9827137" lon="12.207276"><ele>236.0</ele><time>2026-05-03T17:15:48.599Z</time></trkpt><trkpt lat="45.9827812" lon="12.2075181"><ele>236.33333333333334</ele><time>2026-05-03T17:15:49.598Z</time></trkpt><trkpt lat="45.9828497" lon="12.2077607"><ele>236.66666666666669</ele><time>2026-05-03T17:15:50.599Z</time></trkpt><trkpt lat="45.9829145" lon="12.2080063"><ele>237.0</ele><time>2026-05-03T17:15:51.599Z</time></trkpt><trkpt lat="45.9829822" lon="12.2082432"><ele>235.66666666666669</ele><time>2026-05-03T17:15:52.599Z</time></trkpt><trkpt lat="45.9830464" lon="12.2084794"><ele>234.33333333333334</ele><time>2026-05-03T17:15:53.598Z</time></trkpt><trkpt lat="45.9831052" lon="12.2087002"><ele>233.0</ele><time>2026-05-03T17:15:54.598Z</time></trkpt><trkpt lat="45.9831653" lon="12.2089054"><ele>232.75</ele><time>2026-05-03T17:15:55.599Z</time></trkpt><trkpt lat="45.9832239" lon="12.209101"><ele>232.5</ele><time>2026-05-03T17:15:56.598Z</time></trkpt><trkpt lat="45.9832822" lon="12.2092795"><ele>232.25</ele><time>2026-05-03T17:15:57.599Z</time></trkpt><trkpt lat="45.9833383" lon="12.2094505"><ele>232.0</ele><time>2026-05-03T17:15:58.598Z</time></trkpt><trkpt lat="45.9833926" lon="12.2096085"><ele>232.39999999999998</ele><time>2026-05-03T17:15:59.598Z</time></trkpt><trkpt lat="45.983443" lon="12.2097516"><ele>232.79999999999998</ele><time>2026-05-03T17:16:00.598Z</time></trkpt><trkpt lat="45.9834894" lon="12.2098904"><ele>233.2</ele><time>2026-05-03T17:16:01.598Z</time></trkpt><trkpt lat="45.9835236" lon="12.210021"><ele>233.6</ele><time>2026-05-03T17:16:02.598Z</time></trkpt><trkpt lat="45.9835465" lon="12.210143"><ele>234.0</ele><time>2026-05-03T17:16:03.599Z</time></trkpt><trkpt lat="45.9835566" lon="12.2102629"><ele>234.0</ele><time>2026-05-03T17:16:04.599Z</time></trkpt><trkpt lat="45.983552" lon="12.2103821"><ele>233.99999999999997</ele><time>2026-05-03T17:16:05.598Z</time></trkpt><trkpt lat="45.9835336" lon="12.2105106"><ele>233.99999999999997</ele><time>2026-05-03T17:16:06.598Z</time></trkpt><trkpt lat="45.9835001" lon="12.2106393"><ele>234.0</ele><time>2026-05-03T17:16:07.599Z</time></trkpt><trkpt lat="45.9834479" lon="12.2107616"><ele>234.0</ele><time>2026-05-03T17:16:08.599Z</time></trkpt><trkpt lat="45.9833812" lon="12.2108703"><ele>232.39999999999998</ele><time>2026-05-03T17:16:09.599Z</time></trkpt><trkpt lat="45.9833" lon="12.2109651"><ele>230.79999999999998</ele><time>2026-05-03T17:16:10.599Z</time></trkpt><trkpt lat="45.9832104" lon="12.2110439"><ele>229.20000000000002</ele><time>2026-05-03T17:16:11.599Z</time></trkpt><trkpt lat="45.9831143" lon="12.2111155"><ele>227.60000000000002</ele><time>2026-05-03T17:16:12.598Z</time></trkpt><trkpt lat="45.9830194" lon="12.2111872"><ele>226.0</ele><time>2026-05-03T17:16:13.598Z</time></trkpt><trkpt lat="45.9829227" lon="12.2112589"><ele>226.0</ele><time>2026-05-03T17:16:14.598Z</time></trkpt><trkpt lat="45.982822" lon="12.2113269"><ele>226.0</ele><time>2026-05-03T17:16:15.599Z</time></trkpt><trkpt lat="45.9827148" lon="12.2114006"><ele>226.0</ele><time>2026-05-03T17:16:16.598Z</time></trkpt><trkpt lat="45.9826035" lon="12.2114779"><ele>226.0</ele><time>2026-05-03T17:16:17.599Z</time></trkpt><trkpt lat="45.9824851" lon="12.2115621"><ele>225.25</ele><time>2026-05-03T17:16:18.599Z</time></trkpt><trkpt lat="45.9823647" lon="12.2116431"><ele>224.5</ele><time>2026-05-03T17:16:19.598Z</time></trkpt><trkpt lat="45.9822367" lon="12.2117375"><ele>223.75</ele><time>2026-05-03T17:16:20.599Z</time></trkpt><trkpt lat="45.9821068" lon="12.2118313"><ele>223.0</ele><time>2026-05-03T17:16:21.598Z</time></trkpt><trkpt lat="45.9819737" lon="12.2119236"><ele>223.0</ele><time>2026-05-03T17:16:22.598Z</time></trkpt><trkpt lat="45.9818399" lon="12.2120172"><ele>223.0</ele><time>2026-05-03T17:16:23.598Z</time></trkpt><trkpt lat="45.981702" lon="12.2121119"><ele>223.0</ele><time>2026-05-03T17:16:24.599Z</time></trkpt><trkpt lat="45.9815664" lon="12.2122048"><ele>223.33333333333331</ele><time>2026-05-03T17:16:25.598Z</time></trkpt><trkpt lat="45.981431" lon="12.2122989"><ele>223.66666666666669</ele><time>2026-05-03T17:16:26.598Z</time></trkpt><trkpt lat="45.9812952" lon="12.2123936"><ele>224.0</ele><time>2026-05-03T17:16:27.599Z</time></trkpt><trkpt lat="45.9811611" lon="12.2124875"><ele>224.0</ele><time>2026-05-03T17:16:28.599Z</time></trkpt><trkpt lat="45.9810277" lon="12.2125848"><ele>224.0</ele><time>2026-05-03T17:16:29.598Z</time></trkpt><trkpt lat="45.9808944" lon="12.2126766"><ele>224.0</ele><time>2026-05-03T17:16:30.598Z</time></trkpt><trkpt lat="45.9807598" lon="12.2127702"><ele>224.0</ele><time>2026-05-03T17:16:31.598Z</time></trkpt><trkpt lat="45.9806225" lon="12.2128661"><ele>224.33333333333334</ele><time>2026-05-03T17:16:32.598Z</time></trkpt><trkpt lat="45.9804872" lon="12.2129603"><ele>224.66666666666669</ele><time>2026-05-03T17:16:33.599Z</time></trkpt><trkpt lat="45.9803514" lon="12.2130532"><ele>225.0</ele><time>2026-05-03T17:16:34.599Z</time></trkpt><trkpt lat="45.9802149" lon="12.2131479"><ele>225.25</ele><time>2026-05-03T17:16:35.599Z</time></trkpt><trkpt lat="45.9800806" lon="12.2132427"><ele>225.5</ele><time>2026-05-03T17:16:36.598Z</time></trkpt><trkpt lat="45.9799492" lon="12.2133349"><ele>225.75</ele><time>2026-05-03T17:16:37.598Z</time></trkpt><trkpt lat="45.9798157" lon="12.2134248"><ele>226.0</ele><time>2026-05-03T17:16:38.599Z</time></trkpt><trkpt lat="45.9796835" lon="12.2135133"><ele>225.5</ele><time>2026-05-03T17:16:39.599Z</time></trkpt><trkpt lat="45.9795521" lon="12.2136095"><ele>225.0</ele><time>2026-05-03T17:16:40.598Z</time></trkpt><trkpt lat="45.9794209" lon="12.2137033"><ele>224.5</ele><time>2026-05-03T17:16:41.599Z</time></trkpt><trkpt lat="45.9792894" lon="12.2137985"><ele>224.0</ele><time>2026-05-03T17:16:42.599Z</time></trkpt><trkpt lat="45.9791552" lon="12.2138943"><ele>224.0</ele><time>2026-05-03T17:16:43.598Z</time></trkpt><trkpt lat="45.9790253" lon="12.2139854"><ele>224.0</ele><time>2026-05-03T17:16:44.599Z</time></trkpt><trkpt lat="45.9788943" lon="12.2140747"><ele>224.0</ele><time>2026-05-03T17:16:45.598Z</time></trkpt><trkpt lat="45.9787643" lon="12.214168"><ele>224.0</ele><time>2026-05-03T17:16:46.598Z</time></trkpt><trkpt lat="45.9786331" lon="12.2142634"><ele>224.25</ele><time>2026-05-03T17:16:47.598Z</time></trkpt><trkpt lat="45.9785025" lon="12.2143562"><ele>224.5</ele><time>2026-05-03T17:16:48.598Z</time></trkpt><trkpt lat="45.9783726" lon="12.2144446"><ele>224.75</ele><time>2026-05-03T17:16:49.598Z</time></trkpt><trkpt lat="45.978242" lon="12.2145307"><ele>225.0</ele><time>2026-05-03T17:16:50.598Z</time></trkpt><trkpt lat="45.978114" lon="12.2146196"><ele>225.0</ele><time>2026-05-03T17:16:51.598Z</time></trkpt><trkpt lat="45.9779858" lon="12.2147043"><ele>225.0</ele><time>2026-05-03T17:16:52.598Z</time></trkpt><trkpt lat="45.97786" lon="12.2147926"><ele>225.0</ele><time>2026-05-03T17:16:53.599Z</time></trkpt><trkpt lat="45.9777331" lon="12.2148824"><ele>225.0</ele><time>2026-05-03T17:16:54.598Z</time></trkpt><trkpt lat="45.9776129" lon="12.2149652"><ele>225.75</ele><time>2026-05-03T17:16:55.599Z</time></trkpt><trkpt lat="45.9775019" lon="12.215044"><ele>226.5</ele><time>2026-05-03T17:16:56.599Z</time></trkpt><trkpt lat="45.977398" lon="12.2151152"><ele>227.25</ele><time>2026-05-03T17:16:57.598Z</time></trkpt><trkpt lat="45.9773026" lon="12.2151899"><ele>228.0</ele><time>2026-05-03T17:16:58.599Z</time></trkpt><trkpt lat="45.9772097" lon="12.2152662"><ele>228.0</ele><time>2026-05-03T17:16:59.598Z</time></trkpt><trkpt lat="45.9771287" lon="12.2153644"><ele>228.0</ele><time>2026-05-03T17:17:00.599Z</time></trkpt><trkpt lat="45.9770605" lon="12.2154819"><ele>228.0</ele><time>2026-05-03T17:17:01.598Z</time></trkpt><trkpt lat="45.9770032" lon="12.2156158"><ele>228.0</ele><time>2026-05-03T17:17:02.599Z</time></trkpt><trkpt lat="45.9769661" lon="12.2157635"><ele>228.0</ele><time>2026-05-03T17:17:03.599Z</time></trkpt><trkpt lat="45.9769485" lon="12.2159298"><ele>228.5</ele><time>2026-05-03T17:17:04.599Z</time></trkpt><trkpt lat="45.9769423" lon="12.2161036"><ele>229.0</ele><time>2026-05-03T17:17:05.599Z</time></trkpt><trkpt lat="45.9769479" lon="12.2162885"><ele>229.5</ele><time>2026-05-03T17:17:06.598Z</time></trkpt><trkpt lat="45.9769655" lon="12.216483"><ele>230.0</ele><time>2026-05-03T17:17:07.598Z</time></trkpt><trkpt lat="45.9769863" lon="12.2166801"><ele>231.0</ele><time>2026-05-03T17:17:08.598Z</time></trkpt><trkpt lat="45.9770054" lon="12.216888"><ele>232.0</ele><time>2026-05-03T17:17:09.598Z</time></trkpt><trkpt lat="45.9770264" lon="12.2170999"><ele>233.0</ele><time>2026-05-03T17:17:10.599Z</time></trkpt><trkpt lat="45.9770524" lon="12.2173168"><ele>234.0</ele><time>2026-05-03T17:17:11.598Z</time></trkpt><trkpt lat="45.9770771" lon="12.2175346"><ele>234.66666666666669</ele><time>2026-05-03T17:17:12.598Z</time></trkpt><trkpt lat="45.9771006" lon="12.2177565"><ele>235.33333333333334</ele><time>2026-05-03T17:17:13.599Z</time></trkpt><trkpt lat="45.977126" lon="12.2179782"><ele>236.0</ele><time>2026-05-03T17:17:14.598Z</time></trkpt><trkpt lat="45.9771526" lon="12.218203"><ele>236.66666666666669</ele><time>2026-05-03T17:17:15.598Z</time></trkpt><trkpt lat="45.9771773" lon="12.2184306"><ele>237.33333333333331</ele><time>2026-05-03T17:17:16.599Z</time></trkpt><trkpt lat="45.9772014" lon="12.2186566"><ele>238.0</ele><time>2026-05-03T17:17:17.598Z</time></trkpt><trkpt lat="45.9772264" lon="12.2188842"><ele>239.33333333333331</ele><time>2026-05-03T17:17:18.599Z</time></trkpt><trkpt lat="45.9772507" lon="12.2191121"><ele>240.66666666666669</ele><time>2026-05-03T17:17:19.598Z</time></trkpt><trkpt lat="45.9772768" lon="12.2193455"><ele>242.0</ele><time>2026-05-03T17:17:20.598Z</time></trkpt><trkpt lat="45.9773037" lon="12.2195764"><ele>242.0</ele><time>2026-05-03T17:17:21.598Z</time></trkpt><trkpt lat="45.9773311" lon="12.2198042"><ele>242.0</ele><time>2026-05-03T17:17:22.599Z</time></trkpt><trkpt lat="45.9773569" lon="12.2200311"><ele>242.0</ele><time>2026-05-03T17:17:23.598Z</time></trkpt><trkpt lat="45.9773924" lon="12.2202552"><ele>242.66666666666669</ele><time>2026-05-03T17:17:24.598Z</time></trkpt><trkpt lat="45.9774354" lon="12.2204858"><ele>243.33333333333331</ele><time>2026-05-03T17:17:25.598Z</time></trkpt><trkpt lat="45.9774834" lon="12.2207121"><ele>244.0</ele><time>2026-05-03T17:17:26.598Z</time></trkpt><trkpt lat="45.9775346" lon="12.2209433"><ele>243.33333333333331</ele><time>2026-05-03T17:17:27.599Z</time></trkpt><trkpt lat="45.9775906" lon="12.2211752"><ele>242.66666666666669</ele><time>2026-05-03T17:17:28.599Z</time></trkpt><trkpt lat="45.9776434" lon="12.2214088"><ele>242.0</ele><time>2026-05-03T17:17:29.599Z</time></trkpt><trkpt lat="45.9776996" lon="12.2216391"><ele>242.0</ele><time>2026-05-03T17:17:30.598Z</time></trkpt><trkpt lat="45.9777521" lon="12.2218712"><ele>242.0</ele><time>2026-05-03T17:17:31.598Z</time></trkpt><trkpt lat="45.9778046" lon="12.2221017"><ele>242.0</ele><time>2026-05-03T17:17:32.598Z</time></trkpt><trkpt lat="45.9778563" lon="12.2223287"><ele>243.0</ele><time>2026-05-03T17:17:33.598Z</time></trkpt><trkpt lat="45.9779044" lon="12.2225507"><ele>244.0</ele><time>2026-05-03T17:17:34.599Z</time></trkpt><trkpt lat="45.9779573" lon="12.2227726"><ele>245.0</ele><time>2026-05-03T17:17:35.599Z</time></trkpt><trkpt lat="45.9780069" lon="12.2229891"><ele>246.33333333333334</ele><time>2026-05-03T17:17:36.598Z</time></trkpt><trkpt lat="45.9780556" lon="12.2232013"><ele>247.66666666666669</ele><time>2026-05-03T17:17:37.598Z</time></trkpt><trkpt lat="45.9781055" lon="12.2234151"><ele>249.0</ele><time>2026-05-03T17:17:38.599Z</time></trkpt><trkpt lat="45.9781596" lon="12.2236252"><ele>249.0</ele><time>2026-05-03T17:17:39.599Z</time></trkpt><trkpt lat="45.9782122" lon="12.223831"><ele>249.0</ele><time>2026-05-03T17:17:40.598Z</time></trkpt><trkpt lat="45.9782639" lon="12.2240399"><ele>249.0</ele><time>2026-05-03T17:17:41.598Z</time></trkpt><trkpt lat="45.9783135" lon="12.224239"><ele>249.0</ele><time>2026-05-03T17:17:42.598Z</time></trkpt><trkpt lat="45.9783597" lon="12.2244281"><ele>249.0</ele><time>2026-05-03T17:17:43.599Z</time></trkpt><trkpt lat="45.9784104" lon="12.2246133"><ele>249.0</ele><time>2026-05-03T17:17:44.598Z</time></trkpt><trkpt lat="45.9784538" lon="12.2247927"><ele>249.0</ele><time>2026-05-03T17:17:45.598Z</time></trkpt><trkpt lat="45.9784914" lon="12.2249688"><ele>249.5</ele><time>2026-05-03T17:17:46.599Z</time></trkpt><trkpt lat="45.9785288" lon="12.2251396"><ele>250.0</ele><time>2026-05-03T17:17:47.599Z</time></trkpt><trkpt lat="45.9785652" lon="12.22531"><ele>250.5</ele><time>2026-05-03T17:17:48.598Z</time></trkpt><trkpt lat="45.9786026" lon="12.225483"><ele>251.0</ele><time>2026-05-03T17:17:49.599Z</time></trkpt><trkpt lat="45.978638" lon="12.2256563"><ele>251.5</ele><time>2026-05-03T17:17:50.599Z</time></trkpt><trkpt lat="45.9786815" lon="12.2258453"><ele>252.0</ele><time>2026-05-03T17:17:51.598Z</time></trkpt><trkpt lat="45.9787171" lon="12.2260293"><ele>252.5</ele><time>2026-05-03T17:17:52.599Z</time></trkpt><trkpt lat="45.9787564" lon="12.2262223"><ele>253.0</ele><time>2026-05-03T17:17:53.598Z</time></trkpt><trkpt lat="45.9788009" lon="12.2264134"><ele>254.25</ele><time>2026-05-03T17:17:54.598Z</time></trkpt><trkpt lat="45.9788448" lon="12.2266067"><ele>255.5</ele><time>2026-05-03T17:17:55.599Z</time></trkpt><trkpt lat="45.9788899" lon="12.2267996"><ele>256.75</ele><time>2026-05-03T17:17:56.599Z</time></trkpt><trkpt lat="45.9789343" lon="12.2269786"><ele>258.0</ele><time>2026-05-03T17:17:57.599Z</time></trkpt><trkpt lat="45.9789739" lon="12.2271409"><ele>258.0</ele><time>2026-05-03T17:17:58.598Z</time></trkpt><trkpt lat="45.9790111" lon="12.2272858"><ele>258.0</ele><time>2026-05-03T17:17:59.598Z</time></trkpt><trkpt lat="45.9790424" lon="12.227412"><ele>258.0</ele><time>2026-05-03T17:18:00.599Z</time></trkpt><trkpt lat="45.9790693" lon="12.2275237"><ele>258.0</ele><time>2026-05-03T17:18:01.598Z</time></trkpt><trkpt lat="45.9790938" lon="12.227626"><ele>258.0</ele><time>2026-05-03T17:18:02.598Z</time></trkpt><trkpt lat="45.9791144" lon="12.2277228"><ele>258.0</ele><time>2026-05-03T17:18:03.598Z</time></trkpt><trkpt lat="45.9791378" lon="12.2278225"><ele>258.1666666666667</ele><time>2026-05-03T17:18:04.598Z</time></trkpt><trkpt lat="45.9791656" lon="12.2279276"><ele>258.3333333333333</ele><time>2026-05-03T17:18:05.598Z</time></trkpt><trkpt lat="45.9792013" lon="12.2280325"><ele>258.5</ele><time>2026-05-03T17:18:06.599Z</time></trkpt><trkpt lat="45.9792485" lon="12.228133"><ele>258.66666666666663</ele><time>2026-05-03T17:18:07.598Z</time></trkpt><trkpt lat="45.9792997" lon="12.228234"><ele>258.8333333333333</ele><time>2026-05-03T17:18:08.598Z</time></trkpt><trkpt lat="45.9793519" lon="12.2283331"><ele>259.0</ele><time>2026-05-03T17:18:09.599Z</time></trkpt><trkpt lat="45.9794099" lon="12.2284288"><ele>259.0</ele><time>2026-05-03T17:18:10.598Z</time></trkpt><trkpt lat="45.9794716" lon="12.2285227"><ele>259.0</ele><time>2026-05-03T17:18:11.598Z</time></trkpt><trkpt lat="45.9795401" lon="12.2286123"><ele>259.0</ele><time>2026-05-03T17:18:12.599Z</time></trkpt><trkpt lat="45.9796092" lon="12.2287053"><ele>259.0</ele><time>2026-05-03T17:18:13.598Z</time></trkpt><trkpt lat="45.979677" lon="12.2288005"><ele>259.0</ele><time>2026-05-03T17:18:14.599Z</time></trkpt><trkpt lat="45.9797382" lon="12.228893"><ele>260.2857142857143</ele><time>2026-05-03T17:18:15.599Z</time></trkpt><trkpt lat="45.9797856" lon="12.2289905"><ele>261.57142857142856</ele><time>2026-05-03T17:18:16.599Z</time></trkpt><trkpt lat="45.9798218" lon="12.229085"><ele>262.8571428571429</ele><time>2026-05-03T17:18:17.598Z</time></trkpt><trkpt lat="45.9798474" lon="12.2291836"><ele>264.1428571428571</ele><time>2026-05-03T17:18:18.598Z</time></trkpt><trkpt lat="45.9798632" lon="12.2292834"><ele>265.42857142857144</ele><time>2026-05-03T17:18:19.598Z</time></trkpt><trkpt lat="45.9798639" lon="12.2293828"><ele>266.7142857142857</ele><time>2026-05-03T17:18:20.598Z</time></trkpt><trkpt lat="45.9798535" lon="12.229485"><ele>268.0</ele><time>2026-05-03T17:18:21.598Z</time></trkpt><trkpt lat="45.9798247" lon="12.2295856"><ele>268.0</ele><time>2026-05-03T17:18:22.599Z</time></trkpt><trkpt lat="45.9797807" lon="12.2296844"><ele>268.0</ele><time>2026-05-03T17:18:23.599Z</time></trkpt><trkpt lat="45.9797222" lon="12.2297699"><ele>268.0</ele><time>2026-05-03T17:18:24.598Z</time></trkpt><trkpt lat="45.9796628" lon="12.2298532"><ele>268.0</ele><time>2026-05-03T17:18:25.599Z</time></trkpt><trkpt lat="45.979587" lon="12.229928"><ele>268.0</ele><time>2026-05-03T17:18:26.598Z</time></trkpt><trkpt lat="45.9795143" lon="12.2300064"><ele>268.0</ele><time>2026-05-03T17:18:27.598Z</time></trkpt><trkpt lat="45.9794415" lon="12.2300839"><ele>269.4</ele><time>2026-05-03T17:18:28.598Z</time></trkpt><trkpt lat="45.979366" lon="12.2301634"><ele>270.8</ele><time>2026-05-03T17:18:29.599Z</time></trkpt><trkpt lat="45.9792881" lon="12.2302445"><ele>272.2</ele><time>2026-05-03T17:18:30.599Z</time></trkpt><trkpt lat="45.9792094" lon="12.2303243"><ele>273.6</ele><time>2026-05-03T17:18:31.598Z</time></trkpt><trkpt lat="45.9791267" lon="12.2304002"><ele>275.0</ele><time>2026-05-03T17:18:32.599Z</time></trkpt><trkpt lat="45.9790359" lon="12.2304698"><ele>276.6</ele><time>2026-05-03T17:18:33.598Z</time></trkpt><trkpt lat="45.9789432" lon="12.2305274"><ele>278.2</ele><time>2026-05-03T17:18:34.599Z</time></trkpt><trkpt lat="45.9788415" lon="12.230581"><ele>279.8</ele><time>2026-05-03T17:18:35.599Z</time></trkpt><trkpt lat="45.9787357" lon="12.2306229"><ele>281.4</ele><time>2026-05-03T17:18:36.598Z</time></trkpt><trkpt lat="45.978626" lon="12.2306614"><ele>283.0</ele><time>2026-05-03T17:18:37.598Z</time></trkpt><trkpt lat="45.9785089" lon="12.2306832"><ele>283.0</ele><time>2026-05-03T17:18:38.598Z</time></trkpt><trkpt lat="45.9783915" lon="12.2307059"><ele>283.0</ele><time>2026-05-03T17:18:39.598Z</time></trkpt><trkpt lat="45.9782697" lon="12.2307178"><ele>283.0</ele><time>2026-05-03T17:18:40.599Z</time></trkpt><trkpt lat="45.9781483" lon="12.23073"><ele>283.0</ele><time>2026-05-03T17:18:41.599Z</time></trkpt><trkpt lat="45.9780256" lon="12.2307504"><ele>282.0</ele><time>2026-05-03T17:18:42.599Z</time></trkpt><trkpt lat="45.9779006" lon="12.2307686"><ele>281.0</ele><time>2026-05-03T17:18:43.598Z</time></trkpt><trkpt lat="45.9777733" lon="12.2307892"><ele>280.0</ele><time>2026-05-03T17:18:44.599Z</time></trkpt><trkpt lat="45.9776409" lon="12.2308062"><ele>279.0</ele><time>2026-05-03T17:18:45.598Z</time></trkpt><trkpt lat="45.9775055" lon="12.2308225"><ele>278.75</ele><time>2026-05-03T17:18:46.598Z</time></trkpt><trkpt lat="45.9773663" lon="12.2308389"><ele>278.5</ele><time>2026-05-03T17:18:47.598Z</time></trkpt><trkpt lat="45.9772303" lon="12.2308611"><ele>278.25</ele><time>2026-05-03T17:18:48.598Z</time></trkpt><trkpt lat="45.9770907" lon="12.2308823"><ele>278.0</ele><time>2026-05-03T17:18:49.598Z</time></trkpt><trkpt lat="45.9769519" lon="12.2309057"><ele>278.0</ele><time>2026-05-03T17:18:50.599Z</time></trkpt><trkpt lat="45.9768138" lon="12.2309245"><ele>278.0</ele><time>2026-05-03T17:18:51.598Z</time></trkpt><trkpt lat="45.9766719" lon="12.2309512"><ele>278.0</ele><time>2026-05-03T17:18:52.599Z</time></trkpt><trkpt lat="45.9765315" lon="12.2309731"><ele>278.0</ele><time>2026-05-03T17:18:53.598Z</time></trkpt><trkpt lat="45.9763918" lon="12.2309927"><ele>277.25</ele><time>2026-05-03T17:18:54.598Z</time></trkpt><trkpt lat="45.9762548" lon="12.2310115"><ele>276.5</ele><time>2026-05-03T17:18:55.598Z</time></trkpt><trkpt lat="45.9761168" lon="12.2310321"><ele>275.75</ele><time>2026-05-03T17:18:56.599Z</time></trkpt><trkpt lat="45.9759804" lon="12.231042"><ele>275.0</ele><time>2026-05-03T17:18:57.599Z</time></trkpt><trkpt lat="45.9758419" lon="12.2310565"><ele>274.75</ele><time>2026-05-03T17:18:58.598Z</time></trkpt><trkpt lat="45.9757061" lon="12.2310771"><ele>274.5</ele><time>2026-05-03T17:18:59.598Z</time></trkpt><trkpt lat="45.9755665" lon="12.2310942"><ele>274.25</ele><time>2026-05-03T17:19:00.598Z</time></trkpt><trkpt lat="45.9754268" lon="12.231106"><ele>274.0</ele><time>2026-05-03T17:19:01.598Z</time></trkpt><trkpt lat="45.9752838" lon="12.2311141"><ele>274.0</ele><time>2026-05-03T17:19:02.598Z</time></trkpt><trkpt lat="45.9751393" lon="12.2311209"><ele>274.0</ele><time>2026-05-03T17:19:03.598Z</time></trkpt><trkpt lat="45.9749964" lon="12.2311252"><ele>274.0</ele><time>2026-05-03T17:19:04.598Z</time></trkpt><trkpt lat="45.9748548" lon="12.2311265"><ele>274.0</ele><time>2026-05-03T17:19:05.598Z</time></trkpt><trkpt lat="45.9747123" lon="12.2311318"><ele>273.0</ele><time>2026-05-03T17:19:06.598Z</time></trkpt><trkpt lat="45.9745706" lon="12.231137"><ele>272.0</ele><time>2026-05-03T17:19:07.599Z</time></trkpt><trkpt lat="45.9744397" lon="12.2311403"><ele>271.0</ele><time>2026-05-03T17:19:08.598Z</time></trkpt><trkpt lat="45.9743142" lon="12.2311505"><ele>270.0</ele><time>2026-05-03T17:19:09.599Z</time></trkpt><trkpt lat="45.9741912" lon="12.2311694"><ele>270.0</ele><time>2026-05-03T17:19:10.598Z</time></trkpt><trkpt lat="45.9740629" lon="12.2312097"><ele>270.0</ele><time>2026-05-03T17:19:11.598Z</time></trkpt><trkpt lat="45.9739384" lon="12.2312656"><ele>270.0</ele><time>2026-05-03T17:19:12.598Z</time></trkpt><trkpt lat="45.9738181" lon="12.2313352"><ele>270.0</ele><time>2026-05-03T17:19:13.598Z</time></trkpt><trkpt lat="45.9737054" lon="12.2314106"><ele>270.0</ele><time>2026-05-03T17:19:14.599Z</time></trkpt><trkpt lat="45.9736063" lon="12.2314899"><ele>270.0</ele><time>2026-05-03T17:19:15.599Z</time></trkpt><trkpt lat="45.9735115" lon="12.231575"><ele>270.0</ele><time>2026-05-03T17:19:16.598Z</time></trkpt><trkpt lat="45.9734225" lon="12.2316593"><ele>270.0</ele><time>2026-05-03T17:19:17.598Z</time></trkpt><trkpt lat="45.9733383" lon="12.2317502"><ele>270.0</ele><time>2026-05-03T17:19:18.598Z</time></trkpt><trkpt lat="45.9732536" lon="12.2318403"><ele>270.0</ele><time>2026-05-03T17:19:19.599Z</time></trkpt><trkpt lat="45.9731679" lon="12.2319306"><ele>270.0</ele><time>2026-05-03T17:19:20.598Z</time></trkpt><trkpt lat="45.9730839" lon="12.2320216"><ele>270.0</ele><time>2026-05-03T17:19:21.599Z</time></trkpt><trkpt lat="45.9730008" lon="12.23212"><ele>270.0</ele><time>2026-05-03T17:19:22.598Z</time></trkpt><trkpt lat="45.9729205" lon="12.2322331"><ele>270.0</ele><time>2026-05-03T17:19:23.598Z</time></trkpt><trkpt lat="45.9728411" lon="12.2323541"><ele>271.0</ele><time>2026-05-03T17:19:24.598Z</time></trkpt><trkpt lat="45.9727671" lon="12.2324846"><ele>272.0</ele><time>2026-05-03T17:19:25.599Z</time></trkpt><trkpt lat="45.9726868" lon="12.2326125"><ele>273.0</ele><time>2026-05-03T17:19:26.598Z</time></trkpt><trkpt lat="45.9726072" lon="12.2327427"><ele>274.0</ele><time>2026-05-03T17:19:27.598Z</time></trkpt><trkpt lat="45.972528" lon="12.2328692"><ele>273.0</ele><time>2026-05-03T17:19:28.599Z</time></trkpt><trkpt lat="45.9724475" lon="12.232999"><ele>272.0</ele><time>2026-05-03T17:19:29.598Z</time></trkpt><trkpt lat="45.9723691" lon="12.2331289"><ele>271.0</ele><time>2026-05-03T17:19:30.598Z</time></trkpt><trkpt lat="45.9722932" lon="12.2332621"><ele>270.0</ele><time>2026-05-03T17:19:31.598Z</time></trkpt><trkpt lat="45.9722117" lon="12.2333897"><ele>270.0</ele><time>2026-05-03T17:19:32.598Z</time></trkpt><trkpt lat="45.9721258" lon="12.2335138"><ele>270.0</ele><time>2026-05-03T17:19:33.598Z</time></trkpt><trkpt lat="45.9720389" lon="12.2336184"><ele>270.0</ele><time>2026-05-03T17:19:34.599Z</time></trkpt><trkpt lat="45.9719458" lon="12.2337124"><ele>270.0</ele><time>2026-05-03T17:19:35.599Z</time></trkpt><trkpt lat="45.9718504" lon="12.2337892"><ele>270.0</ele><time>2026-05-03T17:19:36.599Z</time></trkpt><trkpt lat="45.9717528" lon="12.2338446"><ele>270.0</ele><time>2026-05-03T17:19:37.598Z</time></trkpt><trkpt lat="45.9716541" lon="12.2338924"><ele>270.0</ele><time>2026-05-03T17:19:38.598Z</time></trkpt><trkpt lat="45.9715507" lon="12.2339308"><ele>270.0</ele><time>2026-05-03T17:19:39.598Z</time></trkpt><trkpt lat="45.9714417" lon="12.2339518"><ele>270.0</ele><time>2026-05-03T17:19:40.598Z</time></trkpt><trkpt lat="45.9713319" lon="12.2339579"><ele>268.0</ele><time>2026-05-03T17:19:41.598Z</time></trkpt><trkpt lat="45.9712184" lon="12.233949"><ele>266.0</ele><time>2026-05-03T17:19:42.599Z</time></trkpt><trkpt lat="45.9711022" lon="12.2339296"><ele>264.0</ele><time>2026-05-03T17:19:43.598Z</time></trkpt><trkpt lat="45.9709843" lon="12.2339019"><ele>262.0</ele><time>2026-05-03T17:19:44.599Z</time></trkpt><trkpt lat="45.970869" lon="12.2338675"><ele>261.25</ele><time>2026-05-03T17:19:45.598Z</time></trkpt><trkpt lat="45.9707517" lon="12.2338189"><ele>260.5</ele><time>2026-05-03T17:19:46.598Z</time></trkpt><trkpt lat="45.9706379" lon="12.2337561"><ele>259.75</ele><time>2026-05-03T17:19:47.598Z</time></trkpt><trkpt lat="45.9705296" lon="12.2336755"><ele>259.0</ele><time>2026-05-03T17:19:48.598Z</time></trkpt><trkpt lat="45.9704274" lon="12.2335733"><ele>259.0</ele><time>2026-05-03T17:19:49.598Z</time></trkpt><trkpt lat="45.9703224" lon="12.2334623"><ele>259.0</ele><time>2026-05-03T17:19:50.598Z</time></trkpt><trkpt lat="45.9702245" lon="12.2333541"><ele>259.0</ele><time>2026-05-03T17:19:51.598Z</time></trkpt><trkpt lat="45.9701312" lon="12.2332453"><ele>259.0</ele><time>2026-05-03T17:19:52.598Z</time></trkpt><trkpt lat="45.9700392" lon="12.233147"><ele>258.75</ele><time>2026-05-03T17:19:53.599Z</time></trkpt><trkpt lat="45.9699472" lon="12.2330484"><ele>258.5</ele><time>2026-05-03T17:19:54.598Z</time></trkpt><trkpt lat="45.9698526" lon="12.2329433"><ele>258.25</ele><time>2026-05-03T17:19:55.598Z</time></trkpt><trkpt lat="45.9697577" lon="12.2328392"><ele>258.0</ele><time>2026-05-03T17:19:56.599Z</time></trkpt><trkpt lat="45.969669" lon="12.2327414"><ele>258.0</ele><time>2026-05-03T17:19:57.599Z</time></trkpt><trkpt lat="45.9695837" lon="12.2326469"><ele>258.0</ele><time>2026-05-03T17:19:58.598Z</time></trkpt><trkpt lat="45.9695048" lon="12.2325541"><ele>258.0</ele><time>2026-05-03T17:19:59.599Z</time></trkpt><trkpt lat="45.9694389" lon="12.2324603"><ele>258.0</ele><time>2026-05-03T17:20:00.599Z</time></trkpt><trkpt lat="45.9693734" lon="12.2323622"><ele>258.0</ele><time>2026-05-03T17:20:01.599Z</time></trkpt><trkpt lat="45.9693476" lon="12.2322532"><ele>258.5</ele><time>2026-05-03T17:20:02.599Z</time></trkpt><trkpt lat="45.9693198" lon="12.2321545"><ele>259.0</ele><time>2026-05-03T17:20:03.599Z</time></trkpt><trkpt lat="45.9693181" lon="12.2320364"><ele>259.5</ele><time>2026-05-03T17:20:04.599Z</time></trkpt><trkpt lat="45.9693291" lon="12.2319292"><ele>260.0</ele><time>2026-05-03T17:20:05.599Z</time></trkpt><trkpt lat="45.9693501" lon="12.2318207"><ele>260.5</ele><time>2026-05-03T17:20:06.599Z</time></trkpt><trkpt lat="45.9693595" lon="12.2317115"><ele>261.0</ele><time>2026-05-03T17:20:07.598Z</time></trkpt><trkpt lat="45.9693494" lon="12.2316068"><ele>261.0</ele><time>2026-05-03T17:20:08.599Z</time></trkpt><trkpt lat="45.9693288" lon="12.2315088"><ele>261.0</ele><time>2026-05-03T17:20:09.598Z</time></trkpt><trkpt lat="45.9692938" lon="12.2314158"><ele>261.0</ele><time>2026-05-03T17:20:10.598Z</time></trkpt><trkpt lat="45.9692442" lon="12.2313371"><ele>261.0</ele><time>2026-05-03T17:20:11.599Z</time></trkpt><trkpt lat="45.9691761" lon="12.231278"><ele>261.0</ele><time>2026-05-03T17:20:12.598Z</time></trkpt><trkpt lat="45.9690983" lon="12.2312353"><ele>261.0</ele><time>2026-05-03T17:20:13.598Z</time></trkpt><trkpt lat="45.9690137" lon="12.2311985"><ele>259.6</ele><time>2026-05-03T17:20:14.598Z</time></trkpt><trkpt lat="45.9689274" lon="12.2311688"><ele>258.20000000000005</ele><time>2026-05-03T17:20:15.598Z</time></trkpt><trkpt lat="45.9688346" lon="12.2311451"><ele>256.79999999999995</ele><time>2026-05-03T17:20:16.598Z</time></trkpt><trkpt lat="45.9687458" lon="12.2311153"><ele>255.39999999999998</ele><time>2026-05-03T17:20:17.599Z</time></trkpt><trkpt lat="45.9686628" lon="12.2310739"><ele>254.0</ele><time>2026-05-03T17:20:18.598Z</time></trkpt><trkpt lat="45.9685855" lon="12.2310117"><ele>254.00000000000003</ele><time>2026-05-03T17:20:19.599Z</time></trkpt><trkpt lat="45.9685212" lon="12.2309333"><ele>254.0</ele><time>2026-05-03T17:20:20.598Z</time></trkpt><trkpt lat="45.9684681" lon="12.2308407"><ele>254.0</ele><time>2026-05-03T17:20:21.599Z</time></trkpt><trkpt lat="45.9684293" lon="12.230733"><ele>254.0</ele><time>2026-05-03T17:20:22.599Z</time></trkpt><trkpt lat="45.9684045" lon="12.230608"><ele>254.00000000000003</ele><time>2026-05-03T17:20:23.598Z</time></trkpt><trkpt lat="45.9683902" lon="12.2304786"><ele>254.0</ele><time>2026-05-03T17:20:24.598Z</time></trkpt><trkpt lat="45.9683757" lon="12.2303548"><ele>252.00000000000003</ele><time>2026-05-03T17:20:25.598Z</time></trkpt><trkpt lat="45.968346" lon="12.2302396"><ele>250.0</ele><time>2026-05-03T17:20:26.598Z</time></trkpt><trkpt lat="45.9683015" lon="12.2301323"><ele>248.0</ele><time>2026-05-03T17:20:27.599Z</time></trkpt><trkpt lat="45.9682471" lon="12.2300392"><ele>246.0</ele><time>2026-05-03T17:20:28.598Z</time></trkpt><trkpt lat="45.9681809" lon="12.2299699"><ele>244.00000000000003</ele><time>2026-05-03T17:20:29.599Z</time></trkpt><trkpt lat="45.968106" lon="12.2299265"><ele>242.0</ele><time>2026-05-03T17:20:30.599Z</time></trkpt><trkpt lat="45.9680209" lon="12.2299167"><ele>242.0</ele><time>2026-05-03T17:20:31.599Z</time></trkpt><trkpt lat="45.967931" lon="12.229931"><ele>242.0</ele><time>2026-05-03T17:20:32.598Z</time></trkpt><trkpt lat="45.9678383" lon="12.2299509"><ele>242.0</ele><time>2026-05-03T17:20:33.599Z</time></trkpt><trkpt lat="45.9677419" lon="12.2299752"><ele>242.0</ele><time>2026-05-03T17:20:34.599Z</time></trkpt><trkpt lat="45.9676398" lon="12.2299962"><ele>242.0</ele><time>2026-05-03T17:20:35.598Z</time></trkpt><trkpt lat="45.9675281" lon="12.2300178"><ele>240.25</ele><time>2026-05-03T17:20:36.599Z</time></trkpt><trkpt lat="45.9674072" lon="12.230035"><ele>238.5</ele><time>2026-05-03T17:20:37.599Z</time></trkpt><trkpt lat="45.9672816" lon="12.2300486"><ele>236.75</ele><time>2026-05-03T17:20:38.598Z</time></trkpt><trkpt lat="45.9671505" lon="12.2300522"><ele>235.0</ele><time>2026-05-03T17:20:39.598Z</time></trkpt><trkpt lat="45.96702" lon="12.2300456"><ele>235.0</ele><time>2026-05-03T17:20:40.599Z</time></trkpt><trkpt lat="45.9668921" lon="12.2300305"><ele>235.0</ele><time>2026-05-03T17:20:41.598Z</time></trkpt><trkpt lat="45.9667617" lon="12.2300056"><ele>235.0</ele><time>2026-05-03T17:20:42.599Z</time></trkpt><trkpt lat="45.9666375" lon="12.2299767"><ele>235.0</ele><time>2026-05-03T17:20:43.598Z</time></trkpt><trkpt lat="45.966515" lon="12.2299449"><ele>233.75</ele><time>2026-05-03T17:20:44.598Z</time></trkpt><trkpt lat="45.9663943" lon="12.2299038"><ele>232.5</ele><time>2026-05-03T17:20:45.598Z</time></trkpt><trkpt lat="45.9662783" lon="12.2298532"><ele>231.25</ele><time>2026-05-03T17:20:46.599Z</time></trkpt><trkpt lat="45.9661649" lon="12.2297946"><ele>230.0</ele><time>2026-05-03T17:20:47.599Z</time></trkpt><trkpt lat="45.9660561" lon="12.2297276"><ele>231.25</ele><time>2026-05-03T17:20:48.598Z</time></trkpt><trkpt lat="45.9659495" lon="12.2296475"><ele>232.5</ele><time>2026-05-03T17:20:49.598Z</time></trkpt><trkpt lat="45.9658528" lon="12.2295563"><ele>233.75</ele><time>2026-05-03T17:20:50.598Z</time></trkpt><trkpt lat="45.9657591" lon="12.2294578"><ele>235.0</ele><time>2026-05-03T17:20:51.598Z</time></trkpt><trkpt lat="45.9656717" lon="12.2293569"><ele>235.0</ele><time>2026-05-03T17:20:52.598Z</time></trkpt><trkpt lat="45.9655869" lon="12.2292405"><ele>235.0</ele><time>2026-05-03T17:20:53.598Z</time></trkpt><trkpt lat="45.9655067" lon="12.2291136"><ele>235.0</ele><time>2026-05-03T17:20:54.599Z</time></trkpt><trkpt lat="45.9654299" lon="12.2289817"><ele>235.0</ele><time>2026-05-03T17:20:55.598Z</time></trkpt><trkpt lat="45.9653524" lon="12.2288515"><ele>237.5</ele><time>2026-05-03T17:20:56.598Z</time></trkpt><trkpt lat="45.9652732" lon="12.2287278"><ele>240.0</ele><time>2026-05-03T17:20:57.599Z</time></trkpt><trkpt lat="45.9651964" lon="12.2286013"><ele>242.5</ele><time>2026-05-03T17:20:58.598Z</time></trkpt><trkpt lat="45.9651257" lon="12.2284719"><ele>245.0</ele><time>2026-05-03T17:20:59.599Z</time></trkpt><trkpt lat="45.9650645" lon="12.2283303"><ele>240.25</ele><time>2026-05-03T17:21:00.598Z</time></trkpt><trkpt lat="45.9650171" lon="12.2281841"><ele>235.5</ele><time>2026-05-03T17:21:01.598Z</time></trkpt><trkpt lat="45.9649785" lon="12.228029"><ele>230.75</ele><time>2026-05-03T17:21:02.599Z</time></trkpt><trkpt lat="45.964953" lon="12.2278684"><ele>226.0</ele><time>2026-05-03T17:21:03.598Z</time></trkpt><trkpt lat="45.9649407" lon="12.2277057"><ele>224.0</ele><time>2026-05-03T17:21:04.599Z</time></trkpt><trkpt lat="45.9649395" lon="12.2275422"><ele>222.0</ele><time>2026-05-03T17:21:05.599Z</time></trkpt><trkpt lat="45.9649502" lon="12.227379"><ele>220.0</ele><time>2026-05-03T17:21:06.598Z</time></trkpt><trkpt lat="45.9649752" lon="12.2272192"><ele>218.0</ele><time>2026-05-03T17:21:07.598Z</time></trkpt><trkpt lat="45.9650109" lon="12.2270631"><ele>219.60000000000002</ele><time>2026-05-03T17:21:08.598Z</time></trkpt><trkpt lat="45.9650587" lon="12.2269182"><ele>221.20000000000002</ele><time>2026-05-03T17:21:09.599Z</time></trkpt><trkpt lat="45.9651088" lon="12.2267845"><ele>222.8</ele><time>2026-05-03T17:21:10.599Z</time></trkpt><trkpt lat="45.9651544" lon="12.2266538"><ele>224.4</ele><time>2026-05-03T17:21:11.598Z</time></trkpt><trkpt lat="45.9651927" lon="12.2265269"><ele>226.0</ele><time>2026-05-03T17:21:12.598Z</time></trkpt><trkpt lat="45.9652189" lon="12.2263979"><ele>225.99999999999997</ele><time>2026-05-03T17:21:13.598Z</time></trkpt><trkpt lat="45.9652259" lon="12.2262743"><ele>226.0</ele><time>2026-05-03T17:21:14.598Z</time></trkpt><trkpt lat="45.9652116" lon="12.2261592"><ele>226.0</ele><time>2026-05-03T17:21:15.599Z</time></trkpt><trkpt lat="45.9651762" lon="12.2260477"><ele>226.0</ele><time>2026-05-03T17:21:16.599Z</time></trkpt><trkpt lat="45.9651192" lon="12.2259506"><ele>225.99999999999997</ele><time>2026-05-03T17:21:17.598Z</time></trkpt><trkpt lat="45.9650431" lon="12.2258775"><ele>226.0</ele><time>2026-05-03T17:21:18.599Z</time></trkpt><trkpt lat="45.9649495" lon="12.2258288"><ele>222.0</ele><time>2026-05-03T17:21:19.599Z</time></trkpt><trkpt lat="45.9648523" lon="12.2258086"><ele>218.0</ele><time>2026-05-03T17:21:20.598Z</time></trkpt><trkpt lat="45.9647374" lon="12.2258008"><ele>214.0</ele><time>2026-05-03T17:21:21.599Z</time></trkpt><trkpt lat="45.9646143" lon="12.2257993"><ele>210.0</ele><time>2026-05-03T17:21:22.598Z</time></trkpt><trkpt lat="45.9644815" lon="12.2257934"><ele>210.0</ele><time>2026-05-03T17:21:23.599Z</time></trkpt><trkpt lat="45.96434" lon="12.2257905"><ele>210.0</ele><time>2026-05-03T17:21:24.598Z</time></trkpt><trkpt lat="45.9641945" lon="12.2257908"><ele>210.0</ele><time>2026-05-03T17:21:25.599Z</time></trkpt><trkpt lat="45.964046" lon="12.2257913"><ele>210.0</ele><time>2026-05-03T17:21:26.599Z</time></trkpt><trkpt lat="45.9638939" lon="12.2257924"><ele>208.75</ele><time>2026-05-03T17:21:27.599Z</time></trkpt><trkpt lat="45.9637468" lon="12.2257916"><ele>207.5</ele><time>2026-05-03T17:21:28.599Z</time></trkpt><trkpt lat="45.9636014" lon="12.2257943"><ele>206.25</ele><time>2026-05-03T17:21:29.598Z</time></trkpt><trkpt lat="45.9634558" lon="12.2257932"><ele>205.0</ele><time>2026-05-03T17:21:30.598Z</time></trkpt><trkpt lat="45.9633114" lon="12.2257946"><ele>204.75</ele><time>2026-05-03T17:21:31.598Z</time></trkpt><trkpt lat="45.9631644" lon="12.2257971"><ele>204.5</ele><time>2026-05-03T17:21:32.598Z</time></trkpt><trkpt lat="45.9630155" lon="12.2257978"><ele>204.25</ele><time>2026-05-03T17:21:33.598Z</time></trkpt><trkpt lat="45.9628659" lon="12.225796"><ele>204.0</ele><time>2026-05-03T17:21:34.598Z</time></trkpt><trkpt lat="45.9627196" lon="12.2257931"><ele>204.0</ele><time>2026-05-03T17:21:35.599Z</time></trkpt><trkpt lat="45.9625724" lon="12.2257924"><ele>204.0</ele><time>2026-05-03T17:21:36.598Z</time></trkpt><trkpt lat="45.962427" lon="12.2257918"><ele>204.0</ele><time>2026-05-03T17:21:37.599Z</time></trkpt><trkpt lat="45.9622816" lon="12.2257858"><ele>204.0</ele><time>2026-05-03T17:21:38.598Z</time></trkpt><trkpt lat="45.962131" lon="12.2257825"><ele>203.25</ele><time>2026-05-03T17:21:39.599Z</time></trkpt><trkpt lat="45.9619817" lon="12.2257822"><ele>202.5</ele><time>2026-05-03T17:21:40.598Z</time></trkpt><trkpt lat="45.9618353" lon="12.2257855"><ele>201.75</ele><time>2026-05-03T17:21:41.598Z</time></trkpt><trkpt lat="45.9616922" lon="12.2257832"><ele>201.0</ele><time>2026-05-03T17:21:42.598Z</time></trkpt><trkpt lat="45.961548" lon="12.2257812"><ele>199.5</ele><time>2026-05-03T17:21:43.598Z</time></trkpt><trkpt lat="45.9614043" lon="12.2257845"><ele>198.0</ele><time>2026-05-03T17:21:44.599Z</time></trkpt><trkpt lat="45.9612609" lon="12.2257841"><ele>196.5</ele><time>2026-05-03T17:21:45.598Z</time></trkpt><trkpt lat="45.9611166" lon="12.2257822"><ele>195.0</ele><time>2026-05-03T17:21:46.599Z</time></trkpt><trkpt lat="45.9609716" lon="12.2257822"><ele>193.5</ele><time>2026-05-03T17:21:47.599Z</time></trkpt><trkpt lat="45.9608292" lon="12.2257829"><ele>192.0</ele><time>2026-05-03T17:21:48.599Z</time></trkpt><trkpt lat="45.9606877" lon="12.2257827"><ele>190.5</ele><time>2026-05-03T17:21:49.599Z</time></trkpt><trkpt lat="45.9605504" lon="12.2257837"><ele>189.0</ele><time>2026-05-03T17:21:50.599Z</time></trkpt><trkpt lat="45.9604178" lon="12.2257861"><ele>189.0</ele><time>2026-05-03T17:21:51.599Z</time></trkpt><trkpt lat="45.9602872" lon="12.2257932"><ele>189.0</ele><time>2026-05-03T17:21:52.598Z</time></trkpt><trkpt lat="45.960161" lon="12.225813"><ele>189.0</ele><time>2026-05-03T17:21:53.599Z</time></trkpt><trkpt lat="45.9600277" lon="12.2258461"><ele>189.0</ele><time>2026-05-03T17:21:54.599Z</time></trkpt><trkpt lat="45.9598955" lon="12.2259067"><ele>186.0</ele><time>2026-05-03T17:21:55.598Z</time></trkpt><trkpt lat="45.9597634" lon="12.2259894"><ele>183.0</ele><time>2026-05-03T17:21:56.598Z</time></trkpt><trkpt lat="45.959629" lon="12.2260903"><ele>180.0</ele><time>2026-05-03T17:21:57.599Z</time></trkpt><trkpt lat="45.9594923" lon="12.2261957"><ele>180.0</ele><time>2026-05-03T17:21:58.599Z</time></trkpt><trkpt lat="45.959351" lon="12.2262979"><ele>180.0</ele><time>2026-05-03T17:21:59.598Z</time></trkpt><trkpt lat="45.9592155" lon="12.2264077"><ele>180.0</ele><time>2026-05-03T17:22:00.599Z</time></trkpt><trkpt lat="45.9590807" lon="12.2265113"><ele>177.75</ele><time>2026-05-03T17:22:01.598Z</time></trkpt><trkpt lat="45.9589469" lon="12.2266136"><ele>175.5</ele><time>2026-05-03T17:22:02.598Z</time></trkpt><trkpt lat="45.9588204" lon="12.2267129"><ele>173.25</ele><time>2026-05-03T17:22:03.599Z</time></trkpt><trkpt lat="45.9586947" lon="12.2268103"><ele>171.0</ele><time>2026-05-03T17:22:04.598Z</time></trkpt><trkpt lat="45.9585692" lon="12.2269026"><ele>171.0</ele><time>2026-05-03T17:22:05.599Z</time></trkpt><trkpt lat="45.9584477" lon="12.2270032"><ele>171.0</ele><time>2026-05-03T17:22:06.598Z</time></trkpt><trkpt lat="45.9583284" lon="12.2271128"><ele>171.0</ele><time>2026-05-03T17:22:07.598Z</time></trkpt><trkpt lat="45.9582191" lon="12.2272314"><ele>171.0</ele><time>2026-05-03T17:22:08.598Z</time></trkpt><trkpt lat="45.9581089" lon="12.2273721"><ele>169.66666666666666</ele><time>2026-05-03T17:22:09.598Z</time></trkpt><trkpt lat="45.957998" lon="12.2275307"><ele>168.33333333333331</ele><time>2026-05-03T17:22:10.598Z</time></trkpt><trkpt lat="45.9578902" lon="12.2277085"><ele>167.0</ele><time>2026-05-03T17:22:11.599Z</time></trkpt><trkpt lat="45.957785" lon="12.2278933"><ele>167.0</ele><time>2026-05-03T17:22:12.598Z</time></trkpt><trkpt lat="45.9576787" lon="12.2280767"><ele>167.0</ele><time>2026-05-03T17:22:13.599Z</time></trkpt><trkpt lat="45.9575745" lon="12.2282615"><ele>167.0</ele><time>2026-05-03T17:22:14.599Z</time></trkpt><trkpt lat="45.9574721" lon="12.2284477"><ele>165.66666666666666</ele><time>2026-05-03T17:22:15.599Z</time></trkpt><trkpt lat="45.9573654" lon="12.2286372"><ele>164.33333333333334</ele><time>2026-05-03T17:22:16.599Z</time></trkpt><trkpt lat="45.9572592" lon="12.2288217"><ele>163.0</ele><time>2026-05-03T17:22:17.599Z</time></trkpt><trkpt lat="45.9571524" lon="12.2290068"><ele>163.0</ele><time>2026-05-03T17:22:18.599Z</time></trkpt><trkpt lat="45.9570511" lon="12.2291869"><ele>163.0</ele><time>2026-05-03T17:22:19.598Z</time></trkpt><trkpt lat="45.9569495" lon="12.2293599"><ele>163.0</ele><time>2026-05-03T17:22:20.599Z</time></trkpt><trkpt lat="45.9568445" lon="12.2295267"><ele>163.0</ele><time>2026-05-03T17:22:21.598Z</time></trkpt><trkpt lat="45.956732" lon="12.2296901"><ele>163.0</ele><time>2026-05-03T17:22:22.599Z</time></trkpt><trkpt lat="45.9566167" lon="12.2298517"><ele>163.0</ele><time>2026-05-03T17:22:23.598Z</time></trkpt><trkpt lat="45.956496" lon="12.2300063"><ele>164.0</ele><time>2026-05-03T17:22:24.598Z</time></trkpt><trkpt lat="45.9563715" lon="12.2301595"><ele>165.0</ele><time>2026-05-03T17:22:25.598Z</time></trkpt><trkpt lat="45.9562516" lon="12.2303091"><ele>166.0</ele><time>2026-05-03T17:22:26.598Z</time></trkpt><trkpt lat="45.956132" lon="12.2304551"><ele>166.0</ele><time>2026-05-03T17:22:27.598Z</time></trkpt><trkpt lat="45.9560159" lon="12.2305913"><ele>166.0</ele><time>2026-05-03T17:22:28.599Z</time></trkpt><trkpt lat="45.9559063" lon="12.2307227"><ele>166.0</ele><time>2026-05-03T17:22:29.599Z</time></trkpt><trkpt lat="45.9558048" lon="12.2308536"><ele>166.0</ele><time>2026-05-03T17:22:30.598Z</time></trkpt><trkpt lat="45.9557071" lon="12.2309765"><ele>165.75</ele><time>2026-05-03T17:22:31.598Z</time></trkpt><trkpt lat="45.9556076" lon="12.2311031"><ele>165.5</ele><time>2026-05-03T17:22:32.598Z</time></trkpt><trkpt lat="45.9555071" lon="12.2312346"><ele>165.25</ele><time>2026-05-03T17:22:33.599Z</time></trkpt><trkpt lat="45.955401" lon="12.2313686"><ele>165.0</ele><time>2026-05-03T17:22:34.598Z</time></trkpt><trkpt lat="45.9552918" lon="12.2315064"><ele>163.25</ele><time>2026-05-03T17:22:35.599Z</time></trkpt><trkpt lat="45.9551818" lon="12.2316443"><ele>161.5</ele><time>2026-05-03T17:22:36.599Z</time></trkpt><trkpt lat="45.9550681" lon="12.2317852"><ele>159.75</ele><time>2026-05-03T17:22:37.598Z</time></trkpt><trkpt lat="45.9549547" lon="12.2319272"><ele>158.0</ele><time>2026-05-03T17:22:38.598Z</time></trkpt><trkpt lat="45.9548408" lon="12.2320679"><ele>158.0</ele><time>2026-05-03T17:22:39.599Z</time></trkpt><trkpt lat="45.9547278" lon="12.2322057"><ele>158.0</ele><time>2026-05-03T17:22:40.598Z</time></trkpt><trkpt lat="45.9546157" lon="12.2323429"><ele>158.0</ele><time>2026-05-03T17:22:41.598Z</time></trkpt><trkpt lat="45.954495" lon="12.2324704"><ele>158.0</ele><time>2026-05-03T17:22:42.598Z</time></trkpt><trkpt lat="45.9543675" lon="12.2325879"><ele>157.25</ele><time>2026-05-03T17:22:43.598Z</time></trkpt><trkpt lat="45.9542431" lon="12.2326981"><ele>156.5</ele><time>2026-05-03T17:22:44.598Z</time></trkpt><trkpt lat="45.9541264" lon="12.2327996"><ele>155.75</ele><time>2026-05-03T17:22:45.598Z</time></trkpt><trkpt lat="45.9540099" lon="12.2328978"><ele>155.0</ele><time>2026-05-03T17:22:46.598Z</time></trkpt><trkpt lat="45.9538949" lon="12.2329947"><ele>154.75</ele><time>2026-05-03T17:22:47.599Z</time></trkpt><trkpt lat="45.9537784" lon="12.2330919"><ele>154.5</ele><time>2026-05-03T17:22:48.598Z</time></trkpt><trkpt lat="45.9536644" lon="12.2331889"><ele>154.25</ele><time>2026-05-03T17:22:49.599Z</time></trkpt><trkpt lat="45.9535499" lon="12.2332844"><ele>154.0</ele><time>2026-05-03T17:22:50.598Z</time></trkpt><trkpt lat="45.953431" lon="12.233375"><ele>154.75</ele><time>2026-05-03T17:22:51.599Z</time></trkpt><trkpt lat="45.9533136" lon="12.2334676"><ele>155.5</ele><time>2026-05-03T17:22:52.599Z</time></trkpt><trkpt lat="45.9531952" lon="12.233562"><ele>156.25</ele><time>2026-05-03T17:22:53.599Z</time></trkpt><trkpt lat="45.9530767" lon="12.2336623"><ele>157.0</ele><time>2026-05-03T17:22:54.598Z</time></trkpt><trkpt lat="45.9529662" lon="12.2337638"><ele>157.0</ele><time>2026-05-03T17:22:55.598Z</time></trkpt><trkpt lat="45.9528584" lon="12.23386"><ele>157.0</ele><time>2026-05-03T17:22:56.598Z</time></trkpt><trkpt lat="45.952754" lon="12.2339549"><ele>157.0</ele><time>2026-05-03T17:22:57.599Z</time></trkpt><trkpt lat="45.9526475" lon="12.2340512"><ele>157.0</ele><time>2026-05-03T17:22:58.598Z</time></trkpt><trkpt lat="45.9525387" lon="12.2341473"><ele>156.5</ele><time>2026-05-03T17:22:59.598Z</time></trkpt><trkpt lat="45.9524247" lon="12.2342425"><ele>156.0</ele><time>2026-05-03T17:23:00.598Z</time></trkpt><trkpt lat="45.9523081" lon="12.2343366"><ele>155.5</ele><time>2026-05-03T17:23:01.598Z</time></trkpt><trkpt lat="45.9521969" lon="12.2344359"><ele>155.0</ele><time>2026-05-03T17:23:02.598Z</time></trkpt><trkpt lat="45.9520832" lon="12.2345306"><ele>155.0</ele><time>2026-05-03T17:23:03.598Z</time></trkpt><trkpt lat="45.9519775" lon="12.2346311"><ele>155.0</ele><time>2026-05-03T17:23:04.599Z</time></trkpt><trkpt lat="45.951877" lon="12.2347298"><ele>155.0</ele><time>2026-05-03T17:23:05.598Z</time></trkpt><trkpt lat="45.9517864" lon="12.2348428"><ele>155.0</ele><time>2026-05-03T17:23:06.598Z</time></trkpt><trkpt lat="45.9516961" lon="12.2349613"><ele>154.25</ele><time>2026-05-03T17:23:07.599Z</time></trkpt><trkpt lat="45.9516181" lon="12.2350937"><ele>153.5</ele><time>2026-05-03T17:23:08.599Z</time></trkpt><trkpt lat="45.9515446" lon="12.2352257"><ele>152.75</ele><time>2026-05-03T17:23:09.599Z</time></trkpt><trkpt lat="45.9514727" lon="12.2353471"><ele>152.0</ele><time>2026-05-03T17:23:10.598Z</time></trkpt><trkpt lat="45.9514019" lon="12.2354623"><ele>152.0</ele><time>2026-05-03T17:23:11.599Z</time></trkpt><trkpt lat="45.9513228" lon="12.2355773"><ele>152.0</ele><time>2026-05-03T17:23:12.598Z</time></trkpt><trkpt lat="45.9512393" lon="12.2356916"><ele>152.0</ele><time>2026-05-03T17:23:13.598Z</time></trkpt><trkpt lat="45.9511356" lon="12.2357836"><ele>152.0</ele><time>2026-05-03T17:23:14.598Z</time></trkpt><trkpt lat="45.9510334" lon="12.2358684"><ele>151.5</ele><time>2026-05-03T17:23:15.598Z</time></trkpt><trkpt lat="45.9509269" lon="12.2359384"><ele>151.0</ele><time>2026-05-03T17:23:16.598Z</time></trkpt><trkpt lat="45.9508215" lon="12.2359992"><ele>150.5</ele><time>2026-05-03T17:23:17.599Z</time></trkpt><trkpt lat="45.9507163" lon="12.2360556"><ele>150.0</ele><time>2026-05-03T17:23:18.598Z</time></trkpt><trkpt lat="45.9506054" lon="12.2361151"><ele>150.0</ele><time>2026-05-03T17:23:19.598Z</time></trkpt><trkpt lat="45.9504959" lon="12.2361721"><ele>150.0</ele><time>2026-05-03T17:23:20.599Z</time></trkpt><trkpt lat="45.950389" lon="12.2362338"><ele>150.0</ele><time>2026-05-03T17:23:21.599Z</time></trkpt><trkpt lat="45.9502826" lon="12.2362933"><ele>150.0</ele><time>2026-05-03T17:23:22.598Z</time></trkpt><trkpt lat="45.9501763" lon="12.2363569"><ele>150.0</ele><time>2026-05-03T17:23:23.598Z</time></trkpt><trkpt lat="45.9500748" lon="12.2364177"><ele>150.0</ele><time>2026-05-03T17:23:24.599Z</time></trkpt><trkpt lat="45.9499742" lon="12.2364785"><ele>150.0</ele><time>2026-05-03T17:23:25.599Z</time></trkpt><trkpt lat="45.9498758" lon="12.2365375"><ele>150.0</ele><time>2026-05-03T17:23:26.598Z</time></trkpt><trkpt lat="45.9497798" lon="12.2365971"><ele>150.0</ele><time>2026-05-03T17:23:27.599Z</time></trkpt><trkpt lat="45.9496784" lon="12.2366656"><ele>149.5</ele><time>2026-05-03T17:23:28.599Z</time></trkpt><trkpt lat="45.9495817" lon="12.2367392"><ele>149.0</ele><time>2026-05-03T17:23:29.599Z</time></trkpt><trkpt lat="45.9494825" lon="12.2368173"><ele>148.5</ele><time>2026-05-03T17:23:30.598Z</time></trkpt><trkpt lat="45.9493829" lon="12.236895"><ele>148.0</ele><time>2026-05-03T17:23:31.598Z</time></trkpt><trkpt lat="45.9492777" lon="12.2369794"><ele>147.5</ele><time>2026-05-03T17:23:32.599Z</time></trkpt><trkpt lat="45.9491699" lon="12.2370701"><ele>147.0</ele><time>2026-05-03T17:23:33.598Z</time></trkpt><trkpt lat="45.9490575" lon="12.2371677"><ele>146.5</ele><time>2026-05-03T17:23:34.598Z</time></trkpt><trkpt lat="45.9489402" lon="12.2372732"><ele>146.0</ele><time>2026-05-03T17:23:35.598Z</time></trkpt><trkpt lat="45.9488255" lon="12.2373708"><ele>145.5</ele><time>2026-05-03T17:23:36.598Z</time></trkpt><trkpt lat="45.9487165" lon="12.2374668"><ele>145.0</ele><time>2026-05-03T17:23:37.599Z</time></trkpt><trkpt lat="45.9486075" lon="12.2375579"><ele>144.5</ele><time>2026-05-03T17:23:38.599Z</time></trkpt><trkpt lat="45.9485097" lon="12.2376403"><ele>144.0</ele><time>2026-05-03T17:23:39.599Z</time></trkpt><trkpt lat="45.9484104" lon="12.2377245"><ele>143.0</ele><time>2026-05-03T17:23:40.598Z</time></trkpt><trkpt lat="45.9483114" lon="12.2378105"><ele>142.0</ele><time>2026-05-03T17:23:41.599Z</time></trkpt><trkpt lat="45.9482099" lon="12.2378931"><ele>141.0</ele><time>2026-05-03T17:23:42.598Z</time></trkpt><trkpt lat="45.9481067" lon="12.2379781"><ele>140.0</ele><time>2026-05-03T17:23:43.599Z</time></trkpt><trkpt lat="45.9480076" lon="12.2380652"><ele>139.75</ele><time>2026-05-03T17:23:44.598Z</time></trkpt><trkpt lat="45.9479108" lon="12.2381499"><ele>139.5</ele><time>2026-05-03T17:23:45.599Z</time></trkpt><trkpt lat="45.9478138" lon="12.238229"><ele>139.25</ele><time>2026-05-03T17:23:46.598Z</time></trkpt><trkpt lat="45.9477187" lon="12.238312"><ele>139.0</ele><time>2026-05-03T17:23:47.599Z</time></trkpt><trkpt lat="45.9476176" lon="12.2384049"><ele>138.75</ele><time>2026-05-03T17:23:48.599Z</time></trkpt><trkpt lat="45.9475116" lon="12.2384944"><ele>138.5</ele><time>2026-05-03T17:23:49.598Z</time></trkpt><trkpt lat="45.9474078" lon="12.2385823"><ele>138.25</ele><time>2026-05-03T17:23:50.598Z</time></trkpt><trkpt lat="45.9473111" lon="12.238667"><ele>138.0</ele><time>2026-05-03T17:23:51.599Z</time></trkpt><trkpt lat="45.9472219" lon="12.2387381"><ele>138.0</ele><time>2026-05-03T17:23:52.599Z</time></trkpt><trkpt lat="45.947135" lon="12.2388107"><ele>138.0</ele><time>2026-05-03T17:23:53.599Z</time></trkpt><trkpt lat="45.947051" lon="12.2388798"><ele>138.0</ele><time>2026-05-03T17:23:54.598Z</time></trkpt><trkpt lat="45.9469627" lon="12.2389515"><ele>138.0</ele><time>2026-05-03T17:23:55.599Z</time></trkpt><trkpt lat="45.9468689" lon="12.2390219"><ele>138.0</ele><time>2026-05-03T17:23:56.599Z</time></trkpt><trkpt lat="45.9467721" lon="12.2390913"><ele>137.6</ele><time>2026-05-03T17:23:57.599Z</time></trkpt><trkpt lat="45.9466713" lon="12.2391642"><ele>137.20000000000002</ele><time>2026-05-03T17:23:58.598Z</time></trkpt><trkpt lat="45.946569" lon="12.2392313"><ele>136.8</ele><time>2026-05-03T17:23:59.598Z</time></trkpt><trkpt lat="45.946469" lon="12.2392903"><ele>136.4</ele><time>2026-05-03T17:24:00.598Z</time></trkpt><trkpt lat="45.9463738" lon="12.2393448"><ele>136.0</ele><time>2026-05-03T17:24:01.599Z</time></trkpt><trkpt lat="45.9462729" lon="12.2393973"><ele>136.0</ele><time>2026-05-03T17:24:02.599Z</time></trkpt><trkpt lat="45.9461687" lon="12.2394521"><ele>136.0</ele><time>2026-05-03T17:24:03.598Z</time></trkpt><trkpt lat="45.9460577" lon="12.2395048"><ele>136.0</ele><time>2026-05-03T17:24:04.598Z</time></trkpt><trkpt lat="45.9459515" lon="12.2395568"><ele>136.0</ele><time>2026-05-03T17:24:05.598Z</time></trkpt><trkpt lat="45.9458457" lon="12.2396091"><ele>135.5</ele><time>2026-05-03T17:24:06.598Z</time></trkpt><trkpt lat="45.9457257" lon="12.2396715"><ele>135.0</ele><time>2026-05-03T17:24:07.599Z</time></trkpt><trkpt lat="45.9455911" lon="12.2397339"><ele>134.5</ele><time>2026-05-03T17:24:08.599Z</time></trkpt><trkpt lat="45.9454458" lon="12.2397939"><ele>134.0</ele><time>2026-05-03T17:24:09.599Z</time></trkpt><trkpt lat="45.9452949" lon="12.2398531"><ele>133.66666666666666</ele><time>2026-05-03T17:24:10.598Z</time></trkpt><trkpt lat="45.9451444" lon="12.2399155"><ele>133.33333333333334</ele><time>2026-05-03T17:24:11.599Z</time></trkpt><trkpt lat="45.9449973" lon="12.2399759"><ele>133.0</ele><time>2026-05-03T17:24:12.599Z</time></trkpt><trkpt lat="45.9448589" lon="12.2400361"><ele>132.66666666666669</ele><time>2026-05-03T17:24:13.598Z</time></trkpt><trkpt lat="45.9447107" lon="12.2400995"><ele>132.33333333333334</ele><time>2026-05-03T17:24:14.598Z</time></trkpt><trkpt lat="45.9445656" lon="12.2401629"><ele>132.0</ele><time>2026-05-03T17:24:15.599Z</time></trkpt><trkpt lat="45.9444217" lon="12.2402289"><ele>132.0</ele><time>2026-05-03T17:24:16.598Z</time></trkpt><trkpt lat="45.9442824" lon="12.2402964"><ele>132.0</ele><time>2026-05-03T17:24:17.598Z</time></trkpt><trkpt lat="45.9441505" lon="12.2403639"><ele>132.0</ele><time>2026-05-03T17:24:18.598Z</time></trkpt><trkpt lat="45.9440258" lon="12.2404364"><ele>132.0</ele><time>2026-05-03T17:24:19.598Z</time></trkpt><trkpt lat="45.9439069" lon="12.2405085"><ele>131.5</ele><time>2026-05-03T17:24:20.599Z</time></trkpt><trkpt lat="45.9437912" lon="12.2405828"><ele>131.0</ele><time>2026-05-03T17:24:21.599Z</time></trkpt><trkpt lat="45.943679" lon="12.2406526"><ele>130.5</ele><time>2026-05-03T17:24:22.599Z</time></trkpt><trkpt lat="45.9435739" lon="12.24072"><ele>130.0</ele><time>2026-05-03T17:24:23.599Z</time></trkpt><trkpt lat="45.9434727" lon="12.240788"><ele>130.0</ele><time>2026-05-03T17:24:24.598Z</time></trkpt><trkpt lat="45.9433792" lon="12.2408554"><ele>130.0</ele><time>2026-05-03T17:24:25.599Z</time></trkpt><trkpt lat="45.9432864" lon="12.240923"><ele>130.0</ele><time>2026-05-03T17:24:26.599Z</time></trkpt><trkpt lat="45.9431761" lon="12.2410146"><ele>130.0</ele><time>2026-05-03T17:24:27.599Z</time></trkpt><trkpt lat="45.9430555" lon="12.2411156"><ele>130.0</ele><time>2026-05-03T17:24:28.599Z</time></trkpt><trkpt lat="45.9429108" lon="12.2412412"><ele>130.0</ele><time>2026-05-03T17:24:29.599Z</time></trkpt><trkpt lat="45.9427583" lon="12.2413625"><ele>130.0</ele><time>2026-05-03T17:24:30.598Z</time></trkpt><trkpt lat="45.9426013" lon="12.2414899"><ele>129.0</ele><time>2026-05-03T17:24:31.598Z</time></trkpt><trkpt lat="45.9424461" lon="12.2416197"><ele>128.0</ele><time>2026-05-03T17:24:32.598Z</time></trkpt><trkpt lat="45.9422991" lon="12.241744"><ele>127.0</ele><time>2026-05-03T17:24:33.598Z</time></trkpt><trkpt lat="45.9421613" lon="12.2418605"><ele>127.0</ele><time>2026-05-03T17:24:34.598Z</time></trkpt><trkpt lat="45.9420321" lon="12.2419718"><ele>127.0</ele><time>2026-05-03T17:24:35.599Z</time></trkpt><trkpt lat="45.9419105" lon="12.242076"><ele>127.0</ele><time>2026-05-03T17:24:36.599Z</time></trkpt><trkpt lat="45.9418028" lon="12.24217"><ele>127.0</ele><time>2026-05-03T17:24:37.598Z</time></trkpt><trkpt lat="45.9417067" lon="12.2422543"><ele>126.83333333333334</ele><time>2026-05-03T17:24:38.598Z</time></trkpt><trkpt lat="45.94162" lon="12.2423246"><ele>126.66666666666667</ele><time>2026-05-03T17:24:39.598Z</time></trkpt><trkpt lat="45.9415473" lon="12.2423817"><ele>126.5</ele><time>2026-05-03T17:24:40.598Z</time></trkpt><trkpt lat="45.9414878" lon="12.2424263"><ele>126.33333333333334</ele><time>2026-05-03T17:24:41.598Z</time></trkpt><trkpt lat="45.9413733" lon="12.2424741"><ele>126.16666666666667</ele><time>2026-05-03T17:24:43.599Z</time></trkpt><trkpt lat="45.9413102" lon="12.2424898"><ele>126.0</ele><time>2026-05-03T17:24:44.598Z</time></trkpt><trkpt lat="45.9412096" lon="12.2425742"><ele>126.0</ele><time>2026-05-03T17:24:46.598Z</time></trkpt><trkpt lat="45.9411684" lon="12.2426486"><ele>126.0</ele><time>2026-05-03T17:24:47.599Z</time></trkpt><trkpt lat="45.9411168" lon="12.2427334"><ele>126.0</ele><time>2026-05-03T17:24:48.599Z</time></trkpt><trkpt lat="45.9410428" lon="12.242813"><ele>126.0</ele><time>2026-05-03T17:24:49.599Z</time></trkpt><trkpt lat="45.9409497" lon="12.2429015"><ele>126.0</ele><time>2026-05-03T17:24:50.599Z</time></trkpt><trkpt lat="45.9408418" lon="12.243"><ele>125.75</ele><time>2026-05-03T17:24:51.599Z</time></trkpt><trkpt lat="45.9407295" lon="12.243101"><ele>125.5</ele><time>2026-05-03T17:24:52.599Z</time></trkpt><trkpt lat="45.9406046" lon="12.2432158"><ele>125.25</ele><time>2026-05-03T17:24:53.599Z</time></trkpt><trkpt lat="45.9404758" lon="12.2433328"><ele>125.0</ele><time>2026-05-03T17:24:54.599Z</time></trkpt><trkpt lat="45.9403413" lon="12.2434552"><ele>124.66666666666666</ele><time>2026-05-03T17:24:55.599Z</time></trkpt><trkpt lat="45.9402055" lon="12.2435733"><ele>124.33333333333334</ele><time>2026-05-03T17:24:56.598Z</time></trkpt><trkpt lat="45.9400672" lon="12.2436942"><ele>124.0</ele><time>2026-05-03T17:24:57.598Z</time></trkpt><trkpt lat="45.9399295" lon="12.2438186"><ele>124.0</ele><time>2026-05-03T17:24:58.598Z</time></trkpt><trkpt lat="45.9397927" lon="12.2439428"><ele>124.0</ele><time>2026-05-03T17:24:59.598Z</time></trkpt><trkpt lat="45.9396547" lon="12.2440651"><ele>124.0</ele><time>2026-05-03T17:25:00.599Z</time></trkpt><trkpt lat="45.9395172" lon="12.2441874"><ele>124.0</ele><time>2026-05-03T17:25:01.598Z</time></trkpt><trkpt lat="45.9393797" lon="12.2443109"><ele>124.0</ele><time>2026-05-03T17:25:02.598Z</time></trkpt><trkpt lat="45.9392428" lon="12.2444321"><ele>124.0</ele><time>2026-05-03T17:25:03.599Z</time></trkpt><trkpt lat="45.9391098" lon="12.2445561"><ele>123.0</ele><time>2026-05-03T17:25:04.598Z</time></trkpt><trkpt lat="45.9389773" lon="12.2446768"><ele>122.0</ele><time>2026-05-03T17:25:05.598Z</time></trkpt><trkpt lat="45.9388436" lon="12.2447947"><ele>121.0</ele><time>2026-05-03T17:25:06.599Z</time></trkpt><trkpt lat="45.9387133" lon="12.2449131"><ele>120.66666666666667</ele><time>2026-05-03T17:25:07.599Z</time></trkpt><trkpt lat="45.9385827" lon="12.2450256"><ele>120.33333333333334</ele><time>2026-05-03T17:25:08.599Z</time></trkpt><trkpt lat="45.9384555" lon="12.2451438"><ele>120.0</ele><time>2026-05-03T17:25:09.598Z</time></trkpt><trkpt lat="45.9383314" lon="12.2452576"><ele>120.0</ele><time>2026-05-03T17:25:10.598Z</time></trkpt><trkpt lat="45.9382086" lon="12.2453728"><ele>120.0</ele><time>2026-05-03T17:25:11.598Z</time></trkpt><trkpt lat="45.9380863" lon="12.2454928"><ele>120.0</ele><time>2026-05-03T17:25:12.599Z</time></trkpt><trkpt lat="45.9379688" lon="12.2456136"><ele>120.0</ele><time>2026-05-03T17:25:13.599Z</time></trkpt><trkpt lat="45.937851" lon="12.2457396"><ele>120.0</ele><time>2026-05-03T17:25:14.599Z</time></trkpt><trkpt lat="45.9377332" lon="12.245866"><ele>120.0</ele><time>2026-05-03T17:25:15.598Z</time></trkpt><trkpt lat="45.9376189" lon="12.2459989"><ele>120.0</ele><time>2026-05-03T17:25:16.599Z</time></trkpt><trkpt lat="45.9375016" lon="12.2461429"><ele>120.0</ele><time>2026-05-03T17:25:17.598Z</time></trkpt><trkpt lat="45.9373795" lon="12.2462949"><ele>120.0</ele><time>2026-05-03T17:25:18.599Z</time></trkpt><trkpt lat="45.9372583" lon="12.2464524"><ele>120.0</ele><time>2026-05-03T17:25:19.599Z</time></trkpt><trkpt lat="45.9371384" lon="12.2466215"><ele>120.0</ele><time>2026-05-03T17:25:20.598Z</time></trkpt><trkpt lat="45.937017" lon="12.2467913"><ele>120.0</ele><time>2026-05-03T17:25:21.599Z</time></trkpt><trkpt lat="45.9368991" lon="12.2469601"><ele>120.0</ele><time>2026-05-03T17:25:22.599Z</time></trkpt><trkpt lat="45.9367792" lon="12.2471306"><ele>120.0</ele><time>2026-05-03T17:25:23.598Z</time></trkpt><trkpt lat="45.9366596" lon="12.2472997"><ele>120.33333333333334</ele><time>2026-05-03T17:25:24.599Z</time></trkpt><trkpt lat="45.9365437" lon="12.24747"><ele>120.66666666666667</ele><time>2026-05-03T17:25:25.599Z</time></trkpt><trkpt lat="45.9364284" lon="12.2476403"><ele>121.0</ele><time>2026-05-03T17:25:26.599Z</time></trkpt><trkpt lat="45.936311" lon="12.2478078"><ele>121.0</ele><time>2026-05-03T17:25:27.598Z</time></trkpt><trkpt lat="45.9361956" lon="12.247975"><ele>121.0</ele><time>2026-05-03T17:25:28.598Z</time></trkpt><trkpt lat="45.9360817" lon="12.2481414"><ele>121.0</ele><time>2026-05-03T17:25:29.598Z</time></trkpt><trkpt lat="45.9359673" lon="12.2483048"><ele>123.66666666666667</ele><time>2026-05-03T17:25:30.598Z</time></trkpt><trkpt lat="45.9358534" lon="12.2484645"><ele>126.33333333333334</ele><time>2026-05-03T17:25:31.598Z</time></trkpt><trkpt lat="45.935741" lon="12.2486279"><ele>129.0</ele><time>2026-05-03T17:25:32.598Z</time></trkpt><trkpt lat="45.935627" lon="12.2487869"><ele>129.0</ele><time>2026-05-03T17:25:33.598Z</time></trkpt><trkpt lat="45.9355149" lon="12.2489462"><ele>129.0</ele><time>2026-05-03T17:25:34.598Z</time></trkpt><trkpt lat="45.9354012" lon="12.2491089"><ele>129.0</ele><time>2026-05-03T17:25:35.598Z</time></trkpt><trkpt lat="45.9352848" lon="12.2492682"><ele>128.66666666666666</ele><time>2026-05-03T17:25:36.598Z</time></trkpt><trkpt lat="45.9351653" lon="12.2494201"><ele>128.33333333333331</ele><time>2026-05-03T17:25:37.598Z</time></trkpt><trkpt lat="45.9350398" lon="12.2495676"><ele>128.0</ele><time>2026-05-03T17:25:38.598Z</time></trkpt><trkpt lat="45.9349122" lon="12.249707"><ele>123.66666666666666</ele><time>2026-05-03T17:25:39.599Z</time></trkpt><trkpt lat="45.9347849" lon="12.2498421"><ele>119.33333333333334</ele><time>2026-05-03T17:25:40.598Z</time></trkpt><trkpt lat="45.9346531" lon="12.24998"><ele>115.0</ele><time>2026-05-03T17:25:41.599Z</time></trkpt><trkpt lat="45.9345217" lon="12.2501142"><ele>115.0</ele><time>2026-05-03T17:25:42.599Z</time></trkpt><trkpt lat="45.9343879" lon="12.250251"><ele>115.0</ele><time>2026-05-03T17:25:43.598Z</time></trkpt><trkpt lat="45.9342567" lon="12.2503917"><ele>115.0</ele><time>2026-05-03T17:25:44.599Z</time></trkpt><trkpt lat="45.9341224" lon="12.2505303"><ele>114.33333333333334</ele><time>2026-05-03T17:25:45.599Z</time></trkpt><trkpt lat="45.9339898" lon="12.2506646"><ele>113.66666666666666</ele><time>2026-05-03T17:25:46.598Z</time></trkpt><trkpt lat="45.9338592" lon="12.2508034"><ele>113.0</ele><time>2026-05-03T17:25:47.599Z</time></trkpt><trkpt lat="45.9337271" lon="12.2509391"><ele>113.0</ele><time>2026-05-03T17:25:48.599Z</time></trkpt><trkpt lat="45.9335931" lon="12.2510746"><ele>113.0</ele><time>2026-05-03T17:25:49.598Z</time></trkpt><trkpt lat="45.9334561" lon="12.2512157"><ele>113.0</ele><time>2026-05-03T17:25:50.598Z</time></trkpt><trkpt lat="45.9333195" lon="12.2513578"><ele>112.66666666666666</ele><time>2026-05-03T17:25:51.599Z</time></trkpt><trkpt lat="45.9331815" lon="12.2514968"><ele>112.33333333333334</ele><time>2026-05-03T17:25:52.598Z</time></trkpt><trkpt lat="45.9330322" lon="12.251656"><ele>112.0</ele><time>2026-05-03T17:25:53.598Z</time></trkpt><trkpt lat="45.9328815" lon="12.2518241"><ele>112.0</ele><time>2026-05-03T17:25:54.599Z</time></trkpt><trkpt lat="45.9327132" lon="12.2520009"><ele>112.0</ele><time>2026-05-03T17:25:55.599Z</time></trkpt><trkpt lat="45.9325315" lon="12.2521814"><ele>112.0</ele><time>2026-05-03T17:25:56.598Z</time></trkpt><trkpt lat="45.932342" lon="12.2523688"><ele>109.5</ele><time>2026-05-03T17:25:57.599Z</time></trkpt><trkpt lat="45.9321522" lon="12.2525596"><ele>107.0</ele><time>2026-05-03T17:25:58.599Z</time></trkpt><trkpt lat="45.9319627" lon="12.2527516"><ele>107.0</ele><time>2026-05-03T17:25:59.599Z</time></trkpt><trkpt lat="45.9317745" lon="12.252946"><ele>107.0</ele><time>2026-05-03T17:26:00.598Z</time></trkpt><trkpt lat="45.9315869" lon="12.2531395"><ele>106.5</ele><time>2026-05-03T17:26:01.599Z</time></trkpt><trkpt lat="45.9314001" lon="12.2533301"><ele>106.0</ele><time>2026-05-03T17:26:02.598Z</time></trkpt><trkpt lat="45.9312183" lon="12.2535223"><ele>106.0</ele><time>2026-05-03T17:26:03.598Z</time></trkpt><trkpt lat="45.9310339" lon="12.2537079"><ele>106.0</ele><time>2026-05-03T17:26:04.599Z</time></trkpt><trkpt lat="45.9308535" lon="12.2538952"><ele>106.0</ele><time>2026-05-03T17:26:05.598Z</time></trkpt><trkpt lat="45.9306758" lon="12.254081"><ele>106.0</ele><time>2026-05-03T17:26:06.598Z</time></trkpt><trkpt lat="45.9305023" lon="12.2542583"><ele>106.0</ele><time>2026-05-03T17:26:07.598Z</time></trkpt><trkpt lat="45.9303397" lon="12.2544277"><ele>106.0</ele><time>2026-05-03T17:26:08.598Z</time></trkpt><trkpt lat="45.9301894" lon="12.2545831"><ele>106.5</ele><time>2026-05-03T17:26:09.599Z</time></trkpt><trkpt lat="45.9300546" lon="12.254723"><ele>107.0</ele><time>2026-05-03T17:26:10.599Z</time></trkpt><trkpt lat="45.9299339" lon="12.2548479"><ele>107.5</ele><time>2026-05-03T17:26:11.599Z</time></trkpt><trkpt lat="45.9298241" lon="12.2549567"><ele>108.0</ele><time>2026-05-03T17:26:12.599Z</time></trkpt><trkpt lat="45.9297262" lon="12.2550554"><ele>107.2</ele><time>2026-05-03T17:26:13.598Z</time></trkpt><trkpt lat="45.9296343" lon="12.255142"><ele>106.4</ele><time>2026-05-03T17:26:14.598Z</time></trkpt><trkpt lat="45.9295456" lon="12.2552199"><ele>105.60000000000001</ele><time>2026-05-03T17:26:15.599Z</time></trkpt><trkpt lat="45.9294576" lon="12.2552768"><ele>104.80000000000001</ele><time>2026-05-03T17:26:16.599Z</time></trkpt><trkpt lat="45.9293794" lon="12.2553179"><ele>104.0</ele><time>2026-05-03T17:26:17.599Z</time></trkpt><trkpt lat="45.929304" lon="12.2553501"><ele>104.0</ele><time>2026-05-03T17:26:18.599Z</time></trkpt><trkpt lat="45.9292338" lon="12.2553677"><ele>104.0</ele><time>2026-05-03T17:26:19.598Z</time></trkpt><trkpt lat="45.9291667" lon="12.255371"><ele>104.0</ele><time>2026-05-03T17:26:20.598Z</time></trkpt><trkpt lat="45.9290503" lon="12.2553985"><ele>104.0</ele><time>2026-05-03T17:26:22.598Z</time></trkpt><trkpt lat="45.9289745" lon="12.2555349"><ele>104.0</ele><time>2026-05-03T17:26:24.598Z</time></trkpt><trkpt lat="45.9289468" lon="12.2556413"><ele>104.0</ele><time>2026-05-03T17:26:25.599Z</time></trkpt><trkpt lat="45.9289086" lon="12.2557532"><ele>104.0</ele><time>2026-05-03T17:26:26.598Z</time></trkpt><trkpt lat="45.9288521" lon="12.2558661"><ele>104.0</ele><time>2026-05-03T17:26:27.599Z</time></trkpt><trkpt lat="45.9287752" lon="12.2559839"><ele>104.0</ele><time>2026-05-03T17:26:28.599Z</time></trkpt><trkpt lat="45.9286807" lon="12.2561047"><ele>104.0</ele><time>2026-05-03T17:26:29.599Z</time></trkpt><trkpt lat="45.9285733" lon="12.2562214"><ele>104.0</ele><time>2026-05-03T17:26:30.598Z</time></trkpt><trkpt lat="45.9284504" lon="12.256357"><ele>104.0</ele><time>2026-05-03T17:26:31.598Z</time></trkpt><trkpt lat="45.9283175" lon="12.2564949"><ele>104.0</ele><time>2026-05-03T17:26:32.599Z</time></trkpt><trkpt lat="45.9281773" lon="12.2566388"><ele>104.0</ele><time>2026-05-03T17:26:33.599Z</time></trkpt><trkpt lat="45.92803" lon="12.2567849"><ele>104.0</ele><time>2026-05-03T17:26:34.598Z</time></trkpt><trkpt lat="45.9278776" lon="12.2569324"><ele>104.0</ele><time>2026-05-03T17:26:35.599Z</time></trkpt><trkpt lat="45.9277198" lon="12.2570913"><ele>104.0</ele><time>2026-05-03T17:26:36.598Z</time></trkpt><trkpt lat="45.9275614" lon="12.2572512"><ele>104.0</ele><time>2026-05-03T17:26:37.599Z</time></trkpt><trkpt lat="45.9274026" lon="12.2574163"><ele>104.0</ele><time>2026-05-03T17:26:38.598Z</time></trkpt><trkpt lat="45.927245" lon="12.2575859"><ele>103.66666666666666</ele><time>2026-05-03T17:26:39.598Z</time></trkpt><trkpt lat="45.9270865" lon="12.2577475"><ele>103.33333333333334</ele><time>2026-05-03T17:26:40.598Z</time></trkpt><trkpt lat="45.9269314" lon="12.2579091"><ele>103.0</ele><time>2026-05-03T17:26:41.598Z</time></trkpt><trkpt lat="45.9267784" lon="12.2580665"><ele>103.0</ele><time>2026-05-03T17:26:42.598Z</time></trkpt><trkpt lat="45.9266298" lon="12.2582258"><ele>103.0</ele><time>2026-05-03T17:26:43.599Z</time></trkpt><trkpt lat="45.9264866" lon="12.258371"><ele>103.0</ele><time>2026-05-03T17:26:44.599Z</time></trkpt><trkpt lat="45.926347" lon="12.2585129"><ele>103.0</ele><time>2026-05-03T17:26:45.598Z</time></trkpt><trkpt lat="45.9262138" lon="12.2586464"><ele>103.0</ele><time>2026-05-03T17:26:46.598Z</time></trkpt><trkpt lat="45.9260848" lon="12.258773"><ele>103.0</ele><time>2026-05-03T17:26:47.599Z</time></trkpt><trkpt lat="45.9259579" lon="12.258902"><ele>102.5</ele><time>2026-05-03T17:26:48.598Z</time></trkpt><trkpt lat="45.9258347" lon="12.2590299"><ele>102.0</ele><time>2026-05-03T17:26:49.599Z</time></trkpt><trkpt lat="45.9257152" lon="12.2591515"><ele>101.5</ele><time>2026-05-03T17:26:50.599Z</time></trkpt><trkpt lat="45.9256014" lon="12.2592669"><ele>101.0</ele><time>2026-05-03T17:26:51.598Z</time></trkpt><trkpt lat="45.925493" lon="12.2593801"><ele>101.0</ele><time>2026-05-03T17:26:52.599Z</time></trkpt><trkpt lat="45.9253828" lon="12.2594939"><ele>101.0</ele><time>2026-05-03T17:26:53.598Z</time></trkpt><trkpt lat="45.9252645" lon="12.2596128"><ele>101.0</ele><time>2026-05-03T17:26:54.599Z</time></trkpt><trkpt lat="45.925144" lon="12.259737"><ele>101.0</ele><time>2026-05-03T17:26:55.598Z</time></trkpt><trkpt lat="45.9250193" lon="12.2598664"><ele>101.0</ele><time>2026-05-03T17:26:56.598Z</time></trkpt><trkpt lat="45.9248883" lon="12.2599989"><ele>101.0</ele><time>2026-05-03T17:26:57.598Z</time></trkpt><trkpt lat="45.9247581" lon="12.260132"><ele>101.0</ele><time>2026-05-03T17:26:58.599Z</time></trkpt><trkpt lat="45.9246235" lon="12.2602713"><ele>101.0</ele><time>2026-05-03T17:26:59.598Z</time></trkpt><trkpt lat="45.9244871" lon="12.2604143"><ele>101.0</ele><time>2026-05-03T17:27:00.599Z</time></trkpt><trkpt lat="45.9243484" lon="12.2605588"><ele>101.0</ele><time>2026-05-03T17:27:01.598Z</time></trkpt><trkpt lat="45.9242087" lon="12.2607056"><ele>100.0</ele><time>2026-05-03T17:27:02.598Z</time></trkpt><trkpt lat="45.9240664" lon="12.2608564"><ele>99.0</ele><time>2026-05-03T17:27:03.599Z</time></trkpt><trkpt lat="45.9239222" lon="12.2610049"><ele>98.0</ele><time>2026-05-03T17:27:04.599Z</time></trkpt><trkpt lat="45.9237781" lon="12.2611554"><ele>98.0</ele><time>2026-05-03T17:27:05.598Z</time></trkpt><trkpt lat="45.9236324" lon="12.2613056"><ele>98.0</ele><time>2026-05-03T17:27:06.599Z</time></trkpt><trkpt lat="45.9234876" lon="12.2614529"><ele>98.0</ele><time>2026-05-03T17:27:07.598Z</time></trkpt><trkpt lat="45.9233424" lon="12.2616037"><ele>97.0</ele><time>2026-05-03T17:27:08.599Z</time></trkpt><trkpt lat="45.9231981" lon="12.2617516"><ele>96.0</ele><time>2026-05-03T17:27:09.598Z</time></trkpt><trkpt lat="45.9230531" lon="12.2619"><ele>95.0</ele><time>2026-05-03T17:27:10.599Z</time></trkpt><trkpt lat="45.9229088" lon="12.2620458"><ele>95.0</ele><time>2026-05-03T17:27:11.598Z</time></trkpt><trkpt lat="45.9227635" lon="12.2621929"><ele>95.0</ele><time>2026-05-03T17:27:12.598Z</time></trkpt><trkpt lat="45.9226204" lon="12.2623387"><ele>95.0</ele><time>2026-05-03T17:27:13.599Z</time></trkpt><trkpt lat="45.9224747" lon="12.2624807"><ele>94.66666666666667</ele><time>2026-05-03T17:27:14.598Z</time></trkpt><trkpt lat="45.922331" lon="12.2626273"><ele>94.33333333333333</ele><time>2026-05-03T17:27:15.598Z</time></trkpt><trkpt lat="45.9221886" lon="12.2627764"><ele>94.0</ele><time>2026-05-03T17:27:16.598Z</time></trkpt><trkpt lat="45.9220465" lon="12.2629245"><ele>94.0</ele><time>2026-05-03T17:27:17.599Z</time></trkpt><trkpt lat="45.9219066" lon="12.2630699"><ele>94.0</ele><time>2026-05-03T17:27:18.599Z</time></trkpt><trkpt lat="45.921764" lon="12.2632139"><ele>94.0</ele><time>2026-05-03T17:27:19.598Z</time></trkpt><trkpt lat="45.9216198" lon="12.2633573"><ele>94.0</ele><time>2026-05-03T17:27:20.598Z</time></trkpt><trkpt lat="45.9214804" lon="12.2635053"><ele>94.0</ele><time>2026-05-03T17:27:21.598Z</time></trkpt><trkpt lat="45.9213372" lon="12.2636539"><ele>94.0</ele><time>2026-05-03T17:27:22.598Z</time></trkpt><trkpt lat="45.9211913" lon="12.2638001"><ele>94.0</ele><time>2026-05-03T17:27:23.599Z</time></trkpt><trkpt lat="45.9210431" lon="12.2639458"><ele>94.0</ele><time>2026-05-03T17:27:24.599Z</time></trkpt><trkpt lat="45.9208951" lon="12.264094"><ele>94.0</ele><time>2026-05-03T17:27:25.598Z</time></trkpt><trkpt lat="45.9207476" lon="12.2642477"><ele>93.66666666666666</ele><time>2026-05-03T17:27:26.599Z</time></trkpt><trkpt lat="45.9205993" lon="12.2644038"><ele>93.33333333333333</ele><time>2026-05-03T17:27:27.598Z</time></trkpt><trkpt lat="45.9204486" lon="12.2645585"><ele>93.0</ele><time>2026-05-03T17:27:28.599Z</time></trkpt><trkpt lat="45.9202947" lon="12.2647176"><ele>93.33333333333333</ele><time>2026-05-03T17:27:29.598Z</time></trkpt><trkpt lat="45.9201381" lon="12.264876"><ele>93.66666666666666</ele><time>2026-05-03T17:27:30.599Z</time></trkpt><trkpt lat="45.9199856" lon="12.2650319"><ele>94.0</ele><time>2026-05-03T17:27:31.598Z</time></trkpt><trkpt lat="45.9198289" lon="12.2651899"><ele>92.33333333333333</ele><time>2026-05-03T17:27:32.599Z</time></trkpt><trkpt lat="45.9196759" lon="12.265348"><ele>90.66666666666667</ele><time>2026-05-03T17:27:33.598Z</time></trkpt><trkpt lat="45.9195255" lon="12.2655086"><ele>89.0</ele><time>2026-05-03T17:27:34.599Z</time></trkpt><trkpt lat="45.9193724" lon="12.2656685"><ele>89.33333333333334</ele><time>2026-05-03T17:27:35.598Z</time></trkpt><trkpt lat="45.9192199" lon="12.2658249"><ele>89.66666666666667</ele><time>2026-05-03T17:27:36.598Z</time></trkpt><trkpt lat="45.9190705" lon="12.2659761"><ele>90.0</ele><time>2026-05-03T17:27:37.599Z</time></trkpt><trkpt lat="45.9189182" lon="12.2661373"><ele>90.0</ele><time>2026-05-03T17:27:38.599Z</time></trkpt><trkpt lat="45.918762" lon="12.2662915"><ele>90.0</ele><time>2026-05-03T17:27:39.598Z</time></trkpt><trkpt lat="45.9186093" lon="12.266451"><ele>90.0</ele><time>2026-05-03T17:27:40.598Z</time></trkpt><trkpt lat="45.9184572" lon="12.2666069"><ele>89.33333333333333</ele><time>2026-05-03T17:27:41.598Z</time></trkpt><trkpt lat="45.9183047" lon="12.2667639"><ele>88.66666666666666</ele><time>2026-05-03T17:27:42.598Z</time></trkpt><trkpt lat="45.9181518" lon="12.2669219"><ele>88.0</ele><time>2026-05-03T17:27:43.598Z</time></trkpt><trkpt lat="45.9179979" lon="12.2670786"><ele>88.0</ele><time>2026-05-03T17:27:44.598Z</time></trkpt><trkpt lat="45.9178443" lon="12.2672386"><ele>88.0</ele><time>2026-05-03T17:27:45.598Z</time></trkpt><trkpt lat="45.9176922" lon="12.2673942"><ele>88.0</ele><time>2026-05-03T17:27:46.599Z</time></trkpt><trkpt lat="45.9175431" lon="12.2675532"><ele>88.0</ele><time>2026-05-03T17:27:47.599Z</time></trkpt><trkpt lat="45.9173942" lon="12.2677056"><ele>88.0</ele><time>2026-05-03T17:27:48.599Z</time></trkpt><trkpt lat="45.9172452" lon="12.2678563"><ele>88.0</ele><time>2026-05-03T17:27:49.598Z</time></trkpt><trkpt lat="45.9170972" lon="12.2680069"><ele>87.66666666666666</ele><time>2026-05-03T17:27:50.598Z</time></trkpt><trkpt lat="45.9169491" lon="12.2681596"><ele>87.33333333333333</ele><time>2026-05-03T17:27:51.598Z</time></trkpt><trkpt lat="45.9168011" lon="12.2683133"><ele>87.0</ele><time>2026-05-03T17:27:52.599Z</time></trkpt><trkpt lat="45.9166541" lon="12.2684668"><ele>87.66666666666667</ele><time>2026-05-03T17:27:53.598Z</time></trkpt><trkpt lat="45.9165067" lon="12.2686142"><ele>88.33333333333334</ele><time>2026-05-03T17:27:54.598Z</time></trkpt><trkpt lat="45.9163605" lon="12.2687602"><ele>89.0</ele><time>2026-05-03T17:27:55.598Z</time></trkpt><trkpt lat="45.9162163" lon="12.2689082"><ele>89.0</ele><time>2026-05-03T17:27:56.599Z</time></trkpt><trkpt lat="45.9160707" lon="12.2690537"><ele>89.0</ele><time>2026-05-03T17:27:57.598Z</time></trkpt><trkpt lat="45.9159245" lon="12.269206"><ele>89.0</ele><time>2026-05-03T17:27:58.598Z</time></trkpt><trkpt lat="45.9157823" lon="12.2693608"><ele>88.66666666666667</ele><time>2026-05-03T17:27:59.598Z</time></trkpt><trkpt lat="45.9156353" lon="12.2695093"><ele>88.33333333333333</ele><time>2026-05-03T17:28:00.599Z</time></trkpt><trkpt lat="45.9154873" lon="12.2696598"><ele>88.0</ele><time>2026-05-03T17:28:01.598Z</time></trkpt><trkpt lat="45.9153411" lon="12.2698136"><ele>88.0</ele><time>2026-05-03T17:28:02.599Z</time></trkpt><trkpt lat="45.9151962" lon="12.2699655"><ele>88.0</ele><time>2026-05-03T17:28:03.598Z</time></trkpt><trkpt lat="45.9150526" lon="12.270115"><ele>88.0</ele><time>2026-05-03T17:28:04.598Z</time></trkpt><trkpt lat="45.914909" lon="12.2702571"><ele>87.66666666666666</ele><time>2026-05-03T17:28:05.598Z</time></trkpt><trkpt lat="45.9147677" lon="12.2704011"><ele>87.33333333333333</ele><time>2026-05-03T17:28:06.598Z</time></trkpt><trkpt lat="45.9146279" lon="12.2705468"><ele>87.0</ele><time>2026-05-03T17:28:07.598Z</time></trkpt><trkpt lat="45.9144879" lon="12.2706909"><ele>87.0</ele><time>2026-05-03T17:28:08.598Z</time></trkpt><trkpt lat="45.9143455" lon="12.2708339"><ele>87.0</ele><time>2026-05-03T17:28:09.598Z</time></trkpt><trkpt lat="45.9142037" lon="12.27098"><ele>87.0</ele><time>2026-05-03T17:28:10.599Z</time></trkpt><trkpt lat="45.9140593" lon="12.2711276"><ele>86.33333333333333</ele><time>2026-05-03T17:28:11.598Z</time></trkpt><trkpt lat="45.9139174" lon="12.2712752"><ele>85.66666666666666</ele><time>2026-05-03T17:28:12.599Z</time></trkpt><trkpt lat="45.9137738" lon="12.2714183"><ele>85.0</ele><time>2026-05-03T17:28:13.598Z</time></trkpt><trkpt lat="45.9136335" lon="12.2715622"><ele>85.0</ele><time>2026-05-03T17:28:14.598Z</time></trkpt><trkpt lat="45.9134912" lon="12.2717066"><ele>85.0</ele><time>2026-05-03T17:28:15.598Z</time></trkpt><trkpt lat="45.9133511" lon="12.2718479"><ele>85.0</ele><time>2026-05-03T17:28:16.598Z</time></trkpt><trkpt lat="45.9132106" lon="12.2719842"><ele>85.0</ele><time>2026-05-03T17:28:17.598Z</time></trkpt><trkpt lat="45.9130756" lon="12.2721224"><ele>85.0</ele><time>2026-05-03T17:28:18.598Z</time></trkpt><trkpt lat="45.9129477" lon="12.2722566"><ele>85.0</ele><time>2026-05-03T17:28:19.598Z</time></trkpt><trkpt lat="45.9128239" lon="12.2723847"><ele>84.75</ele><time>2026-05-03T17:28:20.599Z</time></trkpt><trkpt lat="45.9127025" lon="12.2725075"><ele>84.5</ele><time>2026-05-03T17:28:21.598Z</time></trkpt><trkpt lat="45.9125849" lon="12.2726314"><ele>84.25</ele><time>2026-05-03T17:28:22.598Z</time></trkpt><trkpt lat="45.9124719" lon="12.2727512"><ele>84.0</ele><time>2026-05-03T17:28:23.598Z</time></trkpt><trkpt lat="45.912363" lon="12.2728658"><ele>84.0</ele><time>2026-05-03T17:28:24.599Z</time></trkpt><trkpt lat="45.9122535" lon="12.2729785"><ele>84.0</ele><time>2026-05-03T17:28:25.598Z</time></trkpt><trkpt lat="45.9121405" lon="12.2730916"><ele>84.0</ele><time>2026-05-03T17:28:26.599Z</time></trkpt><trkpt lat="45.9120287" lon="12.2731981"><ele>84.0</ele><time>2026-05-03T17:28:27.598Z</time></trkpt><trkpt lat="45.9119168" lon="12.2733095"><ele>84.0</ele><time>2026-05-03T17:28:28.599Z</time></trkpt><trkpt lat="45.9118129" lon="12.2734185"><ele>84.0</ele><time>2026-05-03T17:28:29.598Z</time></trkpt><trkpt lat="45.9117128" lon="12.2735252"><ele>84.0</ele><time>2026-05-03T17:28:30.599Z</time></trkpt><trkpt lat="45.9116137" lon="12.2736318"><ele>84.0</ele><time>2026-05-03T17:28:31.599Z</time></trkpt><trkpt lat="45.9115188" lon="12.2737296"><ele>84.0</ele><time>2026-05-03T17:28:32.599Z</time></trkpt><trkpt lat="45.9114284" lon="12.273827"><ele>84.0</ele><time>2026-05-03T17:28:33.599Z</time></trkpt><trkpt lat="45.9113423" lon="12.2739138"><ele>84.0</ele><time>2026-05-03T17:28:34.599Z</time></trkpt><trkpt lat="45.9112627" lon="12.2739963"><ele>84.0</ele><time>2026-05-03T17:28:35.598Z</time></trkpt><trkpt lat="45.9111864" lon="12.2740766"><ele>84.0</ele><time>2026-05-03T17:28:36.599Z</time></trkpt><trkpt lat="45.9111129" lon="12.2741553"><ele>83.66666666666667</ele><time>2026-05-03T17:28:37.599Z</time></trkpt><trkpt lat="45.9110426" lon="12.2742313"><ele>83.33333333333333</ele><time>2026-05-03T17:28:38.599Z</time></trkpt><trkpt lat="45.9109719" lon="12.2743002"><ele>83.0</ele><time>2026-05-03T17:28:39.599Z</time></trkpt><trkpt lat="45.9109049" lon="12.2743559"><ele>82.66666666666666</ele><time>2026-05-03T17:28:40.598Z</time></trkpt><trkpt lat="45.9108347" lon="12.2743969"><ele>82.33333333333333</ele><time>2026-05-03T17:28:41.599Z</time></trkpt><trkpt lat="45.910767" lon="12.2744233"><ele>82.0</ele><time>2026-05-03T17:28:42.598Z</time></trkpt><trkpt lat="45.9107025" lon="12.2744408"><ele>82.0</ele><time>2026-05-03T17:28:43.599Z</time></trkpt><trkpt lat="45.9105997" lon="12.2745292"><ele>82.0</ele><time>2026-05-03T17:28:45.598Z</time></trkpt><trkpt lat="45.9105553" lon="12.2747062"><ele>82.0</ele><time>2026-05-03T17:28:47.599Z</time></trkpt><trkpt lat="45.9105259" lon="12.274811"><ele>82.0</ele><time>2026-05-03T17:28:48.599Z</time></trkpt><trkpt lat="45.9104755" lon="12.2749055"><ele>82.0</ele><time>2026-05-03T17:28:49.599Z</time></trkpt><trkpt lat="45.9104084" lon="12.2749997"><ele>81.8</ele><time>2026-05-03T17:28:50.598Z</time></trkpt><trkpt lat="45.9103291" lon="12.2751004"><ele>81.6</ele><time>2026-05-03T17:28:51.599Z</time></trkpt><trkpt lat="45.9102516" lon="12.2752025"><ele>81.39999999999999</ele><time>2026-05-03T17:28:52.599Z</time></trkpt><trkpt lat="45.9101671" lon="12.2753202"><ele>81.19999999999999</ele><time>2026-05-03T17:28:53.598Z</time></trkpt><trkpt lat="45.910081" lon="12.2754411"><ele>81.0</ele><time>2026-05-03T17:28:54.598Z</time></trkpt><trkpt lat="45.9099912" lon="12.2755617"><ele>81.0</ele><time>2026-05-03T17:28:55.598Z</time></trkpt><trkpt lat="45.9098992" lon="12.2756811"><ele>81.0</ele><time>2026-05-03T17:28:56.598Z</time></trkpt><trkpt lat="45.9098091" lon="12.2758046"><ele>81.0</ele><time>2026-05-03T17:28:57.599Z</time></trkpt><trkpt lat="45.909721" lon="12.2759321"><ele>81.0</ele><time>2026-05-03T17:28:58.598Z</time></trkpt><trkpt lat="45.9096327" lon="12.2760588"><ele>81.0</ele><time>2026-05-03T17:28:59.598Z</time></trkpt><trkpt lat="45.9095463" lon="12.2761891"><ele>81.0</ele><time>2026-05-03T17:29:00.598Z</time></trkpt><trkpt lat="45.9094576" lon="12.2763157"><ele>81.0</ele><time>2026-05-03T17:29:01.599Z</time></trkpt><trkpt lat="45.9093699" lon="12.276442"><ele>81.0</ele><time>2026-05-03T17:29:02.598Z</time></trkpt><trkpt lat="45.9092832" lon="12.2765723"><ele>80.5</ele><time>2026-05-03T17:29:03.598Z</time></trkpt><trkpt lat="45.909193" lon="12.2766989"><ele>80.0</ele><time>2026-05-03T17:29:04.599Z</time></trkpt><trkpt lat="45.9091042" lon="12.2768323"><ele>79.5</ele><time>2026-05-03T17:29:05.599Z</time></trkpt><trkpt lat="45.909014" lon="12.2769641"><ele>79.0</ele><time>2026-05-03T17:29:06.598Z</time></trkpt><trkpt lat="45.9089212" lon="12.277096"><ele>79.0</ele><time>2026-05-03T17:29:07.598Z</time></trkpt><trkpt lat="45.9088304" lon="12.277229"><ele>79.0</ele><time>2026-05-03T17:29:08.598Z</time></trkpt><trkpt lat="45.9087375" lon="12.2773678"><ele>79.0</ele><time>2026-05-03T17:29:09.599Z</time></trkpt><trkpt lat="45.9086428" lon="12.2775039"><ele>79.0</ele><time>2026-05-03T17:29:10.598Z</time></trkpt><trkpt lat="45.9085474" lon="12.27764"><ele>79.0</ele><time>2026-05-03T17:29:11.599Z</time></trkpt><trkpt lat="45.9084545" lon="12.277781"><ele>79.0</ele><time>2026-05-03T17:29:12.598Z</time></trkpt><trkpt lat="45.9083618" lon="12.2779232"><ele>79.0</ele><time>2026-05-03T17:29:13.599Z</time></trkpt><trkpt lat="45.9082637" lon="12.2780685"><ele>79.0</ele><time>2026-05-03T17:29:14.599Z</time></trkpt><trkpt lat="45.9081651" lon="12.2782162"><ele>78.75</ele><time>2026-05-03T17:29:15.598Z</time></trkpt><trkpt lat="45.9080633" lon="12.2783619"><ele>78.5</ele><time>2026-05-03T17:29:16.599Z</time></trkpt><trkpt lat="45.9079628" lon="12.2785137"><ele>78.25</ele><time>2026-05-03T17:29:17.599Z</time></trkpt><trkpt lat="45.9078584" lon="12.2786666"><ele>78.0</ele><time>2026-05-03T17:29:18.598Z</time></trkpt><trkpt lat="45.9077519" lon="12.278819"><ele>78.0</ele><time>2026-05-03T17:29:19.599Z</time></trkpt><trkpt lat="45.9076424" lon="12.2789756"><ele>78.0</ele><time>2026-05-03T17:29:20.598Z</time></trkpt><trkpt lat="45.9075319" lon="12.2791309"><ele>78.0</ele><time>2026-05-03T17:29:21.599Z</time></trkpt><trkpt lat="45.9074235" lon="12.2792869"><ele>77.66666666666667</ele><time>2026-05-03T17:29:22.599Z</time></trkpt><trkpt lat="45.9073137" lon="12.2794461"><ele>77.33333333333334</ele><time>2026-05-03T17:29:23.599Z</time></trkpt><trkpt lat="45.9072044" lon="12.2796047"><ele>77.0</ele><time>2026-05-03T17:29:24.599Z</time></trkpt><trkpt lat="45.9070944" lon="12.2797636"><ele>77.0</ele><time>2026-05-03T17:29:25.599Z</time></trkpt><trkpt lat="45.9069819" lon="12.2799282"><ele>77.0</ele><time>2026-05-03T17:29:26.599Z</time></trkpt><trkpt lat="45.9068696" lon="12.2800826"><ele>77.0</ele><time>2026-05-03T17:29:27.599Z</time></trkpt><trkpt lat="45.9067579" lon="12.2802378"><ele>76.66666666666667</ele><time>2026-05-03T17:29:28.599Z</time></trkpt><trkpt lat="45.9066486" lon="12.2803974"><ele>76.33333333333333</ele><time>2026-05-03T17:29:29.598Z</time></trkpt><trkpt lat="45.9065382" lon="12.2805571"><ele>76.0</ele><time>2026-05-03T17:29:30.599Z</time></trkpt><trkpt lat="45.9064307" lon="12.2807202"><ele>76.0</ele><time>2026-05-03T17:29:31.598Z</time></trkpt><trkpt lat="45.9063211" lon="12.2808826"><ele>76.0</ele><time>2026-05-03T17:29:32.598Z</time></trkpt><trkpt lat="45.9062137" lon="12.2810471"><ele>76.0</ele><time>2026-05-03T17:29:33.598Z</time></trkpt><trkpt lat="45.9061023" lon="12.2812043"><ele>76.0</ele><time>2026-05-03T17:29:34.599Z</time></trkpt><trkpt lat="45.9059927" lon="12.2813644"><ele>76.0</ele><time>2026-05-03T17:29:35.599Z</time></trkpt><trkpt lat="45.9058813" lon="12.2815209"><ele>76.0</ele><time>2026-05-03T17:29:36.599Z</time></trkpt><trkpt lat="45.9057752" lon="12.2816808"><ele>76.0</ele><time>2026-05-03T17:29:37.599Z</time></trkpt><trkpt lat="45.9056652" lon="12.2818407"><ele>76.0</ele><time>2026-05-03T17:29:38.599Z</time></trkpt><trkpt lat="45.9055569" lon="12.2819969"><ele>76.0</ele><time>2026-05-03T17:29:39.599Z</time></trkpt><trkpt lat="45.9054467" lon="12.2821535"><ele>76.0</ele><time>2026-05-03T17:29:40.598Z</time></trkpt><trkpt lat="45.9053368" lon="12.28231"><ele>76.0</ele><time>2026-05-03T17:29:41.598Z</time></trkpt><trkpt lat="45.9052321" lon="12.2824637"><ele>76.0</ele><time>2026-05-03T17:29:42.598Z</time></trkpt><trkpt lat="45.9051257" lon="12.2826114"><ele>75.5</ele><time>2026-05-03T17:29:43.599Z</time></trkpt><trkpt lat="45.9050213" lon="12.2827637"><ele>75.0</ele><time>2026-05-03T17:29:44.599Z</time></trkpt><trkpt lat="45.9049147" lon="12.2829155"><ele>74.5</ele><time>2026-05-03T17:29:45.598Z</time></trkpt><trkpt lat="45.9048086" lon="12.2830659"><ele>74.0</ele><time>2026-05-03T17:29:46.599Z</time></trkpt><trkpt lat="45.9047012" lon="12.2832153"><ele>74.0</ele><time>2026-05-03T17:29:47.599Z</time></trkpt><trkpt lat="45.9045973" lon="12.2833638"><ele>74.0</ele><time>2026-05-03T17:29:48.598Z</time></trkpt><trkpt lat="45.9044929" lon="12.2835142"><ele>74.0</ele><time>2026-05-03T17:29:49.598Z</time></trkpt><trkpt lat="45.904392" lon="12.2836653"><ele>74.0</ele><time>2026-05-03T17:29:50.598Z</time></trkpt><trkpt lat="45.9042954" lon="12.2838068"><ele>73.75</ele><time>2026-05-03T17:29:51.599Z</time></trkpt><trkpt lat="45.9042013" lon="12.2839455"><ele>73.5</ele><time>2026-05-03T17:29:52.598Z</time></trkpt><trkpt lat="45.9041062" lon="12.284081"><ele>73.25</ele><time>2026-05-03T17:29:53.598Z</time></trkpt><trkpt lat="45.9040144" lon="12.2842143"><ele>73.0</ele><time>2026-05-03T17:29:54.598Z</time></trkpt><trkpt lat="45.9039236" lon="12.2843488"><ele>73.0</ele><time>2026-05-03T17:29:55.599Z</time></trkpt><trkpt lat="45.9038343" lon="12.2844816"><ele>73.0</ele><time>2026-05-03T17:29:56.598Z</time></trkpt><trkpt lat="45.9037412" lon="12.284612"><ele>73.0</ele><time>2026-05-03T17:29:57.598Z</time></trkpt><trkpt lat="45.9036515" lon="12.2847456"><ele>73.0</ele><time>2026-05-03T17:29:58.598Z</time></trkpt><trkpt lat="45.903559" lon="12.284878"><ele>73.25</ele><time>2026-05-03T17:29:59.598Z</time></trkpt><trkpt lat="45.9034669" lon="12.2850081"><ele>73.5</ele><time>2026-05-03T17:30:00.599Z</time></trkpt><trkpt lat="45.9033777" lon="12.2851384"><ele>73.75</ele><time>2026-05-03T17:30:01.599Z</time></trkpt><trkpt lat="45.9032881" lon="12.2852703"><ele>74.0</ele><time>2026-05-03T17:30:02.598Z</time></trkpt><trkpt lat="45.9032006" lon="12.285398"><ele>73.5</ele><time>2026-05-03T17:30:03.598Z</time></trkpt><trkpt lat="45.9031146" lon="12.2855235"><ele>73.0</ele><time>2026-05-03T17:30:04.599Z</time></trkpt><trkpt lat="45.9030256" lon="12.285651"><ele>72.5</ele><time>2026-05-03T17:30:05.598Z</time></trkpt><trkpt lat="45.9029377" lon="12.2857774"><ele>72.0</ele><time>2026-05-03T17:30:06.599Z</time></trkpt><trkpt lat="45.9028474" lon="12.2859033"><ele>71.75</ele><time>2026-05-03T17:30:07.598Z</time></trkpt><trkpt lat="45.9027584" lon="12.2860231"><ele>71.5</ele><time>2026-05-03T17:30:08.598Z</time></trkpt><trkpt lat="45.9026696" lon="12.2861442"><ele>71.25</ele><time>2026-05-03T17:30:09.598Z</time></trkpt><trkpt lat="45.9025868" lon="12.2862646"><ele>71.0</ele><time>2026-05-03T17:30:10.599Z</time></trkpt><trkpt lat="45.9025087" lon="12.2863735"><ele>71.0</ele><time>2026-05-03T17:30:11.598Z</time></trkpt><trkpt lat="45.9024412" lon="12.2864689"><ele>71.0</ele><time>2026-05-03T17:30:12.599Z</time></trkpt><trkpt lat="45.9023786" lon="12.2865501"><ele>71.0</ele><time>2026-05-03T17:30:13.599Z</time></trkpt><trkpt lat="45.902321" lon="12.2866274"><ele>71.0</ele><time>2026-05-03T17:30:14.598Z</time></trkpt><trkpt lat="45.9022322" lon="12.2867656"><ele>71.0</ele><time>2026-05-03T17:30:16.599Z</time></trkpt><trkpt lat="45.9021826" lon="12.2868436"><ele>71.0</ele><time>2026-05-03T17:30:17.599Z</time></trkpt><trkpt lat="45.90213" lon="12.2869223"><ele>71.0</ele><time>2026-05-03T17:30:18.598Z</time></trkpt><trkpt lat="45.9020691" lon="12.2870073"><ele>71.0</ele><time>2026-05-03T17:30:19.598Z</time></trkpt><trkpt lat="45.9020051" lon="12.2870981"><ele>71.0</ele><time>2026-05-03T17:30:20.599Z</time></trkpt><trkpt lat="45.9019379" lon="12.2871931"><ele>71.0</ele><time>2026-05-03T17:30:21.598Z</time></trkpt><trkpt lat="45.9018692" lon="12.2872928"><ele>71.0</ele><time>2026-05-03T17:30:22.599Z</time></trkpt><trkpt lat="45.9017972" lon="12.2873913"><ele>71.0</ele><time>2026-05-03T17:30:23.598Z</time></trkpt><trkpt lat="45.9017267" lon="12.287491"><ele>71.0</ele><time>2026-05-03T17:30:24.598Z</time></trkpt><trkpt lat="45.9016582" lon="12.2875916"><ele>71.0</ele><time>2026-05-03T17:30:25.599Z</time></trkpt><trkpt lat="45.9015939" lon="12.2876936"><ele>71.0</ele><time>2026-05-03T17:30:26.598Z</time></trkpt><trkpt lat="45.9015247" lon="12.2877959"><ele>71.0</ele><time>2026-05-03T17:30:27.598Z</time></trkpt><trkpt lat="45.9014544" lon="12.2878975"><ele>71.0</ele><time>2026-05-03T17:30:28.599Z</time></trkpt><trkpt lat="45.901384" lon="12.2880022"><ele>71.0</ele><time>2026-05-03T17:30:29.599Z</time></trkpt><trkpt lat="45.9013141" lon="12.2881087"><ele>71.0</ele><time>2026-05-03T17:30:30.598Z</time></trkpt><trkpt lat="45.9012449" lon="12.2882097"><ele>71.0</ele><time>2026-05-03T17:30:31.598Z</time></trkpt><trkpt lat="45.9011786" lon="12.2883108"><ele>71.0</ele><time>2026-05-03T17:30:32.598Z</time></trkpt><trkpt lat="45.9011106" lon="12.2884093"><ele>71.0</ele><time>2026-05-03T17:30:33.599Z</time></trkpt><trkpt lat="45.9010459" lon="12.2884968"><ele>71.0</ele><time>2026-05-03T17:30:34.598Z</time></trkpt><trkpt lat="45.9009856" lon="12.2885776"><ele>71.0</ele><time>2026-05-03T17:30:35.598Z</time></trkpt><trkpt lat="45.9009309" lon="12.2886546"><ele>71.0</ele><time>2026-05-03T17:30:36.599Z</time></trkpt><trkpt lat="45.9008847" lon="12.2887213"><ele>71.0</ele><time>2026-05-03T17:30:37.599Z</time></trkpt><trkpt lat="45.900804" lon="12.2888436"><ele>71.0</ele><time>2026-05-03T17:30:39.599Z</time></trkpt><trkpt lat="45.9007163" lon="12.2889652"><ele>71.0</ele><time>2026-05-03T17:30:41.598Z</time></trkpt><trkpt lat="45.9006662" lon="12.2890276"><ele>71.0</ele><time>2026-05-03T17:30:42.598Z</time></trkpt><trkpt lat="45.9006177" lon="12.2890987"><ele>71.0</ele><time>2026-05-03T17:30:43.598Z</time></trkpt><trkpt lat="45.900571" lon="12.2891646"><ele>71.0</ele><time>2026-05-03T17:30:44.598Z</time></trkpt><trkpt lat="45.9005181" lon="12.2892352"><ele>71.0</ele><time>2026-05-03T17:30:45.598Z</time></trkpt><trkpt lat="45.9004645" lon="12.2893117"><ele>71.0</ele><time>2026-05-03T17:30:46.599Z</time></trkpt><trkpt lat="45.9004086" lon="12.2893942"><ele>71.0</ele><time>2026-05-03T17:30:47.598Z</time></trkpt><trkpt lat="45.9003454" lon="12.289483"><ele>71.0</ele><time>2026-05-03T17:30:48.598Z</time></trkpt><trkpt lat="45.9002911" lon="12.2895673"><ele>71.0</ele><time>2026-05-03T17:30:49.598Z</time></trkpt><trkpt lat="45.9002374" lon="12.2896441"><ele>71.0</ele><time>2026-05-03T17:30:50.599Z</time></trkpt><trkpt lat="45.9001902" lon="12.2897119"><ele>71.0</ele><time>2026-05-03T17:30:51.599Z</time></trkpt><trkpt lat="45.9001301" lon="12.2898108"><ele>71.0</ele><time>2026-05-03T17:30:53.598Z</time></trkpt><trkpt lat="45.9000844" lon="12.289897"><ele>71.0</ele><time>2026-05-03T17:31:23.599Z</time></trkpt><trkpt lat="45.9000209" lon="12.2899891"><ele>70.66666666666667</ele><time>2026-05-03T17:31:26.599Z</time></trkpt><trkpt lat="45.8999619" lon="12.290086"><ele>70.33333333333334</ele><time>2026-05-03T17:31:28.599Z</time></trkpt><trkpt lat="45.8998792" lon="12.2902001"><ele>70.0</ele><time>2026-05-03T17:31:30.598Z</time></trkpt><trkpt lat="45.8998307" lon="12.2902675"><ele>69.66666666666667</ele><time>2026-05-03T17:31:31.599Z</time></trkpt><trkpt lat="45.8997775" lon="12.2903414"><ele>69.33333333333333</ele><time>2026-05-03T17:31:32.598Z</time></trkpt><trkpt lat="45.8997182" lon="12.2904306"><ele>69.0</ele><time>2026-05-03T17:31:33.598Z</time></trkpt><trkpt lat="45.8996525" lon="12.2905244"><ele>68.8</ele><time>2026-05-03T17:31:34.599Z</time></trkpt><trkpt lat="45.8995802" lon="12.2906222"><ele>68.60000000000001</ele><time>2026-05-03T17:31:35.599Z</time></trkpt><trkpt lat="45.8995069" lon="12.2907294"><ele>68.4</ele><time>2026-05-03T17:31:36.598Z</time></trkpt><trkpt lat="45.8994289" lon="12.2908384"><ele>68.2</ele><time>2026-05-03T17:31:37.599Z</time></trkpt><trkpt lat="45.8993556" lon="12.2909431"><ele>68.0</ele><time>2026-05-03T17:31:38.599Z</time></trkpt><trkpt lat="45.8992808" lon="12.2910496"><ele>67.8</ele><time>2026-05-03T17:31:39.599Z</time></trkpt><trkpt lat="45.8992084" lon="12.2911583"><ele>67.6</ele><time>2026-05-03T17:31:40.598Z</time></trkpt><trkpt lat="45.8991331" lon="12.2912646"><ele>67.4</ele><time>2026-05-03T17:31:41.598Z</time></trkpt><trkpt lat="45.8990616" lon="12.2913687"><ele>67.2</ele><time>2026-05-03T17:31:42.598Z</time></trkpt><trkpt lat="45.898987" lon="12.2914747"><ele>67.0</ele><time>2026-05-03T17:31:43.598Z</time></trkpt><trkpt lat="45.8989144" lon="12.2915833"><ele>67.4</ele><time>2026-05-03T17:31:44.599Z</time></trkpt><trkpt lat="45.8988402" lon="12.2916882"><ele>67.80000000000001</ele><time>2026-05-03T17:31:45.599Z</time></trkpt><trkpt lat="45.8987663" lon="12.2917929"><ele>68.2</ele><time>2026-05-03T17:31:46.599Z</time></trkpt><trkpt lat="45.8986957" lon="12.2919017"><ele>68.60000000000001</ele><time>2026-05-03T17:31:47.599Z</time></trkpt><trkpt lat="45.8986239" lon="12.2920088"><ele>69.0</ele><time>2026-05-03T17:31:48.598Z</time></trkpt><trkpt lat="45.8985492" lon="12.2921124"><ele>69.0</ele><time>2026-05-03T17:31:49.598Z</time></trkpt><trkpt lat="45.8984748" lon="12.2922186"><ele>69.0</ele><time>2026-05-03T17:31:50.598Z</time></trkpt><trkpt lat="45.8984" lon="12.2923243"><ele>69.0</ele><time>2026-05-03T17:31:51.598Z</time></trkpt><trkpt lat="45.8983221" lon="12.2924276"><ele>69.0</ele><time>2026-05-03T17:31:52.599Z</time></trkpt><trkpt lat="45.8982465" lon="12.2925304"><ele>69.0</ele><time>2026-05-03T17:31:53.599Z</time></trkpt><trkpt lat="45.8981746" lon="12.2926352"><ele>68.4</ele><time>2026-05-03T17:31:54.599Z</time></trkpt><trkpt lat="45.8980994" lon="12.2927465"><ele>67.80000000000001</ele><time>2026-05-03T17:31:55.599Z</time></trkpt><trkpt lat="45.8980213" lon="12.2928571"><ele>67.19999999999999</ele><time>2026-05-03T17:31:56.599Z</time></trkpt><trkpt lat="45.8979459" lon="12.2929764"><ele>66.6</ele><time>2026-05-03T17:31:57.599Z</time></trkpt><trkpt lat="45.897866" lon="12.2930927"><ele>66.0</ele><time>2026-05-03T17:31:58.598Z</time></trkpt><trkpt lat="45.8977933" lon="12.2932111"><ele>65.75</ele><time>2026-05-03T17:31:59.598Z</time></trkpt><trkpt lat="45.8977074" lon="12.2933243"><ele>65.5</ele><time>2026-05-03T17:32:00.599Z</time></trkpt><trkpt lat="45.8976283" lon="12.2934416"><ele>65.25</ele><time>2026-05-03T17:32:01.599Z</time></trkpt><trkpt lat="45.8975471" lon="12.293556"><ele>65.0</ele><time>2026-05-03T17:32:02.599Z</time></trkpt><trkpt lat="45.8974666" lon="12.2936668"><ele>65.4</ele><time>2026-05-03T17:32:03.598Z</time></trkpt><trkpt lat="45.8973891" lon="12.2937672"><ele>65.8</ele><time>2026-05-03T17:32:04.598Z</time></trkpt><trkpt lat="45.897313" lon="12.2938664"><ele>66.2</ele><time>2026-05-03T17:32:05.598Z</time></trkpt><trkpt lat="45.8972395" lon="12.2939677"><ele>66.6</ele><time>2026-05-03T17:32:06.599Z</time></trkpt><trkpt lat="45.8971627" lon="12.2940661"><ele>67.0</ele><time>2026-05-03T17:32:07.599Z</time></trkpt><trkpt lat="45.8970828" lon="12.2941614"><ele>67.0</ele><time>2026-05-03T17:32:08.599Z</time></trkpt><trkpt lat="45.8970026" lon="12.2942525"><ele>67.0</ele><time>2026-05-03T17:32:09.598Z</time></trkpt><trkpt lat="45.8969248" lon="12.2943458"><ele>67.0</ele><time>2026-05-03T17:32:10.598Z</time></trkpt><trkpt lat="45.8968419" lon="12.2944457"><ele>67.0</ele><time>2026-05-03T17:32:11.599Z</time></trkpt><trkpt lat="45.8967592" lon="12.2945392"><ele>67.0</ele><time>2026-05-03T17:32:12.599Z</time></trkpt><trkpt lat="45.8966738" lon="12.2946249"><ele>67.0</ele><time>2026-05-03T17:32:13.599Z</time></trkpt><trkpt lat="45.8965893" lon="12.2947137"><ele>67.0</ele><time>2026-05-03T17:32:14.598Z</time></trkpt><trkpt lat="45.8965082" lon="12.2948057"><ele>67.0</ele><time>2026-05-03T17:32:15.598Z</time></trkpt><trkpt lat="45.8964234" lon="12.294893"><ele>67.0</ele><time>2026-05-03T17:32:16.598Z</time></trkpt><trkpt lat="45.8963401" lon="12.294979"><ele>67.0</ele><time>2026-05-03T17:32:17.599Z</time></trkpt><trkpt lat="45.8962558" lon="12.2950586"><ele>67.2</ele><time>2026-05-03T17:32:18.599Z</time></trkpt><trkpt lat="45.8961684" lon="12.295136"><ele>67.4</ele><time>2026-05-03T17:32:19.599Z</time></trkpt><trkpt lat="45.8960816" lon="12.2952138"><ele>67.6</ele><time>2026-05-03T17:32:20.598Z</time></trkpt><trkpt lat="45.8959943" lon="12.2952863"><ele>67.8</ele><time>2026-05-03T17:32:21.598Z</time></trkpt><trkpt lat="45.8959091" lon="12.2953571"><ele>68.0</ele><time>2026-05-03T17:32:22.599Z</time></trkpt><trkpt lat="45.8958254" lon="12.295427"><ele>67.8</ele><time>2026-05-03T17:32:23.598Z</time></trkpt><trkpt lat="45.8957416" lon="12.2954949"><ele>67.6</ele><time>2026-05-03T17:32:24.599Z</time></trkpt><trkpt lat="45.8956575" lon="12.2955623"><ele>67.4</ele><time>2026-05-03T17:32:25.598Z</time></trkpt><trkpt lat="45.8955741" lon="12.2956341"><ele>67.2</ele><time>2026-05-03T17:32:26.598Z</time></trkpt><trkpt lat="45.8954945" lon="12.2957076"><ele>67.0</ele><time>2026-05-03T17:32:27.599Z</time></trkpt><trkpt lat="45.8954131" lon="12.2957742"><ele>67.0</ele><time>2026-05-03T17:32:28.598Z</time></trkpt><trkpt lat="45.895332" lon="12.2958365"><ele>67.0</ele><time>2026-05-03T17:32:29.599Z</time></trkpt><trkpt lat="45.895255" lon="12.2958975"><ele>67.0</ele><time>2026-05-03T17:32:30.599Z</time></trkpt><trkpt lat="45.8951738" lon="12.2959592"><ele>67.0</ele><time>2026-05-03T17:32:31.599Z</time></trkpt><trkpt lat="45.8950964" lon="12.2960194"><ele>67.0</ele><time>2026-05-03T17:32:32.599Z</time></trkpt><trkpt lat="45.8950263" lon="12.2960699"><ele>67.0</ele><time>2026-05-03T17:32:33.599Z</time></trkpt><trkpt lat="45.8949623" lon="12.2961198"><ele>66.8</ele><time>2026-05-03T17:32:34.598Z</time></trkpt><trkpt lat="45.8948926" lon="12.2961738"><ele>66.6</ele><time>2026-05-03T17:32:35.598Z</time></trkpt><trkpt lat="45.8948121" lon="12.2962291"><ele>66.39999999999999</ele><time>2026-05-03T17:32:36.598Z</time></trkpt><trkpt lat="45.8947216" lon="12.2962918"><ele>66.2</ele><time>2026-05-03T17:32:37.598Z</time></trkpt><trkpt lat="45.8946199" lon="12.2963671"><ele>66.0</ele><time>2026-05-03T17:32:38.599Z</time></trkpt><trkpt lat="45.8945163" lon="12.2964474"><ele>66.0</ele><time>2026-05-03T17:32:39.599Z</time></trkpt><trkpt lat="45.8944077" lon="12.2965269"><ele>66.0</ele><time>2026-05-03T17:32:40.599Z</time></trkpt><trkpt lat="45.8942919" lon="12.2966194"><ele>66.0</ele><time>2026-05-03T17:32:41.599Z</time></trkpt><trkpt lat="45.8941742" lon="12.2967119"><ele>66.0</ele><time>2026-05-03T17:32:42.598Z</time></trkpt><trkpt lat="45.8940543" lon="12.2968036"><ele>66.0</ele><time>2026-05-03T17:32:43.599Z</time></trkpt><trkpt lat="45.8939432" lon="12.2968905"><ele>66.0</ele><time>2026-05-03T17:32:44.599Z</time></trkpt><trkpt lat="45.8938403" lon="12.2969699"><ele>66.0</ele><time>2026-05-03T17:32:45.598Z</time></trkpt><trkpt lat="45.8937431" lon="12.2970451"><ele>66.0</ele><time>2026-05-03T17:32:46.599Z</time></trkpt><trkpt lat="45.893646" lon="12.2971145"><ele>66.0</ele><time>2026-05-03T17:32:47.599Z</time></trkpt><trkpt lat="45.893559" lon="12.297186"><ele>66.0</ele><time>2026-05-03T17:32:48.598Z</time></trkpt><trkpt lat="45.8934759" lon="12.2972502"><ele>66.0</ele><time>2026-05-03T17:32:49.598Z</time></trkpt><trkpt lat="45.8933937" lon="12.297307"><ele>66.0</ele><time>2026-05-03T17:32:50.598Z</time></trkpt><trkpt lat="45.8933153" lon="12.2973726"><ele>66.0</ele><time>2026-05-03T17:32:51.598Z</time></trkpt><trkpt lat="45.8932488" lon="12.2974227"><ele>65.83333333333333</ele><time>2026-05-03T17:32:52.599Z</time></trkpt><trkpt lat="45.8931854" lon="12.2974808"><ele>65.66666666666667</ele><time>2026-05-03T17:32:53.598Z</time></trkpt><trkpt lat="45.8931247" lon="12.2975286"><ele>65.5</ele><time>2026-05-03T17:32:54.599Z</time></trkpt><trkpt lat="45.8930669" lon="12.2975723"><ele>65.33333333333334</ele><time>2026-05-03T17:32:55.598Z</time></trkpt><trkpt lat="45.892955" lon="12.2976366"><ele>65.16666666666667</ele><time>2026-05-03T17:32:57.599Z</time></trkpt><trkpt lat="45.8928509" lon="12.2976997"><ele>65.0</ele><time>2026-05-03T17:32:59.599Z</time></trkpt><trkpt lat="45.8927462" lon="12.2977588"><ele>65.0</ele><time>2026-05-03T17:33:01.598Z</time></trkpt><trkpt lat="45.892653" lon="12.2978247"><ele>65.0</ele><time>2026-05-03T17:33:03.598Z</time></trkpt><trkpt lat="45.8925774" lon="12.2979082"><ele>65.0</ele><time>2026-05-03T17:33:05.598Z</time></trkpt><trkpt lat="45.8925089" lon="12.2979684"><ele>65.0</ele><time>2026-05-03T17:33:07.598Z</time></trkpt><trkpt lat="45.8924567" lon="12.2980388"><ele>65.0</ele><time>2026-05-03T17:36:51.599Z</time></trkpt><trkpt lat="45.8923652" lon="12.2981168"><ele>64.33333333333334</ele><time>2026-05-03T17:36:53.599Z</time></trkpt><trkpt lat="45.8923079" lon="12.2981627"><ele>63.66666666666667</ele><time>2026-05-03T17:36:54.599Z</time></trkpt><trkpt lat="45.892242" lon="12.2982096"><ele>63.0</ele><time>2026-05-03T17:36:55.599Z</time></trkpt><trkpt lat="45.8921691" lon="12.298272"><ele>62.33333333333333</ele><time>2026-05-03T17:36:56.599Z</time></trkpt><trkpt lat="45.8920881" lon="12.2983379"><ele>61.666666666666664</ele><time>2026-05-03T17:36:57.599Z</time></trkpt><trkpt lat="45.8920047" lon="12.2984007"><ele>61.0</ele><time>2026-05-03T17:36:58.599Z</time></trkpt><trkpt lat="45.8919145" lon="12.2984682"><ele>61.0</ele><time>2026-05-03T17:36:59.598Z</time></trkpt><trkpt lat="45.8918246" lon="12.298546"><ele>60.99999999999999</ele><time>2026-05-03T17:37:00.598Z</time></trkpt><trkpt lat="45.8917328" lon="12.2986212"><ele>60.99999999999999</ele><time>2026-05-03T17:37:01.599Z</time></trkpt><trkpt lat="45.891634" lon="12.2986947"><ele>61.0</ele><time>2026-05-03T17:37:02.598Z</time></trkpt><trkpt lat="45.8915377" lon="12.2987717"><ele>61.0</ele><time>2026-05-03T17:37:03.598Z</time></trkpt><trkpt lat="45.8914412" lon="12.2988544"><ele>61.599999999999994</ele><time>2026-05-03T17:37:04.598Z</time></trkpt><trkpt lat="45.8913487" lon="12.2989389"><ele>62.199999999999996</ele><time>2026-05-03T17:37:05.599Z</time></trkpt><trkpt lat="45.8912504" lon="12.2990201"><ele>62.800000000000004</ele><time>2026-05-03T17:37:06.598Z</time></trkpt><trkpt lat="45.8911528" lon="12.2991012"><ele>63.400000000000006</ele><time>2026-05-03T17:37:07.599Z</time></trkpt><trkpt lat="45.8910576" lon="12.2991906"><ele>64.0</ele><time>2026-05-03T17:37:08.599Z</time></trkpt><trkpt lat="45.8909612" lon="12.2992745"><ele>64.4</ele><time>2026-05-03T17:37:09.599Z</time></trkpt><trkpt lat="45.8908666" lon="12.2993604"><ele>64.80000000000001</ele><time>2026-05-03T17:37:10.598Z</time></trkpt><trkpt lat="45.8907694" lon="12.2994412"><ele>65.19999999999999</ele><time>2026-05-03T17:37:11.599Z</time></trkpt><trkpt lat="45.890673" lon="12.2995231"><ele>65.6</ele><time>2026-05-03T17:37:12.598Z</time></trkpt><trkpt lat="45.8905767" lon="12.2996068"><ele>66.0</ele><time>2026-05-03T17:37:13.598Z</time></trkpt><trkpt lat="45.8904803" lon="12.2996877"><ele>66.2</ele><time>2026-05-03T17:37:14.599Z</time></trkpt><trkpt lat="45.8903857" lon="12.2997657"><ele>66.39999999999999</ele><time>2026-05-03T17:37:15.599Z</time></trkpt><trkpt lat="45.8902907" lon="12.2998405"><ele>66.6</ele><time>2026-05-03T17:37:16.599Z</time></trkpt><trkpt lat="45.8901962" lon="12.2999156"><ele>66.8</ele><time>2026-05-03T17:37:17.599Z</time></trkpt><trkpt lat="45.8901044" lon="12.2999852"><ele>67.0</ele><time>2026-05-03T17:37:18.599Z</time></trkpt><trkpt lat="45.8900064" lon="12.3000529"><ele>67.0</ele><time>2026-05-03T17:37:19.598Z</time></trkpt><trkpt lat="45.889919" lon="12.3001212"><ele>67.0</ele><time>2026-05-03T17:37:20.599Z</time></trkpt><trkpt lat="45.8898325" lon="12.3001901"><ele>67.0</ele><time>2026-05-03T17:37:21.599Z</time></trkpt><trkpt lat="45.8897421" lon="12.300248"><ele>67.0</ele><time>2026-05-03T17:37:22.598Z</time></trkpt><trkpt lat="45.8896609" lon="12.3003044"><ele>67.0</ele><time>2026-05-03T17:37:23.598Z</time></trkpt><trkpt lat="45.8895877" lon="12.3003547"><ele>67.0</ele><time>2026-05-03T17:37:24.598Z</time></trkpt><trkpt lat="45.889522" lon="12.3004032"><ele>67.0</ele><time>2026-05-03T17:37:25.598Z</time></trkpt><trkpt lat="45.889458" lon="12.3004551"><ele>67.0</ele><time>2026-05-03T17:37:26.599Z</time></trkpt><trkpt lat="45.8893994" lon="12.3005041"><ele>67.0</ele><time>2026-05-03T17:37:27.598Z</time></trkpt><trkpt lat="45.8893371" lon="12.3005516"><ele>67.0</ele><time>2026-05-03T17:37:28.598Z</time></trkpt><trkpt lat="45.8892666" lon="12.3005839"><ele>67.0</ele><time>2026-05-03T17:37:29.599Z</time></trkpt><trkpt lat="45.8891951" lon="12.3005926"><ele>67.0</ele><time>2026-05-03T17:37:30.598Z</time></trkpt><trkpt lat="45.889117" lon="12.300578"><ele>67.0</ele><time>2026-05-03T17:37:31.598Z</time></trkpt><trkpt lat="45.8890321" lon="12.300549"><ele>67.0</ele><time>2026-05-03T17:37:32.598Z</time></trkpt><trkpt lat="45.8889415" lon="12.3005078"><ele>67.0</ele><time>2026-05-03T17:37:33.598Z</time></trkpt><trkpt lat="45.8888468" lon="12.3004586"><ele>67.0</ele><time>2026-05-03T17:37:34.599Z</time></trkpt><trkpt lat="45.8887532" lon="12.3004128"><ele>67.0</ele><time>2026-05-03T17:37:35.599Z</time></trkpt><trkpt lat="45.8886464" lon="12.3003594"><ele>67.0</ele><time>2026-05-03T17:37:36.599Z</time></trkpt><trkpt lat="45.888546" lon="12.3003043"><ele>67.0</ele><time>2026-05-03T17:37:37.599Z</time></trkpt><trkpt lat="45.8884404" lon="12.3002488"><ele>67.0</ele><time>2026-05-03T17:37:38.599Z</time></trkpt><trkpt lat="45.8883379" lon="12.3001991"><ele>67.0</ele><time>2026-05-03T17:37:39.598Z</time></trkpt><trkpt lat="45.8882392" lon="12.3001435"><ele>67.0</ele><time>2026-05-03T17:37:40.598Z</time></trkpt><trkpt lat="45.8881383" lon="12.3000893"><ele>66.83333333333333</ele><time>2026-05-03T17:37:41.599Z</time></trkpt><trkpt lat="45.8880396" lon="12.3000413"><ele>66.66666666666666</ele><time>2026-05-03T17:37:42.598Z</time></trkpt><trkpt lat="45.8879521" lon="12.2999959"><ele>66.5</ele><time>2026-05-03T17:37:43.599Z</time></trkpt><trkpt lat="45.8878662" lon="12.2999627"><ele>66.33333333333333</ele><time>2026-05-03T17:37:44.599Z</time></trkpt><trkpt lat="45.8877948" lon="12.2999289"><ele>66.16666666666667</ele><time>2026-05-03T17:37:45.598Z</time></trkpt><trkpt lat="45.8877205" lon="12.299901"><ele>66.0</ele><time>2026-05-03T17:37:46.599Z</time></trkpt><trkpt lat="45.8876513" lon="12.299872"><ele>65.85714285714286</ele><time>2026-05-03T17:37:47.598Z</time></trkpt><trkpt lat="45.8875869" lon="12.2998599"><ele>65.71428571428572</ele><time>2026-05-03T17:37:48.598Z</time></trkpt><trkpt lat="45.8875183" lon="12.2998462"><ele>65.57142857142858</ele><time>2026-05-03T17:37:49.598Z</time></trkpt><trkpt lat="45.8874481" lon="12.2998268"><ele>65.42857142857143</ele><time>2026-05-03T17:37:50.599Z</time></trkpt><trkpt lat="45.887385" lon="12.2998112"><ele>65.28571428571429</ele><time>2026-05-03T17:37:51.599Z</time></trkpt><trkpt lat="45.8873201" lon="12.2997926"><ele>65.14285714285715</ele><time>2026-05-03T17:37:52.599Z</time></trkpt><trkpt lat="45.8872441" lon="12.2998734"><ele>65.0</ele><time>2026-05-03T17:37:54.599Z</time></trkpt><trkpt lat="45.8872276" lon="12.2999972"><ele>65.0</ele><time>2026-05-03T17:37:56.599Z</time></trkpt><trkpt lat="45.8872358" lon="12.3001465"><ele>65.0</ele><time>2026-05-03T17:37:58.599Z</time></trkpt><trkpt lat="45.8872468" lon="12.3002732"><ele>65.0</ele><time>2026-05-03T17:38:00.598Z</time></trkpt><trkpt lat="45.8872794" lon="12.3003574"><ele>65.0</ele><time>2026-05-03T17:38:02.598Z</time></trkpt><trkpt lat="45.8873411" lon="12.3003928"><ele>65.0</ele><time>2026-05-03T17:38:04.598Z</time></trkpt><trkpt lat="45.8874305" lon="12.3004289"><ele>65.0</ele><time>2026-05-03T17:38:06.599Z</time></trkpt><trkpt lat="45.8875132" lon="12.3004575"><ele>65.0</ele><time>2026-05-03T17:38:08.598Z</time></trkpt><trkpt lat="45.8875826" lon="12.3004476"><ele>65.0</ele><time>2026-05-03T17:38:11.599Z</time></trkpt></trkseg></trk></gpx>